[[{"header":{"parameterUnit":"m.s-1","parameterCategory":1,"la1":31.0,"la2":29.5877,"lo1":-88.7671,"lo2":-86.6584,"dx":0.0162,"dy":0.0185,"nx":115,"ny":88,"refTime":"2023-01-10T18:00:00:Z","depth":0,"parameterNumber":2,"parameterNumberName":"U-component_of_WINDS"},"data":[0.0,0.0,0.0,0.0,0.0,0.0,0.0,0.0,0.0,0.0,0.0,0.0,0.0,0.0,0.0,0.0,0.0,0.0,0.0,0.0,0.0,0.0,0.0,0.0,0.0,0.0,0.0,0.0,0.0,0.0,0.0,0.0,0.0,0.0,0.0,0.0,0.0,0.0,0.0,0.0,0.0,0.0,0.0,0.0,0.0,0.0,0.0,0.0,0.0,0.0,0.0,0.0,0.0,0.0,0.0,0.0,0.0,0.0,0.0,0.0,0.0,0.0,0.0,0.0,0.0,0.0,0.0,0.0,0.0,0.0,0.0,0.0,0.0,0.0,0.0,0.0,0.0,0.0,0.0,0.0,0.0,0.0,0.0,0.0,0.0,0.0,0.0,0.0,0.0,0.0,0.0,0.0,0.0,0.0,0.0,0.0,0.0,0.0,0.0,0.0,0.0,0.0,0.0,0.0,0.0,0.0,0.0,0.0,0.0,0.0,0.0,0.0,0.0,0.0,0.0,0.0,0.0,0.0,0.0,0.0,0.0,0.0,0.0,0.0,0.0,0.0,0.0,0.0,0.0,0.0,0.0,0.0,0.0,0.0,0.0,0.0,0.0,0.0,0.0,0.0,0.0,0.0,0.0,0.0,0.0,0.0,0.0,0.0,0.0,0.0,0.0,0.0,0.0,0.0,0.0,0.0,0.0,0.0,0.0,0.0,0.0,0.0,0.0,0.0,0.0,0.0,0.0,0.0,0.0,0.0,0.0,0.0,0.0,0.0,0.0,0.0,0.0,0.0,0.0,0.0,0.0,0.0,0.0,0.0,0.0,0.0,0.0,0.0,0.0,0.0,0.0,0.0,0.0,0.0,0.0,0.0,0.0,0.0,0.0,0.0,0.0,0.0,0.0,0.0,0.0,0.0,0.0,0.0,0.0,0.0,0.0,0.0,0.0,0.0,0.0,0.0,0.0,0.0,0.0,0.0,0.0,0.0,0.0,0.0,0.0,0.0,0.0,0.0,0.0,0.0,0.0,0.0,0.0,0.0,0.0,0.0,0.0,0.0,0.0,0.0,0.0,0.0,0.0,0.0,0.0,0.0,0.0,0.0,0.0,0.0,0.0,0.0,0.0,0.0,0.0,0.0,0.0,0.0,0.0,0.0,0.0,0.0,0.0,0.0,0.0,0.0,0.0,0.0,0.0,0.0,0.0,0.0,0.0,0.0,0.0,0.0,0.0,0.0,0.0,0.0,0.0,0.0,0.0,0.0,0.0,0.0,0.0,0.0,0.0,0.0,0.0,0.0,0.0,0.0,0.0,0.0,0.0,0.0,0.0,0.0,0.0,0.0,0.0,0.0,0.0,0.0,0.0,0.0,0.0,0.0,0.0,0.0,0.0,0.0,0.0,0.0,0.0,0.0,0.0,0.0,0.0,0.0,0.0,0.0,0.0,0.0,0.0,0.0,0.0,0.0,0.0,0.0,0.0,0.0,0.0,0.0,0.0,0.0,0.0,0.0,0.0,0.0,0.0,0.0,0.0,0.0,0.0,0.0,0.0,0.0,0.0,0.0,0.0,0.0,0.0,0.0,0.0,0.0,0.0,0.0,0.0,0.0,0.0,0.0,0.0,0.0,0.0,0.0,0.0,0.0,0.0,0.0,0.0,0.0,0.0,0.0,0.0,0.0,0.0,0.0,0.0,0.0,0.0,0.0,0.0,0.0,0.0,0.0,0.0,0.0,0.0,0.0,0.0,0.0,0.0,0.0,0.0,0.0,0.0,0.0,0.0,0.0,0.0,0.0,0.0,0.0,0.0,0.0,0.0,0.0,0.0,0.0,0.0,0.0,0.0,0.0,0.0,0.0,0.0,0.0,0.0,0.0,0.0,0.0,0.0,0.0,0.0,0.0,0.0,0.0,0.0,0.0,0.0,0.0,0.0,0.0,0.0,0.0,0.0,0.0,0.0,0.0,0.0,0.0,0.0,0.0,0.0,0.0,0.0,0.0,0.0,0.0,0.0,0.0,0.0,0.0,0.0,0.0,0.0,0.0,0.0,0.0,0.0,0.0,0.0,0.0,0.0,0.0,0.0,0.0,0.0,0.0,0.0,0.0,0.0,0.0,0.0,0.0,0.0,0.0,0.0,0.0,0.0,0.0,0.0,0.0,0.0,0.0,0.0,0.0,0.0,0.0,0.0,0.0,0.0,0.0,0.0,0.0,0.0,0.0,0.0,0.0,0.0,0.0,0.0,0.0,0.0,0.0,0.0,0.0,0.0,0.0,0.0,0.0,0.0,0.0,0.0,0.0,0.0,0.0,0.0,0.0,0.0,0.0,0.0,0.0,0.0,0.0,0.0,0.0,0.0,0.0,0.0,0.0,0.0,0.0,0.0,0.0,0.0,0.0,0.0,0.0,0.0,0.0,0.0,0.0,0.0,0.0,0.0,0.0,0.0,0.0,0.0,0.0,0.0,0.0,0.0,0.0,0.0,0.0,0.0,0.0,0.0,0.0,0.0,0.0,0.0,0.0,0.0,0.0,0.0,0.0,0.0,0.0,0.0,0.0,0.0,0.0,0.0,0.0,0.0,0.0,0.0,0.0,0.0,0.0,0.0,0.0,0.0,0.0,0.0,0.0,0.0,0.0,0.0,0.0,0.0,0.0,0.0,0.0,0.0,0.0,0.0,0.0,0.0,0.0,0.0,0.0,0.0,0.0,0.0,0.0,0.0,0.0,0.0,0.0,0.0,0.0,0.0,0.0,0.0,0.0,0.0,0.0,0.0,0.0,0.0,0.0,0.0,0.0,0.0,0.0,0.0,0.0,0.0,0.0,0.0,0.0,0.0,0.0,0.0,0.0,0.0,0.0,0.0,0.0,0.0,0.0,0.0,0.0,0.0,0.0,0.0,0.0,0.0,0.0,0.0,0.0,0.0,0.0,0.0,0.0,0.0,0.0,0.0,0.0,0.0,0.0,0.0,0.0,0.0,0.0,0.0,0.0,0.0,0.0,0.0,0.0,0.0,0.0,0.0,0.0,0.0,0.0,0.0,0.0,0.0,0.0,0.0,0.0,0.0,0.0,0.0,0.0,0.0,0.0,0.0,0.0,0.0,0.0,0.0,0.0,0.0,0.0,0.0,0.0,0.0,0.0,0.0,0.0,0.0,0.0,0.0,0.0,0.0,0.0,0.0,0.0,0.0,0.0,0.0,0.0,0.0,0.0,0.0,0.0,0.0,0.0,0.0,0.0,0.0,0.0,0.0,0.0,0.0,0.0,0.0,0.0,0.0,0.0,0.0,0.0,0.0,0.0,0.0,0.0,0.0,0.0,0.0,0.0,0.0,0.0,0.0,0.0,0.0,0.0,0.0,0.0,0.0,0.0,0.0,0.0,0.0,0.0,0.0,0.0,0.0,0.0,0.0,0.0,0.0,0.0,0.0,0.0,0.0,0.0,0.0,0.0,0.0,0.0,0.0,0.0,0.0,0.0,0.0,0.0,0.0,0.0,0.0,0.0,0.0,0.0,0.0,0.0,0.0,0.0,0.0,0.0,0.0,0.0,0.0,0.0,0.0,0.0,0.0,0.0,0.0,0.0,0.0,0.0,0.0,0.0,0.0,0.0,0.0,0.0,0.0,0.0,0.0,0.0,0.0,0.0,0.0,0.0,0.0,0.0,0.0,0.0,0.0,0.0,0.0,0.0,0.0,0.0,0.0,0.0,0.0,0.0,0.0,0.0,0.0,0.0,0.0,0.0,0.0,0.0,0.0,0.0,0.0,0.0,0.0,0.0,0.0,0.0,0.0,0.0,0.0,0.0,0.0,0.0,0.0,0.0,0.0,0.0,0.0,0.0,0.0,0.0,0.0,0.0,0.0,0.0,0.0,0.0,0.0,0.0,0.0,0.0,0.0,0.0,0.0,0.0,0.0,0.0,0.0,0.0,0.0,0.0,0.0,0.0,0.0,0.0,0.0,0.0,0.0,0.0,0.0,0.0,0.0,0.0,0.0,0.0,0.0,0.0,0.0,0.0,0.0,0.0,0.0,0.0,0.0,0.0,0.0,0.0,0.0,0.0,0.0,0.0,0.0,0.0,0.0,0.0,0.0,0.0,0.0,0.0,0.0,0.0,0.0,0.0,0.0,0.0,0.0,0.0,0.0,0.0,0.0,0.0,0.0,0.0,0.0,0.0,0.0,0.0,0.0,0.0,0.0,0.0,0.0,0.0,0.0,0.0,0.0,0.0,0.0,0.0,0.0,0.0,0.0,0.0,0.0,0.0,4.0782,0.0,0.0,0.0,3.9588,0.0,0.0,0.0,0.0,0.0,0.0,0.0,0.0,0.0,0.0,0.0,0.0,0.0,0.0,0.0,0.0,0.0,0.0,0.0,0.0,0.0,0.0,0.0,0.0,0.0,0.0,0.0,0.0,0.0,0.0,0.0,0.0,0.0,0.0,0.0,0.0,0.0,0.0,0.0,0.0,0.0,0.0,0.0,0.0,0.0,0.0,0.0,0.0,0.0,0.0,0.0,0.0,0.0,0.0,0.0,0.0,0.0,0.0,0.0,0.0,0.0,0.0,0.0,0.0,0.0,0.0,0.0,0.0,0.0,0.0,0.0,0.0,0.0,0.0,0.0,0.0,0.0,0.0,0.0,0.0,0.0,0.0,0.0,0.0,0.0,0.0,0.0,0.0,0.0,0.0,0.0,0.0,0.0,0.0,0.0,0.0,0.0,0.0,0.0,0.0,0.0,0.0,0.0,0.0,0.0,0.0,0.0,0.0,0.0,0.0,4.0999,3.9478,4.1759,4.1868,3.9514,0.0,0.0,0.0,0.0,0.0,0.0,0.0,0.0,0.0,0.0,0.0,0.0,0.0,0.0,0.0,0.0,0.0,0.0,0.0,0.0,0.0,0.0,0.0,0.0,0.0,0.0,0.0,0.0,0.0,0.0,0.0,0.0,0.0,0.0,0.0,0.0,0.0,0.0,0.0,0.0,0.0,0.0,0.0,0.0,0.0,0.0,0.0,0.0,0.0,0.0,0.0,0.0,0.0,0.0,0.0,0.0,0.0,0.0,0.0,0.0,0.0,0.0,0.0,0.0,0.0,0.0,0.0,0.0,0.0,0.0,0.0,0.0,0.0,0.0,0.0,0.0,0.0,0.0,0.0,0.0,0.0,0.0,0.0,0.0,0.0,0.0,0.0,0.0,0.0,0.0,0.0,0.0,0.0,0.0,0.0,0.0,0.0,0.0,0.0,0.0,0.0,0.0,0.0,0.0,0.0,0.0,0.0,0.0,0.0,0.0,0.0,0.0,4.281,4.2955,4.0637,0.0,0.0,0.0,0.0,0.0,0.0,0.0,0.0,0.0,0.0,0.0,0.0,0.0,0.0,0.0,0.0,0.0,0.0,0.0,0.0,0.0,0.0,0.0,0.0,0.0,0.0,0.0,0.0,0.0,0.0,0.0,0.0,0.0,0.0,0.0,0.0,0.0,0.0,0.0,0.0,0.0,0.0,0.0,0.0,0.0,0.0,0.0,0.0,0.0,0.0,0.0,0.0,0.0,0.0,0.0,0.0,0.0,0.0,0.0,0.0,0.0,0.0,0.0,0.0,0.0,0.0,0.0,0.0,0.0,0.0,0.0,0.0,0.0,0.0,0.0,0.0,0.0,0.0,0.0,0.0,0.0,0.0,0.0,0.0,0.0,0.0,0.0,0.0,0.0,0.0,0.0,0.0,0.0,0.0,0.0,0.0,0.0,0.0,0.0,0.0,0.0,0.0,0.0,0.0,0.0,0.0,0.0,0.0,0.0,0.0,4.1578,4.3607,4.3932,0.0,4.3643,0.0,0.0,0.0,0.0,0.0,0.0,0.0,0.0,0.0,0.0,0.0,0.0,0.0,0.0,0.0,0.0,0.0,0.0,0.0,0.0,0.0,0.0,0.0,0.0,0.0,0.0,0.0,0.0,0.0,0.0,0.0,0.0,0.0,0.0,0.0,0.0,0.0,0.0,0.0,0.0,0.0,0.0,0.0,0.0,0.0,0.0,0.0,0.0,0.0,0.0,0.0,0.0,0.0,0.0,0.0,0.0,0.0,0.0,0.0,0.0,0.0,0.0,0.0,0.0,0.0,0.0,0.0,0.0,0.0,0.0,0.0,0.0,0.0,0.0,0.0,0.0,0.0,0.0,0.0,0.0,0.0,0.0,0.0,0.0,0.0,0.0,0.0,0.0,0.0,0.0,0.0,0.0,0.0,0.0,0.0,0.0,0.0,0.0,0.0,0.0,0.0,0.0,0.0,0.0,0.0,0.0,0.0,0.0,0.0,0.0,4.1904,4.3353,4.3389,4.3172,0.0,0.0,0.0,0.0,0.0,0.0,0.0,0.0,0.0,0.0,0.0,0.0,0.0,0.0,0.0,0.0,0.0,0.0,0.0,0.0,0.0,0.0,0.0,0.0,0.0,0.0,0.0,0.0,0.0,0.0,0.0,0.0,0.0,0.0,0.0,0.0,0.0,0.0,0.0,0.0,0.0,0.0,0.0,0.0,0.0,0.0,0.0,0.0,0.0,0.0,0.0,0.0,0.0,0.0,0.0,0.0,0.0,0.0,0.0,0.0,0.0,0.0,0.0,0.0,0.0,0.0,0.0,0.0,0.0,0.0,0.0,0.0,0.0,0.0,0.0,0.0,0.0,0.0,0.0,0.0,0.0,0.0,0.0,0.0,0.0,0.0,0.0,0.0,0.0,0.0,0.0,0.0,0.0,0.0,0.0,0.0,0.0,0.0,0.0,0.0,0.0,0.0,0.0,0.0,0.0,0.0,0.0,0.0,0.0,0.0,4.1615,4.3063,4.444,4.3896,4.3172,4.2411,0.0,0.0,0.0,0.0,0.0,0.0,0.0,0.0,0.0,0.0,0.0,0.0,0.0,0.0,0.0,0.0,0.0,0.0,0.0,0.0,0.0,0.0,0.0,0.0,0.0,0.0,0.0,0.0,0.0,0.0,0.0,0.0,0.0,0.0,0.0,0.0,0.0,0.0,0.0,0.0,0.0,0.0,0.0,0.0,0.0,0.0,0.0,0.0,0.0,0.0,0.0,0.0,0.0,0.0,0.0,0.0,0.0,0.0,0.0,0.0,0.0,0.0,0.0,0.0,0.0,0.0,0.0,0.0,0.0,0.0,0.0,0.0,0.0,0.0,0.0,0.0,0.0,0.0,0.0,0.0,0.0,0.0,0.0,0.0,0.0,0.0,0.0,0.0,0.0,0.0,0.0,0.0,0.0,0.0,0.0,0.0,0.0,0.0,0.0,0.0,0.0,0.0,0.0,0.0,0.0,0.0,0.0,0.0,4.4621,4.4258,4.5454,4.8387,4.6395,4.4802,0.0,0.0,0.0,0.0,0.0,0.0,0.0,0.0,0.0,0.0,0.0,0.0,0.0,0.0,0.0,0.0,0.0,0.0,0.0,0.0,0.0,0.0,0.0,0.0,0.0,0.0,0.0,0.0,0.0,0.0,0.0,0.0,0.0,0.0,0.0,0.0,0.0,0.0,0.0,0.0,0.0,0.0,0.0,0.0,0.0,0.0,0.0,0.0,0.0,0.0,0.0,0.0,0.0,0.0,0.0,0.0,0.0,0.0,0.0,0.0,0.0,0.0,0.0,0.0,0.0,0.0,0.0,0.0,0.0,0.0,0.0,0.0,0.0,0.0,0.0,0.0,0.0,0.0,0.0,0.0,0.0,0.0,0.0,0.0,0.0,0.0,0.0,0.0,0.0,0.0,0.0,0.0,0.0,0.0,0.0,0.0,0.0,0.0,0.0,0.0,0.0,0.0,0.0,0.0,0.0,0.0,0.0,0.0,0.0,4.0745,4.2411,4.5091,4.8605,4.5562,4.4114,0.0,0.0,0.0,0.0,0.0,0.0,0.0,0.0,0.0,0.0,0.0,0.0,0.0,0.0,0.0,0.0,0.0,0.0,0.0,0.0,0.0,0.0,0.0,0.0,0.0,0.0,0.0,0.0,0.0,0.0,0.0,0.0,0.0,0.0,0.0,0.0,0.0,0.0,0.0,0.0,0.0,0.0,0.0,0.0,0.0,0.0,0.0,0.0,0.0,0.0,0.0,0.0,0.0,0.0,0.0,0.0,0.0,0.0,0.0,0.0,0.0,0.0,0.0,0.0,0.0,0.0,0.0,0.0,0.0,0.0,0.0,0.0,0.0,0.0,0.0,0.0,0.0,0.0,0.0,0.0,0.0,0.0,0.0,0.0,0.0,0.0,0.0,0.0,0.0,0.0,0.0,0.0,0.0,0.0,0.0,0.0,0.0,0.0,0.0,0.0,0.0,0.0,0.0,0.0,0.0,0.0,0.0,0.0,0.0,4.1651,4.4512,4.7083,4.9039,4.6142,4.4367,0.0,0.0,0.0,0.0,0.0,0.0,0.0,0.0,0.0,0.0,0.0,0.0,0.0,0.0,0.0,0.0,0.0,0.0,0.0,0.0,0.0,0.0,0.0,0.0,0.0,0.0,0.0,0.0,0.0,0.0,0.0,0.0,0.0,0.0,0.0,0.0,0.0,0.0,0.0,0.0,0.0,0.0,0.0,0.0,0.0,0.0,0.0,0.0,0.0,0.0,0.0,0.0,0.0,0.0,0.0,0.0,0.0,0.0,0.0,0.0,0.0,0.0,0.0,0.0,0.0,0.0,0.0,0.0,0.0,0.0,0.0,0.0,0.0,0.0,0.0,0.0,0.0,0.0,0.0,0.0,0.0,0.0,0.0,0.0,0.0,0.0,0.0,0.0,0.0,0.0,0.0,0.0,0.0,0.0,0.0,0.0,0.0,0.0,0.0,0.0,0.0,0.0,0.0,0.0,0.0,0.0,0.0,0.0,4.2556,4.846,5.0923,5.1321,5.0126,4.8387,4.578,0.0,0.0,0.0,0.0,0.0,0.0,0.0,0.0,0.0,0.0,0.0,0.0,0.0,0.0,0.0,0.0,0.0,0.0,0.0,0.0,0.0,0.0,0.0,0.0,0.0,0.0,0.0,0.0,0.0,0.0,0.0,0.0,0.0,0.0,0.0,0.0,0.0,0.0,0.0,0.0,0.0,0.0,0.0,0.0,0.0,0.0,0.0,0.0,0.0,0.0,0.0,0.0,0.0,0.0,0.0,0.0,0.0,0.0,0.0,0.0,0.0,0.0,0.0,0.0,0.0,0.0,0.0,0.0,0.0,0.0,0.0,0.0,0.0,0.0,0.0,0.0,0.0,0.0,0.0,0.0,0.0,0.0,0.0,0.0,0.0,0.0,0.0,0.0,0.0,0.0,0.0,0.0,0.0,0.0,0.0,0.0,0.0,0.0,0.0,0.0,0.0,0.0,0.0,0.0,0.0,0.0,0.0,0.0,0.0,4.5635,4.8496,5.0307,5.0778,4.7735,4.625,0.0,0.0,0.0,0.0,0.0,0.0,0.0,0.0,0.0,0.0,0.0,0.0,0.0,0.0,0.0,0.0,0.0,0.0,0.0,0.0,0.0,0.0,0.0,0.0,0.0,0.0,0.0,0.0,0.0,0.0,0.0,0.0,0.0,0.0,0.0,0.0,0.0,0.0,0.0,0.0,0.0,0.0,0.0,0.0,0.0,0.0,0.0,0.0,0.0,0.0,0.0,0.0,0.0,0.0,0.0,0.0,0.0,0.0,0.0,0.0,0.0,0.0,0.0,0.0,0.0,0.0,0.0,0.0,0.0,0.0,0.0,0.0,0.0,0.0,0.0,0.0,0.0,0.0,0.0,0.0,0.0,0.0,0.0,0.0,0.0,0.0,0.0,0.0,0.0,0.0,0.0,0.0,0.0,0.0,0.0,0.0,0.0,0.0,0.0,0.0,0.0,0.0,0.0,0.0,0.0,0.0,0.0,0.0,0.0,5.056,5.3168,5.487,5.5269,5.1683,4.9184,4.7989,0.0,0.0,0.0,0.0,0.0,0.0,0.0,0.0,0.0,0.0,0.0,0.0,0.0,0.0,0.0,0.0,0.0,0.0,0.0,0.0,0.0,0.0,0.0,0.0,0.0,0.0,0.0,0.0,0.0,0.0,0.0,0.0,0.0,0.0,0.0,0.0,0.0,0.0,0.0,0.0,0.0,0.0,0.0,0.0,0.0,0.0,0.0,0.0,0.0,0.0,0.0,0.0,0.0,0.0,0.0,0.0,0.0,0.0,0.0,0.0,0.0,0.0,0.0,0.0,0.0,0.0,0.0,0.0,0.0,0.0,0.0,0.0,0.0,0.0,0.0,0.0,0.0,0.0,0.0,0.0,0.0,0.0,0.0,0.0,0.0,0.0,0.0,0.0,0.0,0.0,0.0,0.0,0.0,0.0,0.0,0.0,0.0,0.0,0.0,0.0,0.0,0.0,0.0,0.0,0.0,0.0,0.0,0.0,6.1426,6.3852,6.4251,6.244,5.8999,5.4074,0.0,0.0,0.0,0.0,0.0,0.0,0.0,0.0,0.0,0.0,0.0,0.0,0.0,0.0,0.0,0.0,0.0,0.0,0.0,0.0,0.0,0.0,0.0,0.0,0.0,0.0,0.0,0.0,0.0,0.0,0.0,0.0,0.0,0.0,0.0,0.0,0.0,0.0,0.0,0.0,0.0,0.0,0.0,0.0,0.0,0.0,0.0,0.0,0.0,0.0,0.0,0.0,0.0,0.0,0.0,0.0,0.0,0.0,0.0,0.0,0.0,0.0,0.0,0.0,0.0,0.0,0.0,0.0,0.0,0.0,0.0,0.0,0.0,0.0,0.0,0.0,0.0,0.0,0.0,0.0,0.0,0.0,0.0,0.0,0.0,0.0,0.0,0.0,0.0,0.0,0.0,0.0,0.0,0.0,0.0,0.0,0.0,0.0,0.0,0.0,0.0,0.0,0.0,0.0,0.0,0.0,0.0,0.0,0.0,6.8525,7.2219,7.2183,6.8235,6.1643,5.6935,0.0,0.0,0.0,0.0,0.0,0.0,0.0,0.0,0.0,0.0,0.0,0.0,0.0,0.0,0.0,0.0,0.0,0.0,0.0,0.0,0.0,0.0,0.0,0.0,0.0,0.0,0.0,0.0,0.0,0.0,0.0,0.0,0.0,0.0,0.0,0.0,0.0,0.0,0.0,0.0,0.0,0.0,0.0,0.0,0.0,0.0,0.0,0.0,0.0,0.0,0.0,0.0,0.0,0.0,0.0,0.0,0.0,0.0,0.0,0.0,0.0,0.0,0.0,0.0,0.0,0.0,0.0,0.0,0.0,0.0,0.0,0.0,0.0,0.0,0.0,0.0,0.0,0.0,0.0,0.0,0.0,0.0,0.0,0.0,0.0,0.0,0.0,0.0,0.0,0.0,0.0,0.0,0.0,0.0,0.0,0.0,0.0,0.0,0.0,0.0,0.0,0.0,0.0,0.0,0.0,0.0,0.0,0.0,6.6569,7.2943,7.8557,8.0042,7.6963,6.751,6.0593,0.0,0.0,0.0,0.0,0.0,0.0,0.0,0.0,0.0,0.0,0.0,0.0,0.0,0.0,0.0,0.0,0.0,0.0,0.0,0.0,0.0,0.0,0.0,0.0,0.0,0.0,0.0,0.0,0.0,0.0,0.0,0.0,0.0,0.0,0.0,0.0,0.0,0.0,0.0,0.0,0.0,0.0,0.0,0.0,0.0,0.0,0.0,0.0,0.0,0.0,0.0,0.0,0.0,0.0,0.0,0.0,0.0,0.0,0.0,0.0,0.0,0.0,0.0,0.0,0.0,0.0,0.0,0.0,0.0,0.0,0.0,0.0,0.0,0.0,0.0,0.0,0.0,0.0,0.0,0.0,0.0,0.0,0.0,0.0,0.0,0.0,0.0,0.0,0.0,0.0,0.0,0.0,0.0,0.0,0.0,0.0,0.0,0.0,0.0,0.0,0.0,0.0,0.0,0.0,0.0,0.0,0.0,0.0,7.2327,7.6094,8.3157,8.6525,8.5475,7.4392,6.4722,0.0,0.0,0.0,0.0,0.0,0.0,0.0,0.0,0.0,0.0,0.0,0.0,0.0,0.0,0.0,0.0,0.0,0.0,0.0,0.0,0.0,0.0,0.0,0.0,0.0,0.0,0.0,0.0,0.0,0.0,0.0,0.0,0.0,0.0,0.0,0.0,0.0,0.0,0.0,0.0,0.0,0.0,0.0,0.0,0.0,0.0,0.0,0.0,0.0,0.0,0.0,0.0,0.0,0.0,0.0,0.0,0.0,0.0,0.0,0.0,0.0,0.0,0.0,0.0,0.0,0.0,0.0,0.0,0.0,0.0,0.0,0.0,0.0,0.0,0.0,0.0,0.0,0.0,0.0,0.0,0.0,0.0,0.0,0.0,0.0,0.0,0.0,0.0,0.0,0.0,0.0,0.0,0.0,0.0,0.0,0.0,0.0,0.0,0.0,0.0,0.0,0.0,0.0,0.0,0.0,0.0,0.0,0.0,7.4971,8.2468,8.4931,8.5764,8.4931,7.5152,6.7909,0.0,0.0,0.0,0.0,0.0,0.0,0.0,0.0,0.0,0.0,0.0,0.0,0.0,0.0,0.0,0.0,0.0,0.0,0.0,0.0,0.0,0.0,0.0,0.0,0.0,0.0,0.0,0.0,0.0,0.0,0.0,0.0,0.0,0.0,0.0,0.0,0.0,0.0,0.0,0.0,0.0,0.0,0.0,0.0,0.0,0.0,0.0,0.0,4.8221,0.0,0.0,0.0,0.0,0.0,0.0,0.0,0.0,0.0,0.0,0.0,0.0,0.0,0.0,0.0,0.0,0.0,0.0,0.0,0.0,0.0,0.0,0.0,0.0,0.0,0.0,0.0,0.0,0.0,0.0,0.0,0.0,0.0,0.0,0.0,0.0,0.0,0.0,0.0,0.0,0.0,0.0,0.0,0.0,0.0,0.0,0.0,0.0,0.0,0.0,0.0,0.0,0.0,0.0,0.0,0.0,0.0,0.0,0.0,7.6746,8.3917,8.6742,8.7213,8.5149,7.8847,7.2327,0.0,0.0,0.0,0.0,0.0,0.0,0.0,0.0,0.0,0.0,0.0,0.0,0.0,0.0,0.0,0.0,0.0,0.0,0.0,0.0,0.0,0.0,0.0,0.0,0.0,0.0,0.0,0.0,0.0,0.0,0.0,0.0,0.0,0.0,0.0,0.0,0.0,0.0,0.0,0.0,0.0,0.0,0.0,0.0,0.0,0.0,0.0,0.0,0.0,0.0,0.0,0.0,0.0,0.0,0.0,0.0,0.0,0.0,0.0,0.0,0.0,0.0,0.0,0.0,0.0,0.0,0.0,0.0,0.0,0.0,0.0,0.0,0.0,0.0,0.0,0.0,0.0,0.0,0.0,0.0,0.0,0.0,0.0,0.0,0.0,0.0,0.0,0.0,0.0,0.0,0.0,0.0,0.0,0.0,0.0,0.0,0.0,0.0,0.0,0.0,0.0,0.0,0.0,0.0,0.0,0.0,0.0,7.1386,7.8448,8.5438,8.8915,8.9386,8.6851,8.2976,7.6348,6.6714,0.0,0.0,0.0,0.0,0.0,0.0,0.0,0.0,0.0,0.0,0.0,0.0,0.0,0.0,0.0,0.0,0.0,0.0,0.0,0.0,0.0,0.0,0.0,0.0,0.0,0.0,0.0,0.0,0.0,0.0,0.0,0.0,0.0,0.0,0.0,0.0,0.0,0.0,4.2032,4.5045,0.0,0.0,0.0,0.0,0.0,0.0,0.0,0.0,5.0209,0.0,0.0,0.0,0.0,0.0,0.0,0.0,0.0,0.0,0.0,0.0,0.0,0.0,0.0,0.0,0.0,0.0,0.0,0.0,0.0,0.0,0.0,0.0,0.0,0.0,0.0,0.0,0.0,0.0,0.0,0.0,0.0,0.0,0.0,0.0,0.0,0.0,0.0,0.0,0.0,0.0,0.0,0.0,0.0,0.0,0.0,0.0,0.0,0.0,0.0,0.0,0.0,0.0,0.0,0.0,0.0,7.4682,7.4392,8.102,9.4964,9.2247,9.069,9.0618,8.3845,7.6782,6.9792,0.0,0.0,0.0,0.0,0.0,0.0,0.0,0.0,0.0,0.0,0.0,0.0,0.0,0.0,0.0,0.0,0.0,0.0,0.0,0.0,0.0,0.0,0.0,0.0,0.0,0.0,0.0,0.0,0.0,0.0,0.0,0.0,0.0,0.0,0.0,0.0,0.0,0.0,0.0,5.1622,5.2365,0.0,0.0,0.0,0.0,0.0,0.0,0.0,0.0,5.4628,0.0,0.0,0.0,0.0,0.0,0.0,0.0,0.0,0.0,0.0,0.0,0.0,0.0,0.0,0.0,0.0,0.0,0.0,0.0,0.0,0.0,0.0,0.0,0.0,0.0,0.0,0.0,0.0,0.0,0.0,0.0,0.0,0.0,0.0,0.0,0.0,0.0,0.0,0.0,0.0,0.0,0.0,0.0,0.0,0.0,0.0,0.0,0.0,0.0,0.0,0.0,0.0,0.0,0.0,0.0,7.4537,8.0368,8.7539,9.6159,9.5109,9.3334,9.1161,8.6271,7.9462,0.0,0.0,0.0,0.0,0.0,0.0,0.0,0.0,0.0,0.0,0.0,0.0,0.0,0.0,0.0,0.0,0.0,0.0,0.0,0.0,0.0,0.0,0.0,0.0,0.0,0.0,0.0,0.0,0.0,0.0,0.0,0.0,0.0,0.0,0.0,0.0,0.0,0.0,0.0,0.0,5.5414,5.6797,6.2284,0.0,0.0,0.0,0.0,0.0,0.0,5.7369,5.5631,0.0,0.0,0.0,0.0,0.0,0.0,0.0,0.0,0.0,0.0,0.0,0.0,0.0,0.0,0.0,0.0,0.0,0.0,0.0,0.0,0.0,0.0,0.0,0.0,0.0,0.0,0.0,0.0,0.0,0.0,0.0,0.0,0.0,0.0,0.0,0.0,0.0,0.0,0.0,0.0,0.0,0.0,0.0,0.0,0.0,0.0,0.0,0.0,0.0,0.0,0.0,0.0,0.0,0.0,0.0,7.3269,8.4678,9.2501,9.6159,9.6992,9.5616,9.2102,8.8082,8.1237,0.0,0.0,0.0,0.0,0.0,0.0,0.0,0.0,0.0,0.0,0.0,0.0,0.0,0.0,0.0,0.0,0.0,0.0,0.0,0.0,0.0,0.0,0.0,0.0,0.0,0.0,0.0,0.0,0.0,0.0,0.0,0.0,0.0,0.0,0.0,0.0,0.0,0.0,0.0,0.0,0.0,6.0788,6.6836,6.2802,0.0,0.0,0.0,0.0,6.1172,5.9941,0.0,0.0,0.0,0.0,0.0,0.0,0.0,0.0,0.0,0.0,0.0,0.0,0.0,0.0,0.0,0.0,0.0,0.0,0.0,0.0,0.0,0.0,0.0,0.0,0.0,0.0,0.0,0.0,0.0,0.0,0.0,0.0,0.0,0.0,0.0,0.0,0.0,0.0,0.0,0.0,0.0,0.0,0.0,0.0,0.0,0.0,0.0,0.0,0.0,0.0,0.0,0.0,0.0,0.0,0.0,0.0,7.4645,8.2577,9.0835,9.902,9.7028,9.6086,9.6775,8.7141,7.9209,0.0,0.0,0.0,0.0,0.0,0.0,0.0,0.0,0.0,0.0,0.0,0.0,0.0,0.0,0.0,0.0,0.0,0.0,0.0,0.0,0.0,0.0,0.0,0.0,0.0,0.0,0.0,0.0,0.0,0.0,0.0,0.0,0.0,0.0,0.0,0.0,0.0,0.0,0.0,0.0,0.0,6.2819,6.646,6.3889,6.1571,0.0,0.0,6.6134,6.78,7.0118,0.0,0.0,0.0,0.0,0.0,0.0,0.0,0.0,0.0,0.0,0.0,0.0,0.0,0.0,0.0,0.0,0.0,0.0,0.0,0.0,0.0,0.0,0.0,0.0,0.0,0.0,0.0,0.0,0.0,0.0,0.0,0.0,0.0,0.0,0.0,0.0,0.0,0.0,0.0,0.0,0.0,0.0,0.0,0.0,0.0,0.0,0.0,0.0,0.0,0.0,0.0,0.0,0.0,0.0,0.0,6.8887,7.5261,8.7575,9.5797,9.931,9.8151,9.7101,9.6412,8.8227,8.0513,0.0,0.0,0.0,0.0,0.0,0.0,0.0,0.0,0.0,0.0,0.0,0.0,0.0,0.0,0.0,0.0,0.0,0.0,0.0,0.0,0.0,0.0,0.0,0.0,0.0,0.0,0.0,0.0,0.0,0.0,0.0,0.0,0.0,0.0,0.0,0.0,0.0,0.0,0.0,0.0,0.0,0.0,6.838,6.6496,0.0,0.0,0.0,6.7909,6.7257,0.0,0.0,0.0,0.0,0.0,0.0,0.0,0.0,0.0,0.0,0.0,0.0,0.0,0.0,0.0,0.0,0.0,0.0,0.0,0.0,0.0,0.0,0.0,0.0,0.0,0.0,0.0,0.0,0.0,0.0,0.0,0.0,0.0,0.0,0.0,0.0,0.0,0.0,0.0,0.0,0.0,0.0,0.0,0.0,0.0,0.0,0.0,0.0,0.0,0.0,0.0,0.0,0.0,0.0,0.0,0.0,0.0,7.5913,9.1849,9.9889,9.931,9.9093,9.8223,9.6557,9.0436,0.0,0.0,0.0,0.0,0.0,0.0,0.0,0.0,0.0,0.0,0.0,0.0,0.0,0.0,0.0,0.0,0.0,0.0,0.0,0.0,0.0,0.0,0.0,0.0,0.0,0.0,0.0,4.1578,0.0,0.0,0.0,0.0,0.0,0.0,0.0,0.0,0.0,0.0,0.0,0.0,0.0,0.0,6.6605,7.0191,6.914,6.9321,0.0,0.0,7.0082,6.9321,7.3342,7.3993,0.0,0.0,0.0,0.0,0.0,0.0,0.0,0.0,0.0,0.0,0.0,0.0,0.0,0.0,0.0,0.0,0.0,0.0,0.0,0.0,0.0,0.0,0.0,0.0,0.0,0.0,0.0,0.0,0.0,0.0,0.0,0.0,0.0,0.0,0.0,0.0,0.0,0.0,0.0,0.0,0.0,0.0,0.0,0.0,0.0,0.0,0.0,0.0,0.0,0.0,0.0,0.0,0.0,0.0,0.0,7.7724,9.2428,10.0179,10.0107,9.9382,9.9274,9.9744,9.366,8.6163,0.0,0.0,0.0,0.0,0.0,0.0,0.0,0.0,0.0,0.0,0.0,0.0,0.0,0.0,0.0,0.0,0.0,0.0,0.0,0.0,0.0,0.0,0.0,0.0,0.0,0.0,0.0,0.0,0.0,0.0,0.0,0.0,0.0,0.0,0.0,0.0,0.0,0.0,0.0,0.0,0.0,6.617,7.077,7.135,7.3197,0.0,0.0,7.4826,7.834,8.1672,8.0042,6.8525,0.0,0.0,0.0,0.0,0.0,0.0,0.0,0.0,0.0,0.0,0.0,0.0,0.0,0.0,0.0,0.0,0.0,0.0,0.0,0.0,0.0,0.0,0.0,0.0,0.0,0.0,0.0,0.0,0.0,0.0,0.0,0.0,0.0,0.0,0.0,0.0,0.0,0.0,0.0,0.0,0.0,0.0,0.0,0.0,0.0,0.0,0.0,0.0,0.0,0.0,0.0,0.0,0.0,7.4283,7.7615,9.2465,10.0179,10.0179,9.9419,9.9165,9.9455,9.4674,8.8191,0.0,0.0,0.0,0.0,0.0,0.0,0.0,0.0,0.0,0.0,0.0,0.0,0.0,0.0,0.0,0.0,0.0,0.0,0.0,0.0,0.0,0.0,0.0,0.0,0.0,0.0,0.0,0.0,5.5667,5.5884,5.2009,0.0,0.0,0.0,0.0,0.0,0.0,0.0,0.0,0.0,0.0,6.9647,7.3849,7.4066,0.0,0.0,7.8195,7.7217,7.8267,7.9426,7.7869,7.0806,6.809,0.0,0.0,0.0,0.0,0.0,0.0,0.0,0.0,0.0,0.0,0.0,0.0,0.0,0.0,0.0,0.0,0.0,0.0,0.0,0.0,0.0,0.0,0.0,0.0,0.0,0.0,0.0,0.0,0.0,0.0,0.0,0.0,0.0,0.0,0.0,0.0,0.0,0.0,0.0,0.0,0.0,0.0,0.0,0.0,0.0,0.0,0.0,0.0,0.0,0.0,0.0,0.0,7.4899,7.7869,9.261,10.0179,10.0179,9.9672,9.9346,9.9274,9.6159,9.0907,0.0,0.0,0.0,0.0,0.0,0.0,0.0,0.0,0.0,0.0,0.0,0.0,0.0,0.0,0.0,0.0,0.0,0.0,0.0,0.0,0.0,0.0,0.0,0.0,0.0,0.0,0.0,0.0,5.8094,5.7333,5.2625,0.0,0.0,0.0,0.0,0.0,0.0,0.0,0.0,0.0,0.0,7.3849,7.6601,7.613,7.6529,7.9462,7.8412,7.7326,7.747,7.7688,7.6492,7.2509,0.0,0.0,0.0,0.0,0.0,0.0,0.0,0.0,0.0,0.0,0.0,0.0,0.0,0.0,0.0,0.0,0.0,0.0,0.0,0.0,0.0,0.0,0.0,0.0,0.0,0.0,0.0,0.0,0.0,0.0,4.2955,0.0,0.0,0.0,0.0,0.0,0.0,0.0,0.0,0.0,0.0,0.0,0.0,0.0,0.0,0.0,0.0,0.0,0.0,0.0,0.0,0.0,0.0,7.6239,7.8774,9.2827,10.0179,10.0143,10.0179,10.0107,10.007,9.8549,9.4638,8.8082,0.0,0.0,0.0,0.0,0.0,0.0,0.0,0.0,0.0,0.0,0.0,0.0,0.0,0.0,0.0,0.0,0.0,0.0,0.0,0.0,0.0,0.0,0.0,0.0,0.0,0.0,4.7808,5.0452,5.248,0.0,0.0,0.0,0.0,0.0,0.0,0.0,0.0,0.0,0.0,7.3486,7.8521,7.8593,7.7289,7.7217,7.9643,7.6674,7.4935,7.7253,7.8122,7.7289,0.0,0.0,0.0,0.0,0.0,0.0,0.0,0.0,0.0,0.0,0.0,0.0,0.0,0.0,0.0,0.0,0.0,0.0,0.0,0.0,0.0,0.0,0.0,0.0,0.0,0.0,0.0,4.9574,4.8016,0.0,0.0,0.0,0.0,0.0,0.0,0.0,0.0,0.0,0.0,0.0,7.1531,7.345,0.0,0.0,0.0,0.0,0.0,0.0,0.0,0.0,0.0,0.0,0.0,0.0,7.6311,7.9173,9.1849,9.8585,9.8622,9.8622,9.8622,9.8622,9.8078,9.4276,8.6887,0.0,0.0,0.0,0.0,0.0,0.0,0.0,0.0,0.0,0.0,0.0,0.0,0.0,0.0,0.0,0.0,0.0,0.0,0.0,0.0,0.0,0.0,0.0,0.0,0.0,5.4581,0.0,0.0,0.0,0.0,0.0,0.0,0.0,0.0,0.0,0.0,0.0,6.885,7.1205,7.4754,7.7688,7.9281,7.9064,7.9535,0.0,0.0,0.0,0.0,0.0,0.0,0.0,0.0,0.0,0.0,0.0,0.0,0.0,0.0,7.1386,6.3454,6.244,6.2802,6.2802,0.0,0.0,0.0,0.0,0.0,0.0,0.0,0.0,0.0,0.0,0.0,0.0,0.0,0.0,5.8823,0.0,5.6161,0.0,0.0,0.0,0.0,0.0,0.0,0.0,0.0,7.3486,7.7362,8.0078,8.1672,8.1201,0.0,7.7253,7.1857,0.0,0.0,0.0,0.0,0.0,0.0,0.0,0.0,7.7108,8.0694,9.1849,9.7789,9.7789,9.7789,9.7789,9.7789,9.7535,9.4783,8.935,8.4026,7.9028,0.0,0.0,0.0,0.0,0.0,0.0,0.0,0.0,0.0,0.0,0.0,0.0,0.0,0.0,0.0,0.0,0.0,0.0,0.0,0.0,0.0,0.0,0.0,5.7695,0.0,0.0,0.0,0.0,0.0,0.0,0.0,0.0,0.0,6.3056,6.9466,7.479,7.6601,7.8666,8.0042,7.9897,0.0,0.0,0.0,0.0,0.0,0.0,0.0,7.4392,7.5442,7.3559,7.2364,7.3849,7.6275,7.7833,7.7253,0.0,0.0,7.1386,7.0408,7.0951,7.0951,7.2617,7.3885,7.3378,7.4573,7.5659,0.0,0.0,0.0,0.0,0.0,0.0,0.0,0.0,7.1238,7.0653,0.0,6.5879,0.0,0.0,0.0,0.0,0.0,6.8271,0.0,0.0,8.6163,8.935,8.7503,8.7503,8.7829,8.8263,8.533,8.2215,7.8774,7.211,0.0,0.0,0.0,0.0,0.0,0.0,7.881,8.3627,9.2863,9.7716,9.768,9.768,9.7716,9.768,9.6956,9.6123,9.5181,8.9422,8.533,8.3374,7.1748,0.0,0.0,0.0,0.0,0.0,0.0,0.0,0.0,0.0,0.0,0.0,0.0,0.0,0.0,0.0,0.0,0.0,0.0,0.0,0.0,5.8854,0.0,0.0,0.0,0.0,0.0,0.0,0.0,0.0,0.0,0.0,7.0046,7.6203,8.1346,8.1961,0.0,0.0,0.0,0.0,8.0295,7.8159,7.642,7.5551,7.5659,7.7362,7.9245,8.0911,0.0,0.0,8.1744,8.2541,8.2613,7.9643,8.2903,8.5257,8.2758,8.0332,7.9028,7.8992,7.9136,7.91,7.9281,8.1491,8.3446,8.1966,0.0,0.0,0.0,0.0,7.1772,7.3882,7.7316,7.7778,7.6899,7.5031,7.4482,0.0,0.0,0.0,0.0,0.0,0.0,7.776,8.4279,8.6923,9.04,9.471,9.5326,9.5109,9.4167,9.3261,9.1487,8.8843,8.5692,7.6674,6.2476,0.0,0.0,0.0,0.0,8.2106,8.5438,9.2392,9.6086,9.6086,9.6086,9.6086,9.6086,9.5833,9.5616,9.5362,9.3624,9.0074,8.4569,8.0332,0.0,0.0,0.0,0.0,0.0,0.0,0.0,0.0,0.0,0.0,0.0,0.0,0.0,0.0,0.0,0.0,0.0,0.0,0.0,5.8746,6.3454,6.4251,0.0,0.0,0.0,0.0,0.0,0.0,0.0,0.0,0.0,8.0694,8.0549,8.0114,0.0,0.0,8.0404,7.8448,7.9861,8.1273,8.1708,8.1382,0.0,8.265,8.1454,8.1165,8.3301,8.5366,8.6199,8.4786,8.5837,8.6561,8.5583,8.7068,8.8155,8.7539,8.6851,8.6308,8.6344,8.6778,8.7177,8.7285,8.801,8.8517,9.1069,8.3287,8.0424,7.969,8.0388,8.036,8.2671,8.6518,8.6962,8.6233,8.4872,8.3735,8.1322,7.7861,7.5024,0.0,0.0,0.0,8.3338,9.0328,9.0328,9.2827,9.7173,9.7825,9.7897,9.7535,9.6883,9.5833,9.4384,9.2175,8.4388,7.1675,0.0,0.0,7.1531,7.9245,8.475,8.7829,9.2791,9.5398,9.5398,9.5398,9.5398,9.5398,9.5398,9.5398,9.5398,9.5398,9.3261,8.8662,8.5583,8.0911,0.0,0.0,0.0,0.0,0.0,0.0,0.0,0.0,0.0,0.0,0.0,5.353,4.8822,0.0,0.0,0.0,6.1534,6.407,6.6496,6.9032,0.0,0.0,0.0,0.0,0.0,0.0,0.0,7.2943,7.8666,8.341,8.5945,8.5076,8.4171,8.4352,8.3265,8.2179,8.1382,0.0,8.4642,8.5293,8.5366,8.5728,8.6634,8.5728,8.5583,8.7648,8.8734,8.9241,8.8843,8.9531,9.0074,9.0183,9.0509,9.0835,9.0835,9.0835,9.0581,9.0002,9.0255,9.0581,9.0618,9.0618,9.0618,9.6722,9.6098,8.9454,8.7068,8.7766,8.7766,9.1179,9.6612,9.6649,9.6722,9.6392,9.2758,8.9714,8.7118,8.0927,0.0,8.667,8.6634,8.9748,9.5362,9.5435,9.5869,9.6593,9.6738,9.7571,9.8948,9.7499,9.6775,9.663,9.3624,8.9422,8.4316,8.265,8.1237,8.0259,8.3265,8.6851,9.0654,9.3624,9.5253,9.5398,9.5398,9.5398,9.5398,9.5398,9.5398,9.5398,9.5398,9.4964,9.3986,8.8481,8.4207,8.1563,0.0,0.0,0.0,0.0,0.0,0.0,0.0,0.0,0.0,0.0,0.0,0.0,0.0,0.0,0.0,7.1494,0.0,7.7688,7.5189,0.0,0.0,0.0,7.1168,7.45,7.8195,8.0766,8.1599,0.0,0.0,8.7865,8.964,9.1632,9.337,9.0545,8.801,8.7141,8.8227,8.9205,8.8408,8.8517,8.8626,8.8807,8.964,9.0799,9.2211,9.3008,9.2754,9.2718,9.2791,9.2935,9.2791,9.2972,9.2935,9.2972,9.2827,9.2573,9.1088,9.0835,9.0835,9.0907,9.0943,9.0943,9.6722,9.6539,9.4813,9.4226,9.4373,9.441,9.529,9.6685,9.6722,9.6722,9.6612,9.5541,9.4463,9.3492,9.1921,9.1908,9.3117,9.3117,9.3913,9.5398,9.6014,9.6412,9.663,9.7825,9.8622,9.8948,9.8622,9.8441,9.8296,9.5797,9.3261,9.0762,8.9133,8.5837,8.1201,8.5185,8.8734,9.1487,9.2863,9.4167,9.5326,9.5398,9.5398,9.5398,9.5398,9.5398,9.5398,9.5398,9.4746,9.337,9.1849,8.9386,8.5764,7.6927,0.0,0.0,0.0,0.0,0.0,0.0,0.0,0.0,0.0,6.2875,5.6247,0.0,6.4359,0.0,7.8702,8.2541,8.1273,8.044,0.0,0.0,7.7289,7.7507,8.2468,8.4388,8.5656,8.6416,9.0219,9.3189,9.4203,9.4276,9.5326,9.7934,9.3044,8.8589,8.7322,8.8915,9.0255,9.0219,9.1088,9.1849,9.1813,9.2175,9.2573,9.2935,9.3008,9.3008,9.3008,9.3008,9.3008,9.3008,9.3008,9.3008,9.3044,9.3008,9.2899,9.2501,9.2428,9.2428,9.2428,9.2392,9.2428,9.7016,9.6722,9.6722,9.6098,9.518,9.6245,9.6722,9.6722,9.6722,9.6722,9.6685,9.649,9.6137,9.5695,9.5695,9.5612,9.5398,9.5398,9.5579,9.5942,9.6376,9.6956,9.768,9.8585,9.9201,9.9527,9.9527,9.9346,9.8948,9.7644,9.6014,9.4058,9.3153,9.0436,8.6126,8.7793,8.9241,9.0219,9.2392,9.4493,9.6376,9.6449,9.5616,9.3877,9.4855,9.4529,9.2791,9.3406,9.2718,9.0509,9.0038,8.8553,8.5583,8.0078,7.671,0.0,0.0,0.0,0.0,0.0,0.0,0.0,0.0,0.0,0.0,0.0,7.0589,7.4645,8.2251,8.5656,8.2577,8.3265,8.4388,8.5728,8.4678,8.5801,9.0654,9.1559,9.2139,9.2935,9.5616,9.7752,9.8622,9.8948,9.9274,10.0143,9.6738,9.3479,9.1776,9.2465,9.3153,9.2827,9.3479,9.4058,9.4058,9.4058,9.4058,9.4058,9.4058,9.4058,9.4058,9.4058,9.4058,9.4058,9.4058,9.4058,9.4094,9.4094,9.4058,9.4058,9.4058,9.3805,9.3153,9.3008,9.3008,9.7309,9.6722,9.6722,9.5474,9.3712,9.5804,9.6355,9.5768,9.5878,9.6098,9.6315,9.638,9.6137,9.5695,9.5804,9.5674,9.5543,9.5652,9.6086,9.6738,9.6847,9.7644,9.8984,9.9093,9.9527,10.0179,10.0179,9.9853,9.9165,9.9056,9.7825,9.5616,9.5326,9.4022,9.1704,9.0364,8.9422,8.8879,9.2284,9.5072,9.7101,9.6992,9.5217,9.1958,9.3877,9.3443,9.0074,9.1197,9.0654,8.7901,8.6923,8.5873,8.446,8.3048,8.1092,0.0,7.7036,0.0,0.0,0.0,0.0,0.0,0.0,0.0,0.0,7.7688,7.8448,7.7434,8.4171,8.7249,8.4098,8.5801,8.8517,9.1958,9.2501,9.3986,9.7427,9.8042,9.8404,9.9201,10.0722,10.17,10.1519,10.2823,10.2823,10.0831,10.0143,9.8839,9.7101,9.6376,9.6014,9.5507,9.5398,9.5181,9.5253,9.529,9.529,9.5326,9.529,9.5398,9.529,9.5326,9.5362,9.5326,9.529,9.5326,9.5398,9.5326,9.5362,9.529,9.5253,9.4855,9.3768,9.3443,9.3251,9.6832,9.6722,9.6722,9.6428,9.6061,9.6502,9.4446,9.0849,9.1473,9.2757,9.4512,9.5595,9.5939,9.5767,9.6219,9.6461,9.6412,9.7028,9.7427,9.7608,9.8223,9.8694,9.902,9.9672,10.007,10.0179,10.0179,10.0107,9.9962,9.931,9.8115,9.6376,9.5072,9.3225,9.098,0.0,0.0,0.0,9.2863,9.3443,9.3841,9.2646,9.1595,9.0907,9.2537,0.0,9.2392,9.261,9.2211,9.098,9.0147,0.0,0.0,0.0,0.0,0.0,0.0,0.0,0.0,0.0,0.0,0.0,8.0332,7.9535,8.0042,8.3772,8.533,8.3446,8.743,9.0654,9.1849,9.2935,9.4131,9.5507,9.6268,9.7245,9.8658,9.9346,10.007,10.0867,10.2316,10.3004,10.2533,10.3149,10.304,10.1447,10.1193,10.0179,9.7861,9.6992,9.6304,9.5579,9.5398,9.5398,9.5398,9.5398,9.5398,9.5398,9.5398,9.5398,9.5398,9.5398,9.5398,9.5398,9.5398,9.5398,9.5398,9.5398,9.5398,9.5398,9.5398,9.529,9.5,9.4927,9.4927,9.8264,0.0,9.7897,9.7236,0.0,9.6135,9.4042,9.0776,9.2758,9.4444,9.5789,9.6319,9.6741,9.6821,9.5845,9.5435,9.5362,9.4602,9.5109,9.6593,9.7028,9.8078,9.96,9.9998,10.0179,10.0179,10.0179,10.0179,10.0179,9.9781,9.8984,9.7752,9.6956,9.576,9.4239,9.4964,9.5145,9.4783,9.4783,9.5362,9.6485,9.576,9.4384,9.2537,9.4312,0.0,0.0,0.0,0.0,0.0,0.0,0.0,0.0,0.0,0.0,8.6815,8.4714,8.4243,8.609,8.5221,8.6452,9.0762,9.04,8.9096,8.7141,8.9567,9.1016,9.0654,9.2066,9.3624,9.5181,9.576,9.6485,9.7644,9.8477,9.931,10.0107,10.0903,10.1664,10.2425,10.3221,10.3547,10.3221,10.3439,10.3077,10.17,10.141,10.0541,9.8332,9.7463,9.6775,9.5616,9.5398,9.5398,9.5398,9.5398,9.5398,9.5398,9.5398,9.5398,9.5398,9.5398,9.5398,9.5398,9.5398,9.5398,9.5398,9.5398,9.5398,9.5398,9.5398,9.5398,9.5398,9.5398,9.5362,9.9695,9.9108,9.9108,9.797,9.6135,9.6135,9.4997,9.3308,0.0,0.0,0.0,9.7458,9.7688,9.8032,9.6001,9.5072,9.4927,9.3153,9.3732,9.6195,9.6231,9.7644,10.0143,10.0179,10.0179,10.0179,10.0179,10.0179,10.0179,10.0179,9.9853,9.9274,9.9056,9.8658,9.8078,9.8658,9.8404,9.7282,9.6666,9.7318,9.9274,9.9056,9.7354,9.4058,9.6195,9.5797,9.261,9.308,9.2465,9.0328,8.8915,8.8191,8.8263,8.83,8.9277,9.1451,9.1776,9.3117,9.576,9.4674,9.5253,9.8585,9.8296,9.6811,9.4058,9.4348,9.5181,9.6485,9.5869,9.5724,9.6521,9.6738,9.739,9.8875,9.9853,10.0722,10.1555,10.2461,10.3294,10.3982,10.4308,10.4308,10.4199,10.4163,10.3475,10.2062,10.17,10.065,9.8404,9.7427,9.6738,9.5652,9.5398,9.5398,9.5398,9.5398,9.5398,9.5398,9.5398,9.5398,9.5398,9.5398,9.5398,9.5398,9.5398,9.5398,9.5398,9.5398,9.5398,9.5398,9.5398,9.5398,9.5398,9.5398,9.5314,9.9218,9.9108,9.9108,9.8924,9.8594,9.8594,9.8411,9.797,9.6428,9.6135,9.6865,9.8101,9.8481,9.8344,9.8541,9.8468,9.8368,9.8694,9.9093,9.9527,9.9527,9.9781,10.0179,10.0179,10.0179,10.0179,10.0215,10.0179,10.0179,10.0179,10.0143,9.9962,9.9346,9.8948,9.8839,9.8948,9.9237,9.9636,9.6956,9.5724,9.6014,9.471,9.3768,9.3298,9.4891,9.5507,9.4927,9.5,9.4602,9.3587,9.2682,9.2501,9.3153,9.3153,9.3986,9.5616,9.6376,9.7282,9.8368,9.7644,9.7354,9.7934,9.8477,9.8332,9.7245,9.6593,9.634,9.6557,9.5905,9.5724,9.6521,9.7209,9.8006,9.8984,10.036,10.1555,10.2388,10.3692,10.4815,10.5612,10.6409,10.6409,10.5684,10.5612,10.4743,10.2968,10.2135,10.1229,9.8477,9.6593,9.576,9.5435,9.5398,9.5398,9.5579,9.5398,9.5543,9.5398,9.5471,9.5579,9.5579,9.5579,9.5579,9.5435,9.5579,9.5543,9.5507,9.5398,9.5507,9.5507,9.5507,9.5471,9.5471,9.5507,9.5386,10.0393,10.0393,10.0393,10.0393,10.0393,10.0393,10.0393,10.0319,9.9255,9.8704,9.8704,9.9119,9.9504,9.9796,9.8421,9.7851,9.7815,9.6823,9.6992,9.8187,9.826,9.9165,10.0759,10.0867,10.1085,10.1447,10.1048,10.0867,10.0831,10.0433,10.0179,10.0179,9.9817,9.9672,9.9636,9.9672,9.9853,10.0179,9.8767,9.8006,9.8006,9.7282,9.6919,9.6919,9.7644,9.8006,9.8006,9.7571,9.7173,9.6847,9.6014,9.576,9.6123,9.6159,9.6485,9.7173,9.7571,9.8151,9.8948,9.9056,9.8911,9.8513,9.9201,9.9491,9.9129,9.8368,9.7716,9.7282,9.6883,9.6847,9.7209,9.797,9.8948,10.0215,10.1374,10.2497,10.3728,10.4815,10.5865,10.6626,10.7061,10.6843,10.5612,10.5431,10.4779,10.2895,10.1954,10.0505,9.8694,9.7463,9.6521,9.6123,9.605,9.6268,9.6593,9.6702,9.6702,9.6702,9.6702,9.6666,9.6702,9.6666,9.6666,9.6702,9.6702,9.6702,9.6666,9.6702,9.6521,9.6086,9.605,9.605,9.588,9.5997,9.5822,10.0943,10.0943,10.0943,10.1053,10.12,10.1237,10.131,10.1494,10.1457,10.1127,10.0533,10.0134,10.05,10.0866,9.8614,9.7646,9.7439,9.5555,9.5652,9.7282,9.7571,9.902,10.1266,10.1592,10.199,10.2461,10.1954,10.1664,10.1592,10.0867,10.036,10.0215,10.0179,10.0179,10.0179,10.0179,10.0179,10.0179,10.0179,10.0179,10.0179,10.0179,10.0179,10.0179,10.0179,10.0179,10.0179,9.96,9.9201,9.8984,9.8404,9.8006,9.7825,9.797,9.8078,9.8078,9.8223,9.8622,9.9237,9.9853,9.9926,9.9346,9.9853,10.0179,10.0143,9.9636,9.8948,9.8223,9.7861,9.7825,9.8078,9.8585,9.9636,10.1229,10.2099,10.304,10.4417,10.5503,10.6336,10.6952,10.7205,10.6771,10.5576,10.5177,10.4598,10.3113,10.1338,9.9998,9.931,9.8477,9.7571,9.7282,9.6992,9.7064,9.7716,9.7752,9.7716,9.7789,9.7752,9.7644,9.768,9.7752,9.7789,9.768,9.7897,9.797,9.8042,9.826,9.8078,9.768,9.7521,9.7326,9.71,9.7102,9.6669,9.9365,9.9328,9.9402,9.9769,10.0393,10.0429,10.0796,10.142,10.1494,10.1457,10.1347,10.1347,10.1222,10.1168,10.0589,10.0191,10.0056,9.9687,9.9563,9.9853,10.065,10.1121,10.1519,10.2135,10.2497,10.2606,10.2533,10.2461,10.2425,10.1664,10.094,10.0288,10.0179,10.0252,10.0252,10.0252,10.0215,10.0215,10.0179,10.0179,10.0179,10.0179,10.0179,10.0179,10.0179,10.0179,10.0179,10.0143,9.9744,9.9093,9.8948,9.8549,9.8006,9.8513,9.8875,9.8911,9.9563,10.0034,10.007,10.0179,10.0143,10.0107,10.0143,10.0179,10.0179,10.0143,9.9744,9.902,9.826,9.8223,9.8767,9.902,9.9817,10.1302,10.2171,10.2932,10.3946,10.5177,10.6155,10.6191,10.6952,10.6988,10.6119,10.5829,10.525,10.3692,10.1881,10.0541,10.0179,9.9274,9.8622,9.8658,9.8296,9.7934,9.8078,9.7861,9.8223,9.8115,9.7934,9.8187,9.8332,9.8223,9.7897,9.8803,9.8694,9.9129,9.9237,9.9419,9.9926,9.9512,9.9387,9.9299,9.9062,9.8913,9.7975,9.9108,9.9108,9.9108,9.9292,9.9622,10.0099,10.0503,10.0796,10.1274,10.1494,10.1494,10.1494,10.1494,10.1332,10.0834,10.0664,10.0627,10.0355,10.0469,10.0903,10.1266,10.1881,10.2751,10.3077,10.3475,10.3873,10.3475,10.3258,10.304,10.2026,10.1447,10.1555,10.1157,10.1157,10.1555,10.1592,10.1628,10.1628,10.1592,10.1628,10.1483,10.0686,10.0179,10.0179,10.0179,10.0179,10.0179,10.0179,10.007,9.9744,9.9708,9.9563,9.9237,9.9527,9.9708,9.9744,10.0034,10.0179,10.0179,10.0179,10.0179,10.0179,10.0179,10.0179,10.0179,10.0179,10.0252,10.0324,9.9708,9.9201,9.9129,9.9853,10.0903,10.1954,10.2787,10.3692,10.4996,10.5684,10.6264,10.6771,10.7097,10.6988,10.6227,10.5684,10.496,10.391,10.2714,10.2062,10.1664,10.1374,10.1483,10.17,10.1845,10.1338,10.036,10.036,10.0541,10.0614,10.0614,10.0614,10.0541,10.0614,10.065,10.0577,10.0867,10.1085,10.1193,10.1266,10.1519,10.1158,10.0325,9.9904,9.9344,9.9707,9.9301,9.8778,9.8741,9.8521,9.8557,9.8851,9.9622,10.0099,10.0393,10.1164,10.1494,10.1494,10.1494,10.1494,10.1413,10.0834,10.0664,10.0664,10.0355,10.065,10.1374,10.1628,10.2425,10.362,10.3946,10.4308,10.4743,10.4308,10.391,10.362,10.2642,10.2244,10.2461,10.2026,10.2026,10.2533,10.2569,10.2569,10.2569,10.2569,10.2569,10.2425,10.1447,10.0867,10.0867,10.0867,10.0867,10.0867,10.0867,10.0867,10.0867,10.0831,10.0759,10.0541,10.0541,10.0433,10.0215,10.0179,10.0179,10.0179,10.0179,10.0179,10.0179,10.0179,10.0179,10.0179,10.0179,10.0469,10.0867,10.0722,10.0288,10.0252,10.1048,10.2026,10.2787,10.3402,10.4308,10.5503,10.5757,10.5974,10.6553,10.6481,10.6445,10.5865,10.5286,10.4706,10.4199,10.3837,10.3547,10.304,10.3113,10.3294,10.3692,10.4308,10.4091,10.2751,10.2714,10.3185,10.3221,10.3113,10.3077,10.3221,10.3221,10.3185,10.2751,10.3221,10.3547,10.362,10.3584,10.3564,10.276,10.2059,10.1593,10.1604,10.1873,10.1953,9.7933,9.7823,9.7126,9.7309,9.8007,9.8814,9.9585,10.0283,10.109,10.1457,10.1494,10.1494,10.1494,10.1494,10.1002,10.0627,10.0528,10.0303,10.0722,10.1519,10.2207,10.2932,10.3728,10.4489,10.4851,10.4887,10.4815,10.4417,10.3801,10.3584,10.3258,10.2642,10.2569,10.2569,10.2714,10.2751,10.2606,10.2751,10.2751,10.2678,10.2642,10.2569,10.2497,10.2461,10.2425,10.2352,10.2388,10.2461,10.2425,10.2461,10.2352,10.2099,10.1447,10.1338,10.1012,10.0396,10.0288,10.0252,10.0252,10.0288,10.0252,10.0179,10.0179,10.0179,10.0179,10.0179,10.0324,10.036,10.1085,10.1555,10.2316,10.2425,10.2823,10.3475,10.3692,10.4236,10.4887,10.525,10.4996,10.5177,10.5431,10.5539,10.5177,10.4924,10.5069,10.4851,10.4272,10.3873,10.391,10.333,10.3475,10.4054,10.467,10.4924,10.4779,10.4743,10.4779,10.4815,10.4815,10.4851,10.4815,10.4779,10.4815,10.4924,10.5286,10.5612,10.5974,10.617,10.6161,10.5729,10.5158,10.4717,10.373,10.4843,10.4843,9.7126,9.7089,9.6832,9.6869,9.7199,9.8007,9.8778,9.9585,10.0393,10.1017,10.142,10.1494,10.1413,10.125,10.0965,10.0713,10.07,10.1037,10.1552,10.2171,10.2932,10.3728,10.4453,10.4779,10.4887,10.4887,10.4887,10.4779,10.4453,10.3982,10.3837,10.3946,10.3547,10.3547,10.3982,10.4054,10.4054,10.4054,10.4091,10.4091,10.4091,10.4091,10.4091,10.4018,10.3077,10.2569,10.2569,10.2569,10.2569,10.2569,10.2569,10.2461,10.2207,10.2171,10.2062,10.1773,10.1736,10.1519,10.1048,10.0976,10.0722,10.0252,10.0179,10.0252,10.0179,10.0215,10.0614,10.1483,10.1918,10.2859,10.4199,10.3946,10.3402,10.3728,10.4598,10.5141,10.5141,10.5757,10.6264,10.5902,10.6083,10.6445,10.6336,10.6445,10.6445,10.6409,10.6191,10.5974,10.6046,10.6119,10.6227,10.6735,10.7423,10.7966,10.7966,10.6988,10.6445,10.6445,10.6445,10.6517,10.6517,10.6553,10.6553,10.6481,10.6879,10.6988,10.7002,10.6751,10.7123,10.6855,10.6422,10.6297,10.5664,10.6021,10.595,9.808,9.7823,9.7566,9.7493,9.7566,9.8337,9.8998,9.9622,10.0613,10.1384,10.1861,10.2118,10.2183,10.2019,10.1853,10.1732,10.1684,10.1706,10.2024,10.2606,10.3366,10.4127,10.4779,10.4887,10.4887,10.4887,10.4887,10.4887,10.4851,10.4344,10.438,10.4815,10.4344,10.4344,10.4815,10.4887,10.4996,10.5213,10.5286,10.5394,10.5612,10.5684,10.5684,10.5539,10.467,10.3837,10.3402,10.333,10.333,10.3366,10.333,10.3221,10.2968,10.2714,10.2569,10.2569,10.2569,10.2388,10.1881,10.1773,10.1555,10.1048,10.0976,10.0903,10.065,10.0831,10.141,10.2062,10.2751,10.3801,10.5032,10.4924,10.4598,10.4887,10.5865,10.63,10.5829,10.6662,10.6952,10.6698,10.6916,10.7242,10.7314,10.7278,10.7278,10.7314,10.7314,10.7314,10.7423,10.7712,10.8256,10.8437,10.8654,10.9234,10.9487,10.8944,10.8582,10.8582,10.8727,10.8618,10.8328,10.8328,10.8256,10.8147,10.8111,10.8015,10.7883,10.7556,10.7359,10.7196,10.7074,10.7052,10.6735,10.6592,10.6735,10.0907,10.0136,9.9438,9.9108,9.9218,9.9879,10.0283,10.065,10.1934,10.2558,10.2779,10.3439,10.3623,10.377,10.354,10.3604,10.3205,10.2237,10.2116,10.2805,10.3475,10.4199,10.4887,10.4887,10.4887,10.4887,10.4887,10.4887,10.4887,10.4815,10.4815,10.4887,10.496,10.496,10.496,10.5141,10.5431,10.5938,10.6119,10.6481,10.7169,10.7133,10.7097,10.7169,10.6988,10.63,10.496,10.4924,10.4924,10.4924,10.4924,10.4561,10.3837,10.3185,10.2678,10.2787,10.2714,10.2642,10.2569,10.2569,10.2569,10.2316,10.2461,10.2062,10.1628,10.1954,10.2207,10.2099,10.2968,10.4163,10.5069,10.5757,10.6336,10.7097,10.7205,10.7242,10.7205,10.7278,10.735,10.7386,10.7568,10.7386,10.7386,10.7604,10.7676,10.7676,10.764,10.7676,10.7712,10.7857,10.7857,10.8328,10.8871,10.9415,11.0211,11.0863,11.0863,11.0863,11.1081,11.1081,11.0429,11.0248,10.9994,10.9849,11.0067,11.003,10.9618,10.9287,10.9022,10.8819,10.8475,10.8091,10.8091,10.8091,10.8091,10.1347,10.109,10.087,10.0723,10.076,10.1017,10.142,10.1971,10.2522,10.2999,10.3513,10.377,10.388,10.3917,10.3751,10.3703,10.3619,10.3569,10.3722,10.3998,10.4563,10.4908,10.5035,10.5016,10.4887,10.4887,10.4887,10.4887,10.4887,10.4887,10.4887,10.4996,10.5467,10.572,10.5757,10.6264,10.6735,10.6916,10.6952,10.7097,10.7314,10.735,10.735,10.7314,10.7314,10.7024,10.659,10.659,10.6553,10.6517,10.6553,10.6191,10.5394,10.4598,10.4199,10.4199,10.4199,10.3873,10.3439,10.3366,10.3185,10.2751,10.2642,10.2497,10.2244,10.2497,10.2787,10.2968,10.3946,10.5032,10.6336,10.7278,10.764,10.735,10.7785,10.7966,10.7749,10.793,10.8364,10.8835,10.8944,10.8944,10.8944,10.8944,10.8944,10.8944,10.8944,10.8944,10.8944,10.8944,10.898,10.9306,10.9415,10.9777,11.0791,11.1696,11.1986,11.2167,11.2529,11.2421,11.1986,11.1696,11.1515,11.1515,11.1733,11.1706,11.139,11.1017,11.0748,11.0366,11.005,10.9803,10.9697,10.9625,10.9518,10.2815,10.2815,10.2522,10.2558,10.2815,10.2815,10.3293,10.4063,10.4394,10.4798,10.5275,10.5605,10.5715,10.5715,10.5546,10.5583,10.5534,10.5838,10.5918,10.5809,10.5271,10.5326,10.5108,10.5016,10.4887,10.4887,10.4887,10.4887,10.4924,10.5213,10.5358,10.5503,10.6155,10.6553,10.659,10.7061,10.7423,10.7676,10.7749,10.7894,10.8147,10.8219,10.8219,10.8183,10.8219,10.8183,10.8183,10.8183,10.793,10.7459,10.7314,10.7061,10.6553,10.6046,10.5793,10.5793,10.5757,10.5576,10.5105,10.5141,10.4887,10.4417,10.4344,10.4018,10.3765,10.3837,10.4453,10.4236,10.5177,10.6336,10.7568,10.8473,10.8763,10.8727,10.9125,10.927,10.9125,10.9523,10.9994,11.0465,11.061,11.061,11.061,11.061,11.0574,11.0574,11.0574,11.0574,11.0574,11.061,11.0574,11.0537,11.0719,11.1153,11.1733,11.2421,11.3,11.3326,11.3616,11.3218,11.2711,11.2602,11.2457,11.2539,11.2756,11.2844,11.2532,11.2402,11.2159,11.191,11.1624,11.141,11.1267,11.0838,11.0696,10.5201,10.5128,10.443,10.4614,10.5275,10.5311,10.5752,10.6486,10.7147,10.7404,10.7661,10.8028,10.8505,10.8652,10.8248,10.8285,10.8602,10.8171,10.8046,10.754,10.6579,10.5689,10.5415,10.5322,10.5322,10.525,10.5213,10.5177,10.5358,10.5865,10.6155,10.6264,10.6952,10.7386,10.7459,10.7459,10.8111,10.869,10.8763,10.9197,10.9813,10.9813,10.9813,10.9813,10.9813,10.9813,10.9813,10.9813,10.9089,10.7749,10.7568,10.7459,10.7386,10.735,10.7133,10.7097,10.7278,10.7169,10.7205,10.6916,10.6952,10.6807,10.6735,10.6735,10.5431,10.5974,10.6264,10.5394,10.6445,10.764,10.8473,10.927,11.003,11.0863,11.0863,11.1081,11.1878,11.1878,11.1733,11.1841,11.2059,11.2059,11.1878,11.1878,11.1878,11.1878,11.1841,11.1769,11.1769,11.1696,11.2022,11.2022,11.195,11.2566,11.3145,11.358,11.4195,11.4775,11.4956,11.4558,11.395,11.3841,11.3805,11.3848,11.3963,11.3974,11.3981,11.388,11.3665,11.3342,11.3127,11.3053,11.2765,11.2444,11.2266,10.6413,10.689,10.6706,10.7073,10.7771,10.7844,10.7918,10.8175,10.8358,10.8542,10.8578,10.8688,10.8909,10.8799,10.8872,10.8799,10.8909,10.8785,10.8588,10.8339,10.7958,10.7253,10.6792,10.6662,10.6626,10.659,10.6517,10.6698,10.6698,10.6843,10.6988,10.7024,10.7821,10.8219,10.8292,10.9342,10.9994,11.0356,11.0863,11.1153,11.1334,11.1407,11.1479,11.1479,11.1407,11.1407,11.1443,11.1479,11.0719,10.9197,10.8473,10.8183,10.8219,10.7821,10.7604,10.7604,10.7459,10.7386,10.7423,10.7423,10.7386,10.7314,10.7495,10.7133,10.6807,10.7061,10.7097,10.6843,10.764,10.8509,10.9306,11.0139,11.1189,11.2312,11.2203,11.195,11.2131,11.2095,11.2095,11.2095,11.2167,11.224,11.2312,11.2312,11.2348,11.2348,11.2421,11.2421,11.2747,11.2674,11.2964,11.3,11.3109,11.387,11.4521,11.4884,11.5427,11.6151,11.6369,11.6296,11.5868,11.5656,11.5692,11.5697,11.5707,11.5746,11.5674,11.5674,11.5241,11.4771,11.4661,11.4514,11.4514,11.43,11.4229,10.7697,10.8101,10.8101,10.8542,10.9276,10.9312,10.9496,10.9753,10.9826,10.9826,10.9826,10.9826,10.9826,10.979,10.9826,10.9826,10.9826,10.9702,10.9526,10.9437,10.9311,10.8674,10.787,10.7596,10.7596,10.7596,10.7632,10.7559,10.7725,10.7922,10.8068,10.8228,10.9135,10.9583,10.9632,11.0682,11.1407,11.1479,11.1878,11.2095,11.2095,11.2095,11.2095,11.2095,11.2095,11.2095,11.2095,11.2095,11.1624,11.0791,11.0248,10.9994,10.9958,10.9596,10.9342,10.9306,10.9342,10.9342,10.9234,10.9053,10.8835,10.8763,10.8582,10.8147,10.7966,10.8075,10.8256,10.793,10.8835,10.9632,11.0248,11.1226,11.2421,11.3471,11.3399,11.3109,11.3109,11.3181,11.3109,11.3109,11.3145,11.329,11.3544,11.358,11.3761,11.4087,11.4449,11.4377,11.4377,11.4087,11.4087,11.4377,11.463,11.5354,11.5753,11.6043,11.6441,11.7165,11.7355,11.7355,11.6925,11.6784,11.6856,11.6752,11.722,11.7397,11.7,11.6746,11.6559,11.6304,11.6156,11.6049,11.6013,11.5656,11.562,10.8835,10.8909,10.8909,10.9386,11.0047,11.012,11.045,11.1074,11.1074,11.1074,11.1074,11.1148,11.0964,11.1221,11.1074,11.1295,11.1258,11.119,11.1137,11.1047,11.0846,11.0189,10.9276,10.8747,10.851,10.851,10.8419,10.8638,10.8911,10.944,10.9511,10.976,11.0814,11.1191,11.1142,11.1805,11.2167,11.224,11.2493,11.2638,11.2638,11.2638,11.2674,11.2638,11.2638,11.2602,11.2566,11.2493,11.2385,11.2348,11.2203,11.1878,11.1914,11.1986,11.195,11.1769,11.1588,11.166,11.1841,11.1081,11.09,11.0719,11.0248,10.9668,10.9306,10.9632,10.9741,10.9197,11.0211,11.09,11.1407,11.2529,11.3616,11.4413,11.4594,11.463,11.4739,11.4703,11.4666,11.4739,11.4775,11.5137,11.5536,11.5861,11.597,11.5499,11.5789,11.5753,11.5717,11.568,11.5934,11.6441,11.6658,11.6876,11.7093,11.7202,11.76,11.7966,11.819,11.8012,11.7292,11.7113,11.7329,11.7508,11.7502,11.7606,11.7529,11.7489,11.7447,11.7262,11.6869,11.7083,11.7298,11.6691,11.6441,10.9166,10.9716,10.9753,11.0193,11.0891,11.0964,11.1038,11.1221,11.1221,11.1221,11.1221,11.1221,11.1221,11.1258,11.1808,11.2139,11.2212,11.2563,11.2966,11.2966,11.2966,11.2766,11.1906,11.0773,10.9914,11.006,11.0607,11.0826,11.1101,11.1502,11.1972,11.1782,11.1927,11.2135,11.2048,11.2602,11.3036,11.3145,11.3616,11.387,11.3833,11.3833,11.3833,11.3833,11.387,11.3942,11.3978,11.3978,11.3978,11.3725,11.2892,11.2312,11.2276,11.224,11.2276,11.2276,11.224,11.2167,11.2095,11.2022,11.1841,11.1805,11.1588,11.1515,11.1407,11.1334,11.1443,11.1334,11.166,11.2095,11.2783,11.3652,11.4558,11.521,11.5463,11.568,11.6115,11.5789,11.5717,11.6115,11.626,11.6441,11.6586,11.6622,11.6767,11.6912,11.6948,11.6912,11.6984,11.7093,11.7383,11.7781,11.7817,11.789,11.8071,11.8003,11.8078,11.8262,11.8301,11.8335,11.765,11.7361,11.754,11.7534,11.7673,11.7703,11.7703,11.759,11.7405,11.7476,11.7512,11.7512,11.7405,11.7155,11.7083,11.0193,11.056,11.056,11.0817,11.1184,11.1221,11.1221,11.1221,11.1221,11.1221,11.1221,11.1221,11.1405,11.1808,11.2212,11.2543,11.2946,11.335,11.357,11.3534,11.3534,11.357,11.3497,11.2656,11.1925,11.1998,11.2327,11.2583,11.273,11.3022,11.3003,11.2905,11.3196,11.3224,11.2981,11.3634,11.3933,11.3906,11.4268,11.4521,11.4521,11.4521,11.4521,11.4521,11.4521,11.4521,11.4485,11.4485,11.4485,11.4304,11.3688,11.3218,11.3218,11.3218,11.3218,11.3218,11.3218,11.3254,11.3218,11.2892,11.2674,11.2638,11.2348,11.2131,11.2095,11.2095,11.2095,11.2203,11.2493,11.3109,11.4232,11.4703,11.5427,11.6043,11.626,11.6586,11.7129,11.6767,11.6369,11.6803,11.6803,11.7057,11.7238,11.7419,11.7745,11.7998,11.8143,11.8143,11.8216,11.8288,11.8324,11.8542,11.8614,11.8723,11.894,11.8802,11.8516,11.8373,11.8227,11.804,11.7565,11.7601,11.7632,11.759,11.759,11.759,11.759,11.7512,11.7512,11.7512,11.7512,11.7512,11.744,11.7333,11.7333,11.1221,11.1221,11.1221,11.1221,11.1221,11.1221,11.1221,11.1221,11.1368,11.1478,11.1441,11.1478,11.2139,11.2506,11.28,11.324,11.3827,11.4011,11.4231,11.4194,11.4231,11.4231,11.4158,11.4048,11.3847,11.3937,11.3827,11.3791,11.3791,11.3901,11.4049,11.3754,11.423,11.4276,11.411,11.4448,11.4677,11.4513,11.4449,11.4521,11.4521,11.4521,11.4521,11.4521,11.4521,11.4521,11.4521,11.4521,11.4521,11.4521,11.4521,11.4521,11.4521,11.4521,11.4521,11.4449,11.4304,11.4232,11.4123,11.3833,11.3471,11.3471,11.2964,11.2602,11.2602,11.2674,11.2711,11.2819,11.3218,11.3942,11.5318,11.5499,11.597,11.6658,11.6948,11.7455,11.7926,11.7636,11.7455,11.7383,11.7636,11.7926,11.8107,11.8288,11.8687,11.9012,11.9121,11.923,11.923,11.9194,11.9012,11.8976,11.894,11.8835,11.8946,11.8805,11.8589,11.8371,11.804,11.7816,11.759,11.759,11.759,11.759,11.7476,11.7512,11.7512,11.7512,11.7512,11.7512,11.7512,11.7512,11.7512,11.7512,11.7512,11.1221,11.1221,11.1221,11.1221,11.1221,11.1221,11.1258,11.1331,11.1955,11.2176,11.2286,11.2836,11.3167,11.3534,11.4158,11.4818,11.5222,11.5296,11.5369,11.5406,11.5406,11.5369,11.5332,11.5259,11.5406,11.5406,11.5002,11.4598,11.4782,11.5222,11.5167,11.5238,11.5254,11.5138,11.4947,11.5008,11.4884,11.4785,11.4586,11.4521,11.4521,11.4521,11.4521,11.4521,11.4521,11.4521,11.4521,11.4521,11.4521,11.4521,11.4521,11.4521,11.4521,11.4521,11.4521,11.4521,11.4521,11.4521,11.4449,11.4377,11.4304,11.4268,11.4051,11.4014,11.4014,11.4014,11.3833,11.3978,11.4087,11.4485,11.4666,11.5536,11.6115,11.6803,11.7564,11.8179,11.8723,11.8759,11.8578,11.8469,11.865,11.8687,11.8723,11.8795,11.894,11.9121,11.9157,11.923,11.923,11.923,11.9157,11.9157,11.9157,11.8946,11.8912,11.8589,11.8371,11.8151,11.7816,11.7703,11.7476,11.7476,11.7512,11.7512,11.7512,11.7512,11.7512,11.7512,11.7512,11.7512,11.7512,11.7512,11.7512,11.7512,11.7512,11.1221,11.1221,11.1221,11.1221,11.1295,11.1662,11.1808,11.1955,11.2653,11.302,11.313,11.3424,11.3864,11.4231,11.4561,11.5259,11.581,11.5993,11.5993,11.5993,11.5993,11.5993,11.5993,11.5993,11.5993,11.5883,11.5589,11.5369,11.5442,11.5736,11.5901,11.5864,11.5808,11.5678,11.5489,11.5298,11.5142,11.4983,11.4785,11.4622,11.4485,11.4521,11.4521,11.4521,11.4521,11.4521,11.4521,11.4521,11.4521,11.4521,11.4521,11.4521,11.4521,11.4521,11.4521,11.4521,11.4521,11.4521,11.4521,11.4521,11.4485,11.4485,11.4521,11.4521,11.4521,11.4449,11.4521,11.4594,11.5028,11.5318,11.5789,11.6369,11.7238,11.7926,11.8433,11.8759,11.9085,11.9194,11.923,11.923,11.9085,11.9012,11.9085,11.9121,11.9194,11.923,11.923,11.923,11.923,11.923,11.923,11.9124,11.9124,11.8912,11.8697,11.8371,11.8151,11.7928,11.7703,11.759,11.7512,11.7512,11.7512,11.7512,11.7512,11.7512,11.7512,11.7512,11.7512,11.7512,11.7512,11.7512,11.7512,11.7512,11.7512,11.1221,11.1221,11.1368,11.1441,11.1588,11.2322,11.2616,11.28,11.3497,11.3827,11.3827,11.4048,11.4488,11.4892,11.5112,11.5406,11.5993,11.5993,11.5993,11.5993,11.5993,11.5993,11.5993,11.5993,11.5993,11.5993,11.592,11.5993,11.5883,11.5956,11.5993,11.5993,11.5993,11.5901,11.5714,11.5584,11.5335,11.5142,11.4947,11.4785,11.4586,11.4485,11.4521,11.4521,11.4521,11.4521,11.4521,11.4521,11.4521,11.4521,11.4521,11.4521,11.4521,11.4521,11.4521,11.4521,11.4521,11.4521,11.4521,11.4521,11.4521,11.4521,11.4521,11.4521,11.4521,11.4521,11.4521,11.463,11.4956,11.5608,11.6224,11.7274,11.8035,11.865,11.894,11.9194,11.9194,11.923,11.923,11.923,11.923,11.923,11.923,11.923,11.923,11.923,11.923,11.923,11.923,11.923,11.923,11.9018,11.8912,11.8805,11.848,11.8151,11.7928,11.7816,11.759,11.7476,11.7512,11.7512,11.7512,11.7512,11.7512,11.7512,11.7512,11.7512,11.7512,11.7512,11.7512,11.7512,11.7512,11.7512,11.7512,11.1221,11.1258,11.1955,11.2249,11.2359,11.3093,11.346,11.357,11.4305,11.4672,11.4708,11.5296,11.5626,11.5736,11.5773,11.5883,11.5956,11.5993,11.5993,11.5993,11.5993,11.5993,11.5993,11.5993,11.5993,11.5993,11.5993,11.5993,11.5993,11.5993,11.5993,11.5993,11.5993,11.5993,11.5901,11.5714,11.5584,11.5526,11.5298,11.5044,11.4785,11.4586,11.4521,11.4521,11.4521,11.4521,11.4558,11.4594,11.4594,11.4521,11.4558,11.4558,11.4521,11.4521,11.4521,11.4521,11.4521,11.4521,11.4521,11.4521,11.4521,11.4521,11.4521,11.4521,11.4521,11.4521,11.4521,11.4521,11.4739,11.5246,11.6115,11.6731,11.7419,11.8216,11.894,11.9121,11.923,11.923,11.923,11.923,11.923,11.923,11.923,11.923,11.923,11.923,11.923,11.923,11.923,11.9088,11.9124,11.9018,11.8697,11.848,11.8261,11.804,11.7816,11.759,11.759,11.7512,11.7512,11.7512,11.7512,11.7512,11.7512,11.7512,11.7512,11.7512,11.7512,11.7512,11.7512,11.7512,11.7512,11.7512,11.7512,11.1882,11.1919,11.2249,11.2653,11.313,11.3937,11.4268,11.4451,11.5112,11.5479,11.5516,11.581,11.5993,11.5993,11.5993,11.5993,11.5993,11.5993,11.5993,11.5993,11.5993,11.5993,11.5993,11.5993,11.5993,11.5993,11.5993,11.5993,11.5993,11.5993,11.5993,11.5993,11.5993,11.5993,11.5993,11.5864,11.5678,11.5526,11.5239,11.4947,11.4884,11.4686,11.4521,11.4521,11.4521,11.4521,11.463,11.4992,11.4884,11.4847,11.521,11.5608,11.5427,11.5572,11.5898,11.5825,11.5391,11.4992,11.463,11.4558,11.4521,11.4521,11.4521,11.4521,11.4521,11.4521,11.4521,11.4521,11.5391,11.5934,11.6477,11.7528,11.8143,11.8759,11.8976,11.9085,11.923,11.923,11.923,11.923,11.923,11.923,11.923,11.923,11.923,11.923,11.923,11.923,11.9124,11.8982,11.8912,11.8912,11.848,11.8151,11.804,11.7816,11.7703,11.759,11.759,11.7512,11.7512,11.7512,11.7512,11.7512,11.7512,11.7512,11.7512,11.7512,11.7512,11.7512,11.7512,11.7512,11.7512,11.7512,11.7512,11.28,11.2983,11.2983,11.335,11.3974,11.4745,11.5112,11.5185,11.5699,11.5956,11.5993,11.5993,11.5993,11.5993,11.5993,11.5993,11.5993,11.5993,11.5993,11.5993,11.5993,11.5993,11.5993,11.5993,11.5993,11.5993,11.5993,11.5993,11.5993,11.5993,11.5993,11.5993,11.5993,11.5993,11.5993,11.5993,11.5901,11.5678,11.5239,11.5044,11.4947,11.4722,11.4521,11.4521,11.4521,11.4594,11.4847,11.5282,11.5282,11.5608,11.6115,11.6405,11.6151,11.6405,11.6658,11.655,11.6187,11.5825,11.5282,11.4956,11.4594,11.4521,11.4521,11.4521,11.4521,11.4521,11.4521,11.4521,11.5246,11.6115,11.6984,11.7926,11.8433,11.8759,11.9194,11.9194,11.923,11.923,11.923,11.923,11.923,11.923,11.923,11.923,11.923,11.923,11.923,11.923,11.9124,11.8982,11.8805,11.8697,11.848,11.804,11.7816,11.759,11.7512,11.7512,11.7512,11.7512,11.7512,11.7512,11.7512,11.7512,11.7512,11.7512,11.7512,11.7512,11.7512,11.7512,11.7512,11.7512,11.7512,11.7512,11.7512,11.3974,11.4635,11.4635,11.4635,11.4782,11.5589,11.5883,11.581,11.5956,11.5993,11.5993,11.5993,11.5993,11.5993,11.5993,11.5993,11.5993,11.5993,11.5993,11.5993,11.5993,11.5993,11.5993,11.5993,11.5993,11.5993,11.5993,11.5993,11.5993,11.5993,11.5993,11.5993,11.5993,11.5993,11.5993,11.5993,11.5993,11.5771,11.5394,11.5202,11.5044,11.4785,11.4521,11.4521,11.4594,11.4847,11.5536,11.5825,11.6043,11.6441,11.6984,11.7093,11.6948,11.7129,11.7274,11.7238,11.6984,11.6731,11.6405,11.5536,11.4703,11.4558,11.4594,11.463,11.4521,11.4558,11.4521,11.4739,11.5463,11.6006,11.6622,11.7165,11.8288,11.8831,11.923,11.923,11.923,11.923,11.923,11.923,11.923,11.923,11.923,11.923,11.923,11.923,11.923,11.9194,11.9124,11.9018,11.8805,11.8589,11.848,11.804,11.759,11.7512,11.7512,11.7512,11.7512,11.7512,11.7512,11.7512,11.7512,11.7512,11.7512,11.7512,11.7512,11.7512,11.7512,11.7512,11.7512,11.7512,11.7512,11.7512,11.7512,11.4818,11.5516,11.5553,11.5516,11.5553,11.5846,11.5993,11.5993,11.5993,11.5993,11.5993,11.5993,11.5993,11.5993,11.5993,11.5993,11.5993,11.5993,11.5993,11.5993,11.5993,11.5993,11.5993,11.5993,11.5993,11.5993,11.5993,11.5993,11.5993,11.5993,11.5993,11.5993,11.603,11.5993,11.5993,11.5993,11.5993,11.5901,11.5584,11.5394,11.5105,11.4947,11.4686,11.4521,11.5101,11.5318,11.5789,11.6731,11.6912,11.7165,11.7817,11.7853,11.7745,11.7962,11.8143,11.8107,11.7853,11.7636,11.7491,11.6586,11.5825,11.5282,11.521,11.5101,11.4847,11.4956,11.5173,11.5499,11.6043,11.6767,11.7346,11.8071,11.8759,11.9085,11.923,11.923,11.923,11.923,11.923,11.923,11.923,11.923,11.923,11.923,11.923,11.923,11.923,11.9194,11.9124,11.9018,11.8697,11.848,11.8261,11.804,11.7626,11.7476,11.7512,11.7512,11.7512,11.7512,11.7512,11.7512,11.7512,11.7512,11.7512,11.7512,11.7512,11.7512,11.7512,11.7512,11.7512,11.7512,11.7512,11.7512,11.7512,11.5479,11.5993,11.5993,11.5993,11.5993,11.5993,11.5993,11.5993,11.5993,11.5993,11.5993,11.5993,11.5993,11.5993,11.5993,11.5993,11.5993,11.5993,11.5993,11.5993,11.5993,11.5993,11.5993,11.5993,11.5993,11.5993,11.5993,11.5993,11.5993,11.5993,11.5993,11.6066,11.6213,11.6287,11.5993,11.5993,11.5993,11.5901,11.5678,11.5577,11.5494,11.4994,11.5194,11.5101,11.5572,11.6043,11.6586,11.7419,11.7817,11.8071,11.8433,11.8795,11.8795,11.8831,11.9157,11.9049,11.8795,11.8433,11.8216,11.7419,11.6658,11.6115,11.6043,11.5861,11.5789,11.5898,11.6079,11.6513,11.7274,11.789,11.8071,11.8361,11.8759,11.9049,11.9194,11.923,11.923,11.923,11.923,11.923,11.923,11.923,11.923,11.923,11.923,11.923,11.923,11.923,11.9124,11.8912,11.8697,11.8371,11.804,11.7816,11.7512,11.7512,11.7512,11.7512,11.7512,11.7512,11.7512,11.7512,11.7512,11.7512,11.7512,11.7512,11.7512,11.7512,11.7512,11.7512,11.7512,11.7512,11.7512,11.7512,11.7512,11.5956,11.5993,11.5993,11.5993,11.5993,11.5993,11.5993,11.5993,11.5993,11.603,11.6103,11.6103,11.6103,11.6103,11.6177,11.614,11.5993,11.5993,11.5993,11.5993,11.5993,11.5993,11.5993,11.5993,11.5993,11.5993,11.614,11.6213,11.6103,11.6397,11.6287,11.6434,11.6874,11.6911,11.614,11.603,11.603,11.5974,11.5672,11.5919,11.6016,11.5403,11.5673,11.6079,11.626,11.6695,11.7455,11.7998,11.8397,11.8795,11.894,11.9121,11.9085,11.9085,11.923,11.9157,11.9157,11.9121,11.9049,11.7709,11.7165,11.7057,11.7129,11.7202,11.7564,11.7528,11.7383,11.7998,11.7998,11.7926,11.8035,11.8397,11.9012,11.9302,11.952,11.9447,11.9483,11.923,11.923,11.923,11.923,11.923,11.923,11.923,11.923,11.923,11.923,11.923,11.9124,11.8912,11.848,11.8261,11.7928,11.7703,11.7476,11.7512,11.7512,11.7512,11.7512,11.7512,11.7512,11.7512,11.7512,11.7512,11.7512,11.7512,11.7512,11.7512,11.7512,11.7512,11.7512,11.7512,11.7512,11.7512,11.7512,11.5993,11.5993,11.5993,11.5993,11.5993,11.5993,11.5993,11.5993,11.603,11.6287,11.6727,11.6801,11.6801,11.6801,11.669,11.647,11.603,11.5993,11.5993,11.603,11.6066,11.5993,11.603,11.6177,11.6103,11.6177,11.6397,11.6801,11.6837,11.7131,11.7498,11.7755,11.7755,11.7828,11.7682,11.7571,11.7608,11.7514,11.7267,11.7147,11.7135,11.6556,11.6464,11.6948,11.7093,11.7491,11.8143,11.8505,11.8904,11.9194,11.9194,11.923,11.923,11.923,11.923,11.923,11.923,11.923,11.9194,11.8614,11.8505,11.8433,11.8324,11.8433,11.8759,11.9194,11.9375,11.9592,11.9628,11.9809,12.0425,12.0461,12.0751,12.0642,12.0642,12.0208,11.999,11.9483,11.923,11.923,11.923,11.9302,11.9338,11.9447,11.9483,11.9305,11.9342,11.9163,11.9163,11.8733,11.8407,11.804,11.7816,11.759,11.7512,11.769,11.7583,11.7512,11.7512,11.7512,11.7512,11.7512,11.7512,11.7512,11.7512,11.7512,11.7512,11.7512,11.7512,11.7512,11.7512,11.7512,11.7512,11.7512,11.7512,11.5993,11.5993,11.5993,11.5993,11.5993,11.5993,11.614,11.6397,11.6434,11.6874,11.7498,11.7608,11.7425,11.7278,11.7131,11.6764,11.603,11.5993,11.6323,11.636,11.6434,11.669,11.6837,11.6764,11.7021,11.6984,11.7241,11.7608,11.7645,11.8122,11.8489,11.8673,11.8819,11.904,11.8966,11.8819,11.8269,11.8138,11.7816,11.7744,11.7692,11.7465,11.7298,11.7636,11.7962,11.8216,11.8542,11.8904,11.923,11.923,11.923,11.923,11.923,11.923,11.923,11.923,11.923,11.923,11.9194,11.9592,11.9592,12.0027,11.9628,11.9556,11.9809,12.0135,12.0678,12.1077,12.1512,12.1548,12.162,12.1656,12.1656,12.1512,12.133,12.0896,12.0715,12.0208,11.9882,11.9809,11.9664,11.9628,11.9628,11.9664,11.9703,11.9631,11.9452,11.9345,11.9238,11.8912,11.8653,11.8537,11.8347,11.834,11.819,11.8047,11.7904,11.7547,11.7512,11.7512,11.7512,11.7512,11.7512,11.7512,11.7512,11.7512,11.7512,11.7512,11.7512,11.7512,11.7512,11.7512,11.7512,11.7512,11.7512,11.5993,11.5993,11.5993,11.603,11.6066,11.6213,11.658,11.7204,11.7241,11.7718,11.8416,11.8416,11.8159,11.7498,11.7388,11.7021,11.647,11.6323,11.669,11.7094,11.7241,11.7645,11.7975,11.8122,11.7938,11.8159,11.8416,11.8416,11.8452,11.8856,11.9223,11.948,11.9627,11.9957,11.9921,11.97,11.915,11.9033,11.856,11.8594,11.8722,11.7908,11.8066,11.8397,11.8578,11.865,11.8904,11.9194,11.923,11.923,11.923,11.923,11.923,11.923,11.923,11.923,11.923,11.9375,11.952,12.0063,12.0642,12.0896,12.0171,12.0461,12.1041,12.1403,12.1801,12.2163,12.2417,12.2091,12.1874,12.1946,12.2019,12.191,12.1801,12.1656,12.162,12.1294,12.0968,12.0751,12.0534,12.0461,12.0461,12.0461,12.0248,12.014,12.0068,12.003,11.992,11.9518,11.9438,11.9569,11.9455,11.9225,11.9046,11.8618,11.8297,11.7976,11.7583,11.7512,11.7512,11.7512,11.7512,11.7512,11.7512,11.7512,11.7512,11.7512,11.7512,11.7512,11.7512,11.7512,11.7512,11.7512,11.7512,11.5993,11.5993,11.5993,11.6323,11.6911,11.7461,11.7535,11.7314,11.7792,11.8489,11.926,11.926,11.904,11.893,11.8893,11.8342,11.7938,11.7718,11.7865,11.8012,11.8049,11.8232,11.8379,11.8563,11.8452,11.8673,11.893,11.926,11.9407,11.97,12.0104,12.0508,12.0398,12.0691,12.0802,12.0948,12.0742,12.0365,11.9704,11.9651,11.9603,11.8895,11.894,11.8904,11.8976,11.9012,11.9121,11.923,11.923,11.923,11.923,11.923,11.923,11.923,11.923,11.9302,11.9664,12.0099,12.0208,12.0823,12.1403,12.162,12.1149,12.1946,12.267,12.296,12.2924,12.3069,12.3214,12.296,12.2852,12.2888,12.2888,12.2815,12.267,12.2453,12.2381,12.2127,12.1801,12.1475,12.1258,12.1258,12.1258,12.1043,12.0971,12.0752,12.0714,12.0672,12.0483,12.0077,12.0142,12.0385,12.0269,12.0081,11.9546,11.9082,11.8725,11.8404,11.7904,11.7512,11.7512,11.7512,11.7512,11.7512,11.7512,11.7512,11.7512,11.7512,11.7512,11.7512,11.7512,11.7512,11.7512,11.7512,11.7512,11.5993,11.603,11.636,11.6947,11.7755,11.8526,11.8563,11.8269,11.8673,11.9333,12.0067,12.0104,11.9921,11.9554,11.9443,11.9076,11.8342,11.8269,11.8452,11.8856,11.8856,11.9223,11.926,11.9333,11.948,11.959,11.9774,12.0104,12.0214,12.0471,12.0875,12.0838,12.0912,12.0912,12.1059,12.1499,12.1928,12.1621,12.1239,12.068,12.0294,11.9765,11.9302,11.9302,11.9302,11.9302,11.9266,11.9266,11.923,11.923,11.923,11.923,11.923,11.923,11.952,11.9664,12.0063,12.0534,12.0896,12.162,12.1946,12.2163,12.2308,12.2996,12.325,12.3395,12.354,12.3721,12.3866,12.3938,12.3938,12.3974,12.3938,12.3938,12.3612,12.3286,12.3069,12.2852,12.2526,12.2163,12.2055,12.2055,12.1983,12.1766,12.1546,12.1435,12.1135,12.098,12.0937,12.0635,12.0921,12.1197,12.1009,12.083,12.0259,11.9617,11.9153,11.8654,11.7904,11.7619,11.7547,11.7512,11.7512,11.7512,11.7512,11.7512,11.7512,11.7512,11.7512,11.7512,11.7512,11.7512,11.7512,11.7512,11.7512,11.603,11.6213,11.7021,11.7828,11.8563,11.937,11.9664,11.97,11.97,12.0141,12.0765,12.0875,12.0398,11.9957,11.9884,11.9517,11.915,11.904,11.9297,11.9664,11.97,11.9994,12.0435,12.0838,12.0435,12.0691,12.0838,12.0618,12.0802,12.0912,12.0912,12.0912,12.0912,12.0912,12.1022,12.194,12.2319,12.1903,12.1677,12.1227,12.0651,11.9978,11.9411,11.952,11.9556,11.9556,11.9483,11.9411,11.9338,11.9375,11.9375,11.9411,11.9592,11.9664,12.0027,12.0316,12.0678,12.1041,12.1584,12.2308,12.2779,12.3105,12.354,12.3721,12.3757,12.3648,12.3757,12.3902,12.3974,12.4011,12.4011,12.4011,12.4011,12.4011,12.3829,12.3685,12.3576,12.3395,12.325,12.296,12.2888,12.2888,12.267,12.2486,12.2115,12.2003,12.1697,12.1386,12.1386,12.1233,12.1366,12.1794,12.1651,12.1401,12.108,12.0438,11.9653,11.8975,11.8225,11.7654,11.7547,11.7512,11.7512,11.7512,11.7512,11.7512,11.7512,11.7512,11.7512,11.7512,11.7512,11.7512,11.7512,11.7512,11.7512,11.636,11.7058,11.8452,11.915,11.9407,12.0214,12.0581,12.0581,12.0581,12.0691,12.0875,12.0875,12.0802,12.0545,12.0471,12.0251,12.0214,11.9957,12.0361,12.0471,12.0471,12.0581,12.0875,12.0948,12.0948,12.0912,12.0912,12.0912,12.0912,12.0912,12.0912,12.0912,12.0985,12.1022,12.1132,12.2196,12.2686,12.2184,12.2298,12.2356,12.2222,12.1576,12.1004,12.0932,12.0896,12.0823,12.0678,12.0389,12.0606,12.0823,12.0353,12.0497,12.1004,12.0968,12.0751,12.0715,12.1512,12.1801,12.2163,12.2888,12.3467,12.3648,12.3866,12.3938,12.3938,12.3793,12.3757,12.3938,12.4011,12.4011,12.4011,12.4011,12.4011,12.4011,12.4011,12.4011,12.4011,12.3938,12.3902,12.3793,12.3685,12.3539,12.3319,12.3096,12.2794,12.2486,12.2254,12.2019,12.1948,12.1794,12.1723,12.2044,12.2079,12.1865,12.1615,12.1116,12.0295,11.9617,11.8975,11.8297,11.7654,11.7512,11.7512,11.7512,11.7512,11.7512,11.7512,11.7512,11.7512,11.7512,11.7512,11.7512,11.7512,11.7512,11.7512,11.6801,11.7388,11.893,11.9811,12.0214,12.0691,12.0912,12.0912,12.0912,12.0912,12.0912,12.0912,12.0912,12.0912,12.0912,12.0912,12.0912,12.0875,12.0802,12.0875,12.0985,12.1169,12.1169,12.1095,12.1279,12.1279,12.0985,12.0912,12.0912,12.0912,12.0912,12.1022,12.1132,12.1499,12.1646,12.282,12.3371,12.271,12.3166,12.3553,12.3531,12.2305,12.1186,12.1077,12.1403,12.1548,12.1475,12.1113,12.1294,12.1439,12.1113,12.1077,12.1403,12.1439,12.1512,12.1729,12.2236,12.2743,12.2888,12.3322,12.4011,12.4011,12.4011,12.4011,12.4011,12.3866,12.3866,12.4011,12.4011,12.4011,12.4011,12.4011,12.4011,12.4011,12.4011,12.4011,12.4011,12.3974,12.3938,12.3938,12.3756,12.3535,12.3312,12.2937,12.2744,12.2629,12.2387,12.2186,12.2186,12.2186,12.2186,12.2186,12.2186,12.2186,12.1972,12.1473,12.0795,12.0188,11.9546,11.8939,11.8225,11.7761,11.7512,11.7512,11.7512,11.7512,11.7512,11.7512,11.7512,11.7512,11.7512,11.7512,11.7512,11.7512,11.7512,11.7314,11.7718,11.915,12.0178,12.0838,12.0912,12.0912,12.0912,12.0912,12.0912,12.0912,12.0912,12.0912,12.0912,12.0912,12.0912,12.0912,12.0912,12.0912,12.0912,12.0912,12.1316,12.1499,12.1499,12.1646,12.1756,12.1646,12.1205,12.0912,12.1242,12.1536,12.1316,12.1683,12.227,12.271,12.3481,12.4105,12.376,12.3971,12.4283,12.3527,12.2339,12.1618,12.1367,12.1475,12.1874,12.191,12.1801,12.1801,12.1982,12.2091,12.2127,12.2163,12.2272,12.2272,12.2562,12.2815,12.3214,12.3504,12.3721,12.3938,12.4011,12.4011,12.4011,12.4011,12.4011,12.4011,12.4011,12.4011,12.4011,12.4011,12.4011,12.4011,12.4011,12.4011,12.4011,12.4011,12.4011,12.4011,12.4011,12.3791,12.3569,12.3231,12.2852,12.2737,12.2504,12.2387,12.2305,12.2186,12.2186,12.2186,12.2186,12.2186,12.2186,12.2186,12.183,12.1223,12.0366,11.9724,11.926,11.8725,11.794,11.7512,11.7512,11.7512,11.7512,11.7512,11.7512,11.7512,11.7512,11.7512,11.7512,11.7512,11.7512,11.7512,11.7975,11.9223,12.0251,12.0765,12.0912,12.0912,12.0912,12.0912,12.0912,12.0912,12.0912,12.0912,12.0912,12.0912,12.0912,12.0912,12.0912,12.0985,12.0948,12.0912,12.1205,12.1572,12.194,12.2123,12.2013,12.205,12.2123,12.2013,12.1205,12.1976,12.2417,12.1866,12.26,12.3041,12.3261,12.3958,12.4336,12.4136,12.3832,12.3887,12.3422,12.2849,12.354,12.3431,12.3431,12.354,12.3395,12.2888,12.3069,12.3322,12.3431,12.3322,12.3286,12.3214,12.3178,12.3069,12.3359,12.3395,12.3612,12.3829,12.3938,12.4011,12.4011,12.4011,12.4011,12.4011,12.4011,12.4011,12.4011,12.4011,12.4011,12.4011,12.4011,12.4011,12.4011,12.4011,12.4011,12.3901,12.3901,12.3791,12.3569,12.3231,12.2852,12.2621,12.2504,12.2387,12.2305,12.2186,12.2186,12.2186,12.2186,12.2186,12.2186,12.2186,12.2186,12.2151,12.1615,12.0723,11.9867,11.9296,11.8618,11.7833,11.7512,11.7512,11.7512,11.7512,11.7512,11.7512,11.7512,11.7512,11.7512,11.7512,11.7512,11.7512,11.7512]},{"header":{"parameterUnit":"m.s-1","parameterCategory":1,"la1":31.0,"la2":29.5877,"lo1":-88.7671,"lo2":-86.6584,"dx":0.0162,"dy":0.0185,"nx":115,"ny":88,"refTime":"2023-01-10T18:00:00:Z","depth":0,"parameterNumber":3,"parameterNumberName":"V-component_of_WINDS"},"data":[0.0,0.0,0.0,0.0,0.0,0.0,0.0,0.0,0.0,0.0,0.0,0.0,0.0,0.0,0.0,0.0,0.0,0.0,0.0,0.0,0.0,0.0,0.0,0.0,0.0,0.0,0.0,0.0,0.0,0.0,0.0,0.0,0.0,0.0,0.0,0.0,0.0,0.0,0.0,0.0,0.0,0.0,0.0,0.0,0.0,0.0,0.0,0.0,0.0,0.0,0.0,0.0,0.0,0.0,0.0,0.0,0.0,0.0,0.0,0.0,0.0,0.0,0.0,0.0,0.0,0.0,0.0,0.0,0.0,0.0,0.0,0.0,0.0,0.0,0.0,0.0,0.0,0.0,0.0,0.0,0.0,0.0,0.0,0.0,0.0,0.0,0.0,0.0,0.0,0.0,0.0,0.0,0.0,0.0,0.0,0.0,0.0,0.0,0.0,0.0,0.0,0.0,0.0,0.0,0.0,0.0,0.0,0.0,0.0,0.0,0.0,0.0,0.0,0.0,0.0,0.0,0.0,0.0,0.0,0.0,0.0,0.0,0.0,0.0,0.0,0.0,0.0,0.0,0.0,0.0,0.0,0.0,0.0,0.0,0.0,0.0,0.0,0.0,0.0,0.0,0.0,0.0,0.0,0.0,0.0,0.0,0.0,0.0,0.0,0.0,0.0,0.0,0.0,0.0,0.0,0.0,0.0,0.0,0.0,0.0,0.0,0.0,0.0,0.0,0.0,0.0,0.0,0.0,0.0,0.0,0.0,0.0,0.0,0.0,0.0,0.0,0.0,0.0,0.0,0.0,0.0,0.0,0.0,0.0,0.0,0.0,0.0,0.0,0.0,0.0,0.0,0.0,0.0,0.0,0.0,0.0,0.0,0.0,0.0,0.0,0.0,0.0,0.0,0.0,0.0,0.0,0.0,0.0,0.0,0.0,0.0,0.0,0.0,0.0,0.0,0.0,0.0,0.0,0.0,0.0,0.0,0.0,0.0,0.0,0.0,0.0,0.0,0.0,0.0,0.0,0.0,0.0,0.0,0.0,0.0,0.0,0.0,0.0,0.0,0.0,0.0,0.0,0.0,0.0,0.0,0.0,0.0,0.0,0.0,0.0,0.0,0.0,0.0,0.0,0.0,0.0,0.0,0.0,0.0,0.0,0.0,0.0,0.0,0.0,0.0,0.0,0.0,0.0,0.0,0.0,0.0,0.0,0.0,0.0,0.0,0.0,0.0,0.0,0.0,0.0,0.0,0.0,0.0,0.0,0.0,0.0,0.0,0.0,0.0,0.0,0.0,0.0,0.0,0.0,0.0,0.0,0.0,0.0,0.0,0.0,0.0,0.0,0.0,0.0,0.0,0.0,0.0,0.0,0.0,0.0,0.0,0.0,0.0,0.0,0.0,0.0,0.0,0.0,0.0,0.0,0.0,0.0,0.0,0.0,0.0,0.0,0.0,0.0,0.0,0.0,0.0,0.0,0.0,0.0,0.0,0.0,0.0,0.0,0.0,0.0,0.0,0.0,0.0,0.0,0.0,0.0,0.0,0.0,0.0,0.0,0.0,0.0,0.0,0.0,0.0,0.0,0.0,0.0,0.0,0.0,0.0,0.0,0.0,0.0,0.0,0.0,0.0,0.0,0.0,0.0,0.0,0.0,0.0,0.0,0.0,0.0,0.0,0.0,0.0,0.0,0.0,0.0,0.0,0.0,0.0,0.0,0.0,0.0,0.0,0.0,0.0,0.0,0.0,0.0,0.0,0.0,0.0,0.0,0.0,0.0,0.0,0.0,0.0,0.0,0.0,0.0,0.0,0.0,0.0,0.0,0.0,0.0,0.0,0.0,0.0,0.0,0.0,0.0,0.0,0.0,0.0,0.0,0.0,0.0,0.0,0.0,0.0,0.0,0.0,0.0,0.0,0.0,0.0,0.0,0.0,0.0,0.0,0.0,0.0,0.0,0.0,0.0,0.0,0.0,0.0,0.0,0.0,0.0,0.0,0.0,0.0,0.0,0.0,0.0,0.0,0.0,0.0,0.0,0.0,0.0,0.0,0.0,0.0,0.0,0.0,0.0,0.0,0.0,0.0,0.0,0.0,0.0,0.0,0.0,0.0,0.0,0.0,0.0,0.0,0.0,0.0,0.0,0.0,0.0,0.0,0.0,0.0,0.0,0.0,0.0,0.0,0.0,0.0,0.0,0.0,0.0,0.0,0.0,0.0,0.0,0.0,0.0,0.0,0.0,0.0,0.0,0.0,0.0,0.0,0.0,0.0,0.0,0.0,0.0,0.0,0.0,0.0,0.0,0.0,0.0,0.0,0.0,0.0,0.0,0.0,0.0,0.0,0.0,0.0,0.0,0.0,0.0,0.0,0.0,0.0,0.0,0.0,0.0,0.0,0.0,0.0,0.0,0.0,0.0,0.0,0.0,0.0,0.0,0.0,0.0,0.0,0.0,0.0,0.0,0.0,0.0,0.0,0.0,0.0,0.0,0.0,0.0,0.0,0.0,0.0,0.0,0.0,0.0,0.0,0.0,0.0,0.0,0.0,0.0,0.0,0.0,0.0,0.0,0.0,0.0,0.0,0.0,0.0,0.0,0.0,0.0,0.0,0.0,0.0,0.0,0.0,0.0,0.0,0.0,0.0,0.0,0.0,0.0,0.0,0.0,0.0,0.0,0.0,0.0,0.0,0.0,0.0,0.0,0.0,0.0,0.0,0.0,0.0,0.0,0.0,0.0,0.0,0.0,0.0,0.0,0.0,0.0,0.0,0.0,0.0,0.0,0.0,0.0,0.0,0.0,0.0,0.0,0.0,0.0,0.0,0.0,0.0,0.0,0.0,0.0,0.0,0.0,0.0,0.0,0.0,0.0,0.0,0.0,0.0,0.0,0.0,0.0,0.0,0.0,0.0,0.0,0.0,0.0,0.0,0.0,0.0,0.0,0.0,0.0,0.0,0.0,0.0,0.0,0.0,0.0,0.0,0.0,0.0,0.0,0.0,0.0,0.0,0.0,0.0,0.0,0.0,0.0,0.0,0.0,0.0,0.0,0.0,0.0,0.0,0.0,0.0,0.0,0.0,0.0,0.0,0.0,0.0,0.0,0.0,0.0,0.0,0.0,0.0,0.0,0.0,0.0,0.0,0.0,0.0,0.0,0.0,0.0,0.0,0.0,0.0,0.0,0.0,0.0,0.0,0.0,0.0,0.0,0.0,0.0,0.0,0.0,0.0,0.0,0.0,0.0,0.0,0.0,0.0,0.0,0.0,0.0,0.0,0.0,0.0,0.0,0.0,0.0,0.0,0.0,0.0,0.0,0.0,0.0,0.0,0.0,0.0,0.0,0.0,0.0,0.0,0.0,0.0,0.0,0.0,0.0,0.0,0.0,0.0,0.0,0.0,0.0,0.0,0.0,0.0,0.0,0.0,0.0,0.0,0.0,0.0,0.0,0.0,0.0,0.0,0.0,0.0,0.0,0.0,0.0,0.0,0.0,0.0,0.0,0.0,0.0,0.0,0.0,0.0,0.0,0.0,0.0,0.0,0.0,0.0,0.0,0.0,0.0,0.0,0.0,0.0,0.0,0.0,0.0,0.0,0.0,0.0,0.0,0.0,0.0,0.0,0.0,0.0,0.0,0.0,0.0,0.0,0.0,0.0,0.0,0.0,0.0,0.0,0.0,0.0,0.0,0.0,0.0,0.0,0.0,0.0,0.0,0.0,0.0,0.0,0.0,0.0,0.0,0.0,0.0,0.0,0.0,0.0,0.0,0.0,0.0,0.0,0.0,0.0,0.0,0.0,0.0,0.0,0.0,0.0,0.0,0.0,0.0,0.0,0.0,0.0,0.0,0.0,0.0,0.0,0.0,0.0,0.0,0.0,0.0,0.0,0.0,0.0,0.0,0.0,0.0,0.0,0.0,0.0,0.0,0.0,0.0,0.0,0.0,0.0,0.0,0.0,0.0,0.0,0.0,0.0,0.0,0.0,0.0,0.0,0.0,0.0,0.0,0.0,0.0,0.0,0.0,0.0,0.0,0.0,0.0,0.0,0.0,0.0,0.0,0.0,0.0,0.0,0.0,0.0,0.0,0.0,0.0,0.0,0.0,0.0,0.0,0.0,0.0,0.0,0.0,0.0,0.0,0.0,0.0,0.0,0.0,0.0,0.0,0.0,0.0,0.0,0.0,0.0,0.0,0.0,0.0,0.0,0.0,0.0,0.0,0.0,0.0,0.0,0.0,0.0,0.0,0.0,0.0,0.0,0.0,0.0,0.0,-1.6477,0.0,0.0,0.0,-1.6196,0.0,0.0,0.0,0.0,0.0,0.0,0.0,0.0,0.0,0.0,0.0,0.0,0.0,0.0,0.0,0.0,0.0,0.0,0.0,0.0,0.0,0.0,0.0,0.0,0.0,0.0,0.0,0.0,0.0,0.0,0.0,0.0,0.0,0.0,0.0,0.0,0.0,0.0,0.0,0.0,0.0,0.0,0.0,0.0,0.0,0.0,0.0,0.0,0.0,0.0,0.0,0.0,0.0,0.0,0.0,0.0,0.0,0.0,0.0,0.0,0.0,0.0,0.0,0.0,0.0,0.0,0.0,0.0,0.0,0.0,0.0,0.0,0.0,0.0,0.0,0.0,0.0,0.0,0.0,0.0,0.0,0.0,0.0,0.0,0.0,0.0,0.0,0.0,0.0,0.0,0.0,0.0,0.0,0.0,0.0,0.0,0.0,0.0,0.0,0.0,0.0,0.0,0.0,0.0,0.0,0.0,0.0,0.0,0.0,0.0,-1.6565,-1.595,-1.6872,-1.6916,-1.5965,0.0,0.0,0.0,0.0,0.0,0.0,0.0,0.0,0.0,0.0,0.0,0.0,0.0,0.0,0.0,0.0,0.0,0.0,0.0,0.0,0.0,0.0,0.0,0.0,0.0,0.0,0.0,0.0,0.0,0.0,0.0,0.0,0.0,0.0,0.0,0.0,0.0,0.0,0.0,0.0,0.0,0.0,0.0,0.0,0.0,0.0,0.0,0.0,0.0,0.0,0.0,0.0,0.0,0.0,0.0,0.0,0.0,0.0,0.0,0.0,0.0,0.0,0.0,0.0,0.0,0.0,0.0,0.0,0.0,0.0,0.0,0.0,0.0,0.0,0.0,0.0,0.0,0.0,0.0,0.0,0.0,0.0,0.0,0.0,0.0,0.0,0.0,0.0,0.0,0.0,0.0,0.0,0.0,0.0,0.0,0.0,0.0,0.0,0.0,0.0,0.0,0.0,0.0,0.0,0.0,0.0,0.0,0.0,0.0,0.0,0.0,0.0,-1.7296,-1.7355,-1.6418,0.0,0.0,0.0,0.0,0.0,0.0,0.0,0.0,0.0,0.0,0.0,0.0,0.0,0.0,0.0,0.0,0.0,0.0,0.0,0.0,0.0,0.0,0.0,0.0,0.0,0.0,0.0,0.0,0.0,0.0,0.0,0.0,0.0,0.0,0.0,0.0,0.0,0.0,0.0,0.0,0.0,0.0,0.0,0.0,0.0,0.0,0.0,0.0,0.0,0.0,0.0,0.0,0.0,0.0,0.0,0.0,0.0,0.0,0.0,0.0,0.0,0.0,0.0,0.0,0.0,0.0,0.0,0.0,0.0,0.0,0.0,0.0,0.0,0.0,0.0,0.0,0.0,0.0,0.0,0.0,0.0,0.0,0.0,0.0,0.0,0.0,0.0,0.0,0.0,0.0,0.0,0.0,0.0,0.0,0.0,0.0,0.0,0.0,0.0,0.0,0.0,0.0,0.0,0.0,0.0,0.0,0.0,0.0,0.0,0.0,-1.6799,-1.7618,-1.775,0.0,-1.7633,0.0,0.0,0.0,0.0,0.0,0.0,0.0,0.0,0.0,0.0,0.0,0.0,0.0,0.0,0.0,0.0,0.0,0.0,0.0,0.0,0.0,0.0,0.0,0.0,0.0,0.0,0.0,0.0,0.0,0.0,0.0,0.0,0.0,0.0,0.0,0.0,0.0,0.0,0.0,0.0,0.0,0.0,0.0,0.0,0.0,0.0,0.0,0.0,0.0,0.0,0.0,0.0,0.0,0.0,0.0,0.0,0.0,0.0,0.0,0.0,0.0,0.0,0.0,0.0,0.0,0.0,0.0,0.0,0.0,0.0,0.0,0.0,0.0,0.0,0.0,0.0,0.0,0.0,0.0,0.0,0.0,0.0,0.0,0.0,0.0,0.0,0.0,0.0,0.0,0.0,0.0,0.0,0.0,0.0,0.0,0.0,0.0,0.0,0.0,0.0,0.0,0.0,0.0,0.0,0.0,0.0,0.0,0.0,0.0,0.0,-1.693,-1.7516,-1.753,-1.7443,0.0,0.0,0.0,0.0,0.0,0.0,0.0,0.0,0.0,0.0,0.0,0.0,0.0,0.0,0.0,0.0,0.0,0.0,0.0,0.0,0.0,0.0,0.0,0.0,0.0,0.0,0.0,0.0,0.0,0.0,0.0,0.0,0.0,0.0,0.0,0.0,0.0,0.0,0.0,0.0,0.0,0.0,0.0,0.0,0.0,0.0,0.0,0.0,0.0,0.0,0.0,0.0,0.0,0.0,0.0,0.0,0.0,0.0,0.0,0.0,0.0,0.0,0.0,0.0,0.0,0.0,0.0,0.0,0.0,0.0,0.0,0.0,0.0,0.0,0.0,0.0,0.0,0.0,0.0,0.0,0.0,0.0,0.0,0.0,0.0,0.0,0.0,0.0,0.0,0.0,0.0,0.0,0.0,0.0,0.0,0.0,0.0,0.0,0.0,0.0,0.0,0.0,0.0,0.0,0.0,0.0,0.0,0.0,0.0,0.0,-1.6813,-1.7399,-1.7955,-1.7735,-1.7443,-1.7135,0.0,0.0,0.0,0.0,0.0,0.0,0.0,0.0,0.0,0.0,0.0,0.0,0.0,0.0,0.0,0.0,0.0,0.0,0.0,0.0,0.0,0.0,0.0,0.0,0.0,0.0,0.0,0.0,0.0,0.0,0.0,0.0,0.0,0.0,0.0,0.0,0.0,0.0,0.0,0.0,0.0,0.0,0.0,0.0,0.0,0.0,0.0,0.0,0.0,0.0,0.0,0.0,0.0,0.0,0.0,0.0,0.0,0.0,0.0,0.0,0.0,0.0,0.0,0.0,0.0,0.0,0.0,0.0,0.0,0.0,0.0,0.0,0.0,0.0,0.0,0.0,0.0,0.0,0.0,0.0,0.0,0.0,0.0,0.0,0.0,0.0,0.0,0.0,0.0,0.0,0.0,0.0,0.0,0.0,0.0,0.0,0.0,0.0,0.0,0.0,0.0,0.0,0.0,0.0,0.0,0.0,0.0,0.0,-1.8028,-1.7882,-1.8364,-1.955,-1.8745,-1.8101,0.0,0.0,0.0,0.0,0.0,0.0,0.0,0.0,0.0,0.0,0.0,0.0,0.0,0.0,0.0,0.0,0.0,0.0,0.0,0.0,0.0,0.0,0.0,0.0,0.0,0.0,0.0,0.0,0.0,0.0,0.0,0.0,0.0,0.0,0.0,0.0,0.0,0.0,0.0,0.0,0.0,0.0,0.0,0.0,0.0,0.0,0.0,0.0,0.0,0.0,0.0,0.0,0.0,0.0,0.0,0.0,0.0,0.0,0.0,0.0,0.0,0.0,0.0,0.0,0.0,0.0,0.0,0.0,0.0,0.0,0.0,0.0,0.0,0.0,0.0,0.0,0.0,0.0,0.0,0.0,0.0,0.0,0.0,0.0,0.0,0.0,0.0,0.0,0.0,0.0,0.0,0.0,0.0,0.0,0.0,0.0,0.0,0.0,0.0,0.0,0.0,0.0,0.0,0.0,0.0,0.0,0.0,0.0,0.0,-1.6462,-1.7135,-1.8218,-1.9638,-1.8408,-1.7823,0.0,0.0,0.0,0.0,0.0,0.0,0.0,0.0,0.0,0.0,0.0,0.0,0.0,0.0,0.0,0.0,0.0,0.0,0.0,0.0,0.0,0.0,0.0,0.0,0.0,0.0,0.0,0.0,0.0,0.0,0.0,0.0,0.0,0.0,0.0,0.0,0.0,0.0,0.0,0.0,0.0,0.0,0.0,0.0,0.0,0.0,0.0,0.0,0.0,0.0,0.0,0.0,0.0,0.0,0.0,0.0,0.0,0.0,0.0,0.0,0.0,0.0,0.0,0.0,0.0,0.0,0.0,0.0,0.0,0.0,0.0,0.0,0.0,0.0,0.0,0.0,0.0,0.0,0.0,0.0,0.0,0.0,0.0,0.0,0.0,0.0,0.0,0.0,0.0,0.0,0.0,0.0,0.0,0.0,0.0,0.0,0.0,0.0,0.0,0.0,0.0,0.0,0.0,0.0,0.0,0.0,0.0,0.0,0.0,-1.6828,-1.7984,-1.9023,-1.9813,-1.8642,-1.7925,0.0,0.0,0.0,0.0,0.0,0.0,0.0,0.0,0.0,0.0,0.0,0.0,0.0,0.0,0.0,0.0,0.0,0.0,0.0,0.0,0.0,0.0,0.0,0.0,0.0,0.0,0.0,0.0,0.0,0.0,0.0,0.0,0.0,0.0,0.0,0.0,0.0,0.0,0.0,0.0,0.0,0.0,0.0,0.0,0.0,0.0,0.0,0.0,0.0,0.0,0.0,0.0,0.0,0.0,0.0,0.0,0.0,0.0,0.0,0.0,0.0,0.0,0.0,0.0,0.0,0.0,0.0,0.0,0.0,0.0,0.0,0.0,0.0,0.0,0.0,0.0,0.0,0.0,0.0,0.0,0.0,0.0,0.0,0.0,0.0,0.0,0.0,0.0,0.0,0.0,0.0,0.0,0.0,0.0,0.0,0.0,0.0,0.0,0.0,0.0,0.0,0.0,0.0,0.0,0.0,0.0,0.0,0.0,-1.7194,-1.9579,-2.0574,-2.0735,-2.0252,-1.955,-1.8496,0.0,0.0,0.0,0.0,0.0,0.0,0.0,0.0,0.0,0.0,0.0,0.0,0.0,0.0,0.0,0.0,0.0,0.0,0.0,0.0,0.0,0.0,0.0,0.0,0.0,0.0,0.0,0.0,0.0,0.0,0.0,0.0,0.0,0.0,0.0,0.0,0.0,0.0,0.0,0.0,0.0,0.0,0.0,0.0,0.0,0.0,0.0,0.0,0.0,0.0,0.0,0.0,0.0,0.0,0.0,0.0,0.0,0.0,0.0,0.0,0.0,0.0,0.0,0.0,0.0,0.0,0.0,0.0,0.0,0.0,0.0,0.0,0.0,0.0,0.0,0.0,0.0,0.0,0.0,0.0,0.0,0.0,0.0,0.0,0.0,0.0,0.0,0.0,0.0,0.0,0.0,0.0,0.0,0.0,0.0,0.0,0.0,0.0,0.0,0.0,0.0,0.0,0.0,0.0,0.0,0.0,0.0,0.0,0.0,-1.8438,-1.9594,-2.0325,-2.0516,-1.9286,-1.8686,0.0,0.0,0.0,0.0,0.0,0.0,0.0,0.0,0.0,0.0,0.0,0.0,0.0,0.0,0.0,0.0,0.0,0.0,0.0,0.0,0.0,0.0,0.0,0.0,0.0,0.0,0.0,0.0,0.0,0.0,0.0,0.0,0.0,0.0,0.0,0.0,0.0,0.0,0.0,0.0,0.0,0.0,0.0,0.0,0.0,0.0,0.0,0.0,0.0,0.0,0.0,0.0,0.0,0.0,0.0,0.0,0.0,0.0,0.0,0.0,0.0,0.0,0.0,0.0,0.0,0.0,0.0,0.0,0.0,0.0,0.0,0.0,0.0,0.0,0.0,0.0,0.0,0.0,0.0,0.0,0.0,0.0,0.0,0.0,0.0,0.0,0.0,0.0,0.0,0.0,0.0,0.0,0.0,0.0,0.0,0.0,0.0,0.0,0.0,0.0,0.0,0.0,0.0,0.0,0.0,0.0,0.0,0.0,0.0,-2.0428,-2.1481,-2.2169,-2.233,-2.0881,-1.9872,-1.9389,0.0,0.0,0.0,0.0,0.0,0.0,0.0,0.0,0.0,0.0,0.0,0.0,0.0,0.0,0.0,0.0,0.0,0.0,0.0,0.0,0.0,0.0,0.0,0.0,0.0,0.0,0.0,0.0,0.0,0.0,0.0,0.0,0.0,0.0,0.0,0.0,0.0,0.0,0.0,0.0,0.0,0.0,0.0,0.0,0.0,0.0,0.0,0.0,0.0,0.0,0.0,0.0,0.0,0.0,0.0,0.0,0.0,0.0,0.0,0.0,0.0,0.0,0.0,0.0,0.0,0.0,0.0,0.0,0.0,0.0,0.0,0.0,0.0,0.0,0.0,0.0,0.0,0.0,0.0,0.0,0.0,0.0,0.0,0.0,0.0,0.0,0.0,0.0,0.0,0.0,0.0,0.0,0.0,0.0,0.0,0.0,0.0,0.0,0.0,0.0,0.0,0.0,0.0,0.0,0.0,0.0,0.0,0.0,-2.4818,-2.5798,-2.5959,-2.5227,-2.3837,-2.1847,0.0,0.0,0.0,0.0,0.0,0.0,0.0,0.0,0.0,0.0,0.0,0.0,0.0,0.0,0.0,0.0,0.0,0.0,0.0,0.0,0.0,0.0,0.0,0.0,0.0,0.0,0.0,0.0,0.0,0.0,0.0,0.0,0.0,0.0,0.0,0.0,0.0,0.0,0.0,0.0,0.0,0.0,0.0,0.0,0.0,0.0,0.0,0.0,0.0,0.0,0.0,0.0,0.0,0.0,0.0,0.0,0.0,0.0,0.0,0.0,0.0,0.0,0.0,0.0,0.0,0.0,0.0,0.0,0.0,0.0,0.0,0.0,0.0,0.0,0.0,0.0,0.0,0.0,0.0,0.0,0.0,0.0,0.0,0.0,0.0,0.0,0.0,0.0,0.0,0.0,0.0,0.0,0.0,0.0,0.0,0.0,0.0,0.0,0.0,0.0,0.0,0.0,0.0,0.0,0.0,0.0,0.0,0.0,0.0,-2.7686,-2.9178,-2.9164,-2.7569,-2.4905,-2.3003,0.0,0.0,0.0,0.0,0.0,0.0,0.0,0.0,0.0,0.0,0.0,0.0,0.0,0.0,0.0,0.0,0.0,0.0,0.0,0.0,0.0,0.0,0.0,0.0,0.0,0.0,0.0,0.0,0.0,0.0,0.0,0.0,0.0,0.0,0.0,0.0,0.0,0.0,0.0,0.0,0.0,0.0,0.0,0.0,0.0,0.0,0.0,0.0,0.0,0.0,0.0,0.0,0.0,0.0,0.0,0.0,0.0,0.0,0.0,0.0,0.0,0.0,0.0,0.0,0.0,0.0,0.0,0.0,0.0,0.0,0.0,0.0,0.0,0.0,0.0,0.0,0.0,0.0,0.0,0.0,0.0,0.0,0.0,0.0,0.0,0.0,0.0,0.0,0.0,0.0,0.0,0.0,0.0,0.0,0.0,0.0,0.0,0.0,0.0,0.0,0.0,0.0,0.0,0.0,0.0,0.0,0.0,0.0,-2.6896,-2.9471,-3.1739,-3.2339,-3.1095,-2.7276,-2.4481,0.0,0.0,0.0,0.0,0.0,0.0,0.0,0.0,0.0,0.0,0.0,0.0,0.0,0.0,0.0,0.0,0.0,0.0,0.0,0.0,0.0,0.0,0.0,0.0,0.0,0.0,0.0,0.0,0.0,0.0,0.0,0.0,0.0,0.0,0.0,0.0,0.0,0.0,0.0,0.0,0.0,0.0,0.0,0.0,0.0,0.0,0.0,0.0,0.0,0.0,0.0,0.0,0.0,0.0,0.0,0.0,0.0,0.0,0.0,0.0,0.0,0.0,0.0,0.0,0.0,0.0,0.0,0.0,0.0,0.0,0.0,0.0,0.0,0.0,0.0,0.0,0.0,0.0,0.0,0.0,0.0,0.0,0.0,0.0,0.0,0.0,0.0,0.0,0.0,0.0,0.0,0.0,0.0,0.0,0.0,0.0,0.0,0.0,0.0,0.0,0.0,0.0,0.0,0.0,0.0,0.0,0.0,0.0,-2.9222,-3.0744,-3.3597,-3.4958,-3.4534,-3.0056,-2.6149,0.0,0.0,0.0,0.0,0.0,0.0,0.0,0.0,0.0,0.0,0.0,0.0,0.0,0.0,0.0,0.0,0.0,0.0,0.0,0.0,0.0,0.0,0.0,0.0,0.0,0.0,0.0,0.0,0.0,0.0,0.0,0.0,0.0,0.0,0.0,0.0,0.0,0.0,0.0,0.0,0.0,0.0,0.0,0.0,0.0,0.0,0.0,0.0,0.0,0.0,0.0,0.0,0.0,0.0,0.0,0.0,0.0,0.0,0.0,0.0,0.0,0.0,0.0,0.0,0.0,0.0,0.0,0.0,0.0,0.0,0.0,0.0,0.0,0.0,0.0,0.0,0.0,0.0,0.0,0.0,0.0,0.0,0.0,0.0,0.0,0.0,0.0,0.0,0.0,0.0,0.0,0.0,0.0,0.0,0.0,0.0,0.0,0.0,0.0,0.0,0.0,0.0,0.0,0.0,0.0,0.0,0.0,0.0,-3.029,-3.3319,-3.4314,-3.4651,-3.4314,-3.0364,-2.7437,0.0,0.0,0.0,0.0,0.0,0.0,0.0,0.0,0.0,0.0,0.0,0.0,0.0,0.0,0.0,0.0,0.0,0.0,0.0,0.0,0.0,0.0,0.0,0.0,0.0,0.0,0.0,0.0,0.0,0.0,0.0,0.0,0.0,0.0,0.0,0.0,0.0,0.0,0.0,0.0,0.0,0.0,0.0,0.0,0.0,0.0,0.0,0.0,-2.3389,0.0,0.0,0.0,0.0,0.0,0.0,0.0,0.0,0.0,0.0,0.0,0.0,0.0,0.0,0.0,0.0,0.0,0.0,0.0,0.0,0.0,0.0,0.0,0.0,0.0,0.0,0.0,0.0,0.0,0.0,0.0,0.0,0.0,0.0,0.0,0.0,0.0,0.0,0.0,0.0,0.0,0.0,0.0,0.0,0.0,0.0,0.0,0.0,0.0,0.0,0.0,0.0,0.0,0.0,0.0,0.0,0.0,0.0,0.0,-3.1007,-3.3905,-3.5046,-3.5236,-3.4402,-3.1856,-2.9222,0.0,0.0,0.0,0.0,0.0,0.0,0.0,0.0,0.0,0.0,0.0,0.0,0.0,0.0,0.0,0.0,0.0,0.0,0.0,0.0,0.0,0.0,0.0,0.0,0.0,0.0,0.0,0.0,0.0,0.0,0.0,0.0,0.0,0.0,0.0,0.0,0.0,0.0,0.0,0.0,0.0,0.0,0.0,0.0,0.0,0.0,0.0,0.0,0.0,0.0,0.0,0.0,0.0,0.0,0.0,0.0,0.0,0.0,0.0,0.0,0.0,0.0,0.0,0.0,0.0,0.0,0.0,0.0,0.0,0.0,0.0,0.0,0.0,0.0,0.0,0.0,0.0,0.0,0.0,0.0,0.0,0.0,0.0,0.0,0.0,0.0,0.0,0.0,0.0,0.0,0.0,0.0,0.0,0.0,0.0,0.0,0.0,0.0,0.0,0.0,0.0,0.0,0.0,0.0,0.0,0.0,0.0,-2.8842,-3.1695,-3.4519,-3.5924,-3.6114,-3.509,-3.3524,-3.0846,-2.6954,0.0,0.0,0.0,0.0,0.0,0.0,0.0,0.0,0.0,0.0,0.0,0.0,0.0,0.0,0.0,0.0,0.0,0.0,0.0,0.0,0.0,0.0,0.0,0.0,0.0,0.0,0.0,0.0,0.0,0.0,0.0,0.0,0.0,0.0,0.0,0.0,0.0,0.0,-2.1532,-2.197,0.0,0.0,0.0,0.0,0.0,0.0,0.0,0.0,-2.2355,0.0,0.0,0.0,0.0,0.0,0.0,0.0,0.0,0.0,0.0,0.0,0.0,0.0,0.0,0.0,0.0,0.0,0.0,0.0,0.0,0.0,0.0,0.0,0.0,0.0,0.0,0.0,0.0,0.0,0.0,0.0,0.0,0.0,0.0,0.0,0.0,0.0,0.0,0.0,0.0,0.0,0.0,0.0,0.0,0.0,0.0,0.0,0.0,0.0,0.0,0.0,0.0,0.0,0.0,0.0,0.0,-3.0173,-3.0056,-3.2734,-3.8368,-3.727,-3.6641,-3.6612,-3.3875,-3.1022,-2.8198,0.0,0.0,0.0,0.0,0.0,0.0,0.0,0.0,0.0,0.0,0.0,0.0,0.0,0.0,0.0,0.0,0.0,0.0,0.0,0.0,0.0,0.0,0.0,0.0,0.0,0.0,0.0,0.0,0.0,0.0,0.0,0.0,0.0,0.0,0.0,0.0,0.0,0.0,0.0,-2.3119,-2.3178,0.0,0.0,0.0,0.0,0.0,0.0,0.0,0.0,-2.2349,0.0,0.0,0.0,0.0,0.0,0.0,0.0,0.0,0.0,0.0,0.0,0.0,0.0,0.0,0.0,0.0,0.0,0.0,0.0,0.0,0.0,0.0,0.0,0.0,0.0,0.0,0.0,0.0,0.0,0.0,0.0,0.0,0.0,0.0,0.0,0.0,0.0,0.0,0.0,0.0,0.0,0.0,0.0,0.0,0.0,0.0,0.0,0.0,0.0,0.0,0.0,0.0,0.0,0.0,0.0,-3.0115,-3.2471,-3.5368,-3.8851,-3.8426,-3.7709,-3.6831,-3.4856,-3.2105,0.0,0.0,0.0,0.0,0.0,0.0,0.0,0.0,0.0,0.0,0.0,0.0,0.0,0.0,0.0,0.0,0.0,0.0,0.0,0.0,0.0,0.0,0.0,0.0,0.0,0.0,0.0,0.0,0.0,0.0,0.0,0.0,0.0,0.0,0.0,0.0,0.0,0.0,0.0,0.0,-2.3808,-2.4549,-2.6118,0.0,0.0,0.0,0.0,0.0,0.0,-2.3179,-2.2476,0.0,0.0,0.0,0.0,0.0,0.0,0.0,0.0,0.0,0.0,0.0,0.0,0.0,0.0,0.0,0.0,0.0,0.0,0.0,0.0,0.0,0.0,0.0,0.0,0.0,0.0,0.0,0.0,0.0,0.0,0.0,0.0,0.0,0.0,0.0,0.0,0.0,0.0,0.0,0.0,0.0,0.0,0.0,0.0,0.0,0.0,0.0,0.0,0.0,0.0,0.0,0.0,0.0,0.0,0.0,-2.9603,-3.4212,-3.7373,-3.8851,-3.9187,-3.8631,-3.7212,-3.5588,-3.2822,0.0,0.0,0.0,0.0,0.0,0.0,0.0,0.0,0.0,0.0,0.0,0.0,0.0,0.0,0.0,0.0,0.0,0.0,0.0,0.0,0.0,0.0,0.0,0.0,0.0,0.0,0.0,0.0,0.0,0.0,0.0,0.0,0.0,0.0,0.0,0.0,0.0,0.0,0.0,0.0,0.0,-2.5646,-2.7173,-2.5374,0.0,0.0,0.0,0.0,-2.4715,-2.4218,0.0,0.0,0.0,0.0,0.0,0.0,0.0,0.0,0.0,0.0,0.0,0.0,0.0,0.0,0.0,0.0,0.0,0.0,0.0,0.0,0.0,0.0,0.0,0.0,0.0,0.0,0.0,0.0,0.0,0.0,0.0,0.0,0.0,0.0,0.0,0.0,0.0,0.0,0.0,0.0,0.0,0.0,0.0,0.0,0.0,0.0,0.0,0.0,0.0,0.0,0.0,0.0,0.0,0.0,0.0,0.0,-3.0159,-3.3363,-3.67,-4.0007,-3.9202,-3.8821,-3.9099,-3.5207,-3.2002,0.0,0.0,0.0,0.0,0.0,0.0,0.0,0.0,0.0,0.0,0.0,0.0,0.0,0.0,0.0,0.0,0.0,0.0,0.0,0.0,0.0,0.0,0.0,0.0,0.0,0.0,0.0,0.0,0.0,0.0,0.0,0.0,0.0,0.0,0.0,0.0,0.0,0.0,0.0,0.0,0.0,-2.554,-2.6852,-2.5813,-2.4876,0.0,0.0,-2.672,-2.7393,-2.833,0.0,0.0,0.0,0.0,0.0,0.0,0.0,0.0,0.0,0.0,0.0,0.0,0.0,0.0,0.0,0.0,0.0,0.0,0.0,0.0,0.0,0.0,0.0,0.0,0.0,0.0,0.0,0.0,0.0,0.0,0.0,0.0,0.0,0.0,0.0,0.0,0.0,0.0,0.0,0.0,0.0,0.0,0.0,0.0,0.0,0.0,0.0,0.0,0.0,0.0,0.0,0.0,0.0,0.0,0.0,-2.7832,-3.0407,-3.5383,-3.8704,-4.0124,-3.9656,-3.9231,-3.8953,-3.5646,-3.2529,0.0,0.0,0.0,0.0,0.0,0.0,0.0,0.0,0.0,0.0,0.0,0.0,0.0,0.0,0.0,0.0,0.0,0.0,0.0,0.0,0.0,0.0,0.0,0.0,0.0,0.0,0.0,0.0,0.0,0.0,0.0,0.0,0.0,0.0,0.0,0.0,0.0,0.0,0.0,0.0,0.0,0.0,-2.7627,-2.6866,0.0,0.0,0.0,-2.7437,-2.7174,0.0,0.0,0.0,0.0,0.0,0.0,0.0,0.0,0.0,0.0,0.0,0.0,0.0,0.0,0.0,0.0,0.0,0.0,0.0,0.0,0.0,0.0,0.0,0.0,0.0,0.0,0.0,0.0,0.0,0.0,0.0,0.0,0.0,0.0,0.0,0.0,0.0,0.0,0.0,0.0,0.0,0.0,0.0,0.0,0.0,0.0,0.0,0.0,0.0,0.0,0.0,0.0,0.0,0.0,0.0,0.0,0.0,-3.0671,-3.7109,-4.0358,-4.0124,-4.0036,-3.9685,-3.9012,-3.6539,0.0,0.0,0.0,0.0,0.0,0.0,0.0,0.0,0.0,0.0,0.0,0.0,0.0,0.0,0.0,0.0,0.0,0.0,0.0,0.0,0.0,0.0,0.0,0.0,0.0,0.0,0.0,-1.6799,0.0,0.0,0.0,0.0,0.0,0.0,0.0,0.0,0.0,0.0,0.0,0.0,0.0,0.0,-2.691,-2.8359,-2.7934,-2.8008,0.0,0.0,-2.8315,-2.8008,-2.9632,-2.9895,0.0,0.0,0.0,0.0,0.0,0.0,0.0,0.0,0.0,0.0,0.0,0.0,0.0,0.0,0.0,0.0,0.0,0.0,0.0,0.0,0.0,0.0,0.0,0.0,0.0,0.0,0.0,0.0,0.0,0.0,0.0,0.0,0.0,0.0,0.0,0.0,0.0,0.0,0.0,0.0,0.0,0.0,0.0,0.0,0.0,0.0,0.0,0.0,0.0,0.0,0.0,0.0,0.0,0.0,0.0,-3.1402,-3.7344,-4.0475,-4.0446,-4.0153,-4.0109,-4.0299,-3.7841,-3.4812,0.0,0.0,0.0,0.0,0.0,0.0,0.0,0.0,0.0,0.0,0.0,0.0,0.0,0.0,0.0,0.0,0.0,0.0,0.0,0.0,0.0,0.0,0.0,0.0,0.0,0.0,0.0,0.0,0.0,0.0,0.0,0.0,0.0,0.0,0.0,0.0,0.0,0.0,0.0,0.0,0.0,-2.6735,-2.8593,-2.8827,-2.9573,0.0,0.0,-3.0232,-3.1651,-3.2997,-3.2339,-2.7686,0.0,0.0,0.0,0.0,0.0,0.0,0.0,0.0,0.0,0.0,0.0,0.0,0.0,0.0,0.0,0.0,0.0,0.0,0.0,0.0,0.0,0.0,0.0,0.0,0.0,0.0,0.0,0.0,0.0,0.0,0.0,0.0,0.0,0.0,0.0,0.0,0.0,0.0,0.0,0.0,0.0,0.0,0.0,0.0,0.0,0.0,0.0,0.0,0.0,0.0,0.0,0.0,0.0,-3.0012,-3.1359,-3.7358,-4.0475,-4.0475,-4.0168,-4.0065,-4.0182,-3.8251,-3.5631,0.0,0.0,0.0,0.0,0.0,0.0,0.0,0.0,0.0,0.0,0.0,0.0,0.0,0.0,0.0,0.0,0.0,0.0,0.0,0.0,0.0,0.0,0.0,0.0,0.0,0.0,0.0,0.0,-2.2491,-2.2579,-2.1013,0.0,0.0,0.0,0.0,0.0,0.0,0.0,0.0,0.0,0.0,-2.8139,-2.9837,-2.9925,0.0,0.0,-3.1593,-3.1198,-3.1622,-3.209,-3.1461,-2.8608,-2.751,0.0,0.0,0.0,0.0,0.0,0.0,0.0,0.0,0.0,0.0,0.0,0.0,0.0,0.0,0.0,0.0,0.0,0.0,0.0,0.0,0.0,0.0,0.0,0.0,0.0,0.0,0.0,0.0,0.0,0.0,0.0,0.0,0.0,0.0,0.0,0.0,0.0,0.0,0.0,0.0,0.0,0.0,0.0,0.0,0.0,0.0,0.0,0.0,0.0,0.0,0.0,0.0,-3.0261,-3.1461,-3.7417,-4.0475,-4.0475,-4.027,-4.0138,-4.0109,-3.8851,-3.6729,0.0,0.0,0.0,0.0,0.0,0.0,0.0,0.0,0.0,0.0,0.0,0.0,0.0,0.0,0.0,0.0,0.0,0.0,0.0,0.0,0.0,0.0,0.0,0.0,0.0,0.0,0.0,0.0,-2.3471,-2.3164,-2.1262,0.0,0.0,0.0,0.0,0.0,0.0,0.0,0.0,0.0,0.0,-2.9837,-3.0949,-3.0759,-3.092,-3.2105,-3.1681,-3.1242,-3.13,-3.1388,-3.0905,-2.9295,0.0,0.0,0.0,0.0,0.0,0.0,0.0,0.0,0.0,0.0,0.0,0.0,0.0,0.0,0.0,0.0,0.0,0.0,0.0,0.0,0.0,0.0,0.0,0.0,0.0,0.0,0.0,0.0,0.0,0.0,-1.7355,0.0,0.0,0.0,0.0,0.0,0.0,0.0,0.0,0.0,0.0,0.0,0.0,0.0,0.0,0.0,0.0,0.0,0.0,0.0,0.0,0.0,0.0,-3.0803,-3.1827,-3.7504,-4.0475,-4.046,-4.0475,-4.0446,-4.0431,-3.9816,-3.8236,-3.5588,0.0,0.0,0.0,0.0,0.0,0.0,0.0,0.0,0.0,0.0,0.0,0.0,0.0,0.0,0.0,0.0,0.0,0.0,0.0,0.0,0.0,0.0,0.0,0.0,0.0,0.0,-1.9316,-2.0384,-2.1203,0.0,0.0,0.0,0.0,0.0,0.0,0.0,0.0,0.0,0.0,-2.969,-3.1724,-3.1754,-3.1227,-3.1198,-3.2178,-3.0978,-3.0276,-3.1212,-3.1563,-3.1227,0.0,0.0,0.0,0.0,0.0,0.0,0.0,0.0,0.0,0.0,0.0,0.0,0.0,0.0,0.0,0.0,0.0,0.0,0.0,0.0,0.0,0.0,0.0,0.0,0.0,0.0,0.0,-1.9528,-1.8793,0.0,0.0,0.0,0.0,0.0,0.0,0.0,0.0,0.0,0.0,0.0,-2.89,-2.9676,0.0,0.0,0.0,0.0,0.0,0.0,0.0,0.0,0.0,0.0,0.0,0.0,-3.0832,-3.1988,-3.7109,-3.9831,-3.9846,-3.9846,-3.9846,-3.9846,-3.9626,-3.809,-3.5105,0.0,0.0,0.0,0.0,0.0,0.0,0.0,0.0,0.0,0.0,0.0,0.0,0.0,0.0,0.0,0.0,0.0,0.0,0.0,0.0,0.0,0.0,0.0,0.0,0.0,-2.2052,0.0,0.0,0.0,0.0,0.0,0.0,0.0,0.0,0.0,0.0,0.0,-2.7817,-2.8769,-3.0203,-3.1388,-3.2032,-3.1944,-3.2134,0.0,0.0,0.0,0.0,0.0,0.0,0.0,0.0,0.0,0.0,0.0,0.0,0.0,0.0,-2.8842,-2.5637,-2.5227,-2.5374,-2.5374,0.0,0.0,0.0,0.0,0.0,0.0,0.0,0.0,0.0,0.0,0.0,0.0,0.0,0.0,-2.258,0.0,-2.1558,0.0,0.0,0.0,0.0,0.0,0.0,0.0,0.0,-2.969,-3.1256,-3.2354,-3.2997,-3.2807,0.0,-3.1212,-2.9032,0.0,0.0,0.0,0.0,0.0,0.0,0.0,0.0,-3.1154,-3.2602,-3.7109,-3.9509,-3.9509,-3.9509,-3.9509,-3.9509,-3.9407,-3.8295,-3.61,-3.3949,-3.1929,0.0,0.0,0.0,0.0,0.0,0.0,0.0,0.0,0.0,0.0,0.0,0.0,0.0,0.0,0.0,0.0,0.0,0.0,0.0,0.0,0.0,0.0,0.0,-2.331,0.0,0.0,0.0,0.0,0.0,0.0,0.0,0.0,0.0,-2.5476,-2.8066,-3.0217,-3.0949,-3.1783,-3.2339,-3.228,0.0,0.0,0.0,0.0,0.0,0.0,0.0,-3.0056,-3.0481,-2.972,-2.9237,-2.9837,-3.0817,-3.1446,-3.1212,0.0,0.0,-2.8842,-2.8447,-2.8666,-2.8666,-2.9339,-2.9851,-2.9647,-3.0129,-3.0568,0.0,0.0,0.0,0.0,0.0,0.0,0.0,0.0,-2.6635,-2.6416,0.0,-2.4795,0.0,0.0,0.0,0.0,0.0,-2.7583,0.0,0.0,-3.4812,-3.61,-3.5353,-3.5353,-3.5485,-3.5661,-3.4475,-3.3217,-3.1827,-2.9134,0.0,0.0,0.0,0.0,0.0,0.0,-3.1841,-3.3788,-3.7519,-3.948,-3.9465,-3.9465,-3.948,-3.9465,-3.9173,-3.8836,-3.8456,-3.6129,-3.4475,-3.3685,-2.8988,0.0,0.0,0.0,0.0,0.0,0.0,0.0,0.0,0.0,0.0,0.0,0.0,0.0,0.0,0.0,0.0,0.0,0.0,0.0,0.0,-2.3779,0.0,0.0,0.0,0.0,0.0,0.0,0.0,0.0,0.0,0.0,-2.83,-3.0788,-3.2866,-3.3115,0.0,0.0,0.0,0.0,-3.2441,-3.1578,-3.0876,-3.0525,-3.0568,-3.1256,-3.2017,-3.269,0.0,0.0,-3.3027,-3.3349,-3.3378,-3.2178,-3.3495,-3.4446,-3.3436,-3.2456,-3.1929,-3.1915,-3.1973,-3.1959,-3.2032,-3.2924,-3.3715,-2.9833,0.0,0.0,0.0,0.0,-2.6656,-2.7257,-2.8332,-2.8887,-2.856,-2.7867,-2.7663,0.0,0.0,0.0,0.0,0.0,0.0,-3.1417,-3.4051,-3.5119,-3.6524,-3.8265,-3.8514,-3.8426,-3.8046,-3.768,-3.6963,-3.5895,-3.4622,-3.0978,-2.5242,0.0,0.0,0.0,0.0,-3.3173,-3.4519,-3.7329,-3.8821,-3.8821,-3.8821,-3.8821,-3.8821,-3.8719,-3.8631,-3.8529,-3.7826,-3.6392,-3.4168,-3.2456,0.0,0.0,0.0,0.0,0.0,0.0,0.0,0.0,0.0,0.0,0.0,0.0,0.0,0.0,0.0,0.0,0.0,0.0,0.0,-2.3735,-2.5637,-2.5959,0.0,0.0,0.0,0.0,0.0,0.0,0.0,0.0,0.0,-3.2602,-3.2544,-3.2368,0.0,0.0,-3.2485,-3.1695,-3.2266,-3.2837,-3.3012,-3.288,0.0,-3.3393,-3.291,-3.2793,-3.3656,-3.449,-3.4827,-3.4256,-3.468,-3.4973,-3.4578,-3.5178,-3.5617,-3.5368,-3.509,-3.4871,-3.4885,-3.5061,-3.5222,-3.5266,-3.5558,-3.5763,-3.3146,-3.0314,-2.9272,-2.9005,-2.9259,-2.9447,-3.0294,-3.149,-3.1867,-3.1813,-3.1101,-3.0684,-3.0001,-2.9111,-2.8987,0.0,0.0,0.0,-3.3671,-3.6495,-3.6495,-3.7504,-3.926,-3.9524,-3.9553,-3.9407,-3.9143,-3.8719,-3.8134,-3.7241,-3.4095,-2.8959,0.0,0.0,-2.89,-3.2017,-3.4241,-3.5485,-3.749,-3.8543,-3.8543,-3.8543,-3.8543,-3.8543,-3.8543,-3.8543,-3.8543,-3.8543,-3.768,-3.5822,-3.4578,-3.269,0.0,0.0,0.0,0.0,0.0,0.0,0.0,0.0,0.0,0.0,0.0,-2.1628,-1.9725,0.0,0.0,0.0,-2.4862,-2.5886,-2.6866,-2.7891,0.0,0.0,0.0,0.0,0.0,0.0,0.0,-2.9471,-3.1783,-3.37,-3.4724,-3.4373,-3.4007,-3.408,-3.3641,-3.3202,-3.288,0.0,-3.4197,-3.4461,-3.449,-3.4636,-3.5002,-3.4636,-3.4578,-3.5412,-3.5851,-3.6056,-3.5895,-3.6173,-3.6392,-3.6436,-3.6568,-3.67,-3.67,-3.67,-3.6597,-3.6363,-3.6466,-3.6597,-3.6612,-3.6612,-3.6612,-3.5204,-3.4977,-3.2559,-3.169,-3.1944,-3.1944,-3.3187,-3.5164,-3.5177,-3.5204,-3.5084,-3.3761,-3.3097,-3.2572,-3.1268,0.0,-3.5017,-3.5002,-3.6261,-3.8529,-3.8558,-3.8734,-3.9026,-3.9085,-3.9421,-3.9977,-3.9392,-3.9099,-3.9041,-3.7826,-3.6129,-3.4066,-3.3393,-3.2822,-3.2427,-3.3641,-3.509,-3.6626,-3.7826,-3.8485,-3.8543,-3.8543,-3.8543,-3.8543,-3.8543,-3.8543,-3.8543,-3.8543,-3.8368,-3.7973,-3.5749,-3.4022,-3.2954,0.0,0.0,0.0,0.0,0.0,0.0,0.0,0.0,0.0,0.0,0.0,0.0,0.0,0.0,0.0,-2.8886,0.0,-3.1388,-3.0378,0.0,0.0,0.0,-2.8754,-3.01,-3.1593,-3.2632,-3.2968,0.0,0.0,-3.55,-3.6217,-3.7022,-3.7724,-3.6583,-3.5558,-3.5207,-3.5646,-3.6041,-3.5719,-3.5763,-3.5807,-3.588,-3.6217,-3.6685,-3.7256,-3.7578,-3.7475,-3.7461,-3.749,-3.7548,-3.749,-3.7563,-3.7548,-3.7563,-3.7504,-3.7402,-3.6802,-3.67,-3.67,-3.6729,-3.6744,-3.6744,-3.5204,-3.5137,-3.4509,-3.4295,-3.4349,-3.4362,-3.4683,-3.5191,-3.5204,-3.5204,-3.5164,-3.5247,-3.5789,-3.6357,-3.5977,-3.6435,-3.7622,-3.7622,-3.7943,-3.8543,-3.8792,-3.8953,-3.9041,-3.9524,-3.9846,-3.9977,-3.9846,-3.9773,-3.9714,-3.8704,-3.768,-3.667,-3.6012,-3.468,-3.2807,-3.4417,-3.5851,-3.6963,-3.7519,-3.8046,-3.8514,-3.8543,-3.8543,-3.8543,-3.8543,-3.8543,-3.8543,-3.8543,-3.828,-3.7724,-3.7109,-3.6114,-3.4651,-3.1081,0.0,0.0,0.0,0.0,0.0,0.0,0.0,0.0,0.0,-2.5403,-2.2725,0.0,-2.6003,0.0,-3.1798,-3.3349,-3.2837,-3.25,0.0,0.0,-3.1227,-3.1315,-3.3319,-3.4095,-3.4607,-3.4914,-3.6451,-3.7651,-3.8061,-3.809,-3.8514,-3.9568,-3.7592,-3.5792,-3.528,-3.5924,-3.6466,-3.6451,-3.6802,-3.7109,-3.7095,-3.7241,-3.7402,-3.7548,-3.7578,-3.7578,-3.7578,-3.7578,-3.7578,-3.7578,-3.7578,-3.7578,-3.7592,-3.7578,-3.7534,-3.7373,-3.7344,-3.7344,-3.7344,-3.7329,-3.7344,-3.5311,-3.5204,-3.5204,-3.4977,-3.4643,-3.503,-3.5204,-3.5204,-3.5204,-3.5204,-3.5191,-3.5836,-3.6663,-3.7695,-3.7695,-3.7904,-3.8543,-3.8543,-3.8617,-3.8763,-3.8939,-3.9173,-3.9465,-3.9831,-4.008,-4.0212,-4.0212,-4.0138,-3.9977,-3.9451,-3.8792,-3.8002,-3.7636,-3.6539,-3.4797,-3.547,-3.6056,-3.6451,-3.7329,-3.8178,-3.8939,-3.8968,-3.8631,-3.7929,-3.8324,-3.8192,-3.749,-3.7739,-3.7461,-3.6568,-3.6378,-3.5778,-3.4578,-3.2354,-3.0993,0.0,0.0,0.0,0.0,0.0,0.0,0.0,0.0,0.0,0.0,0.0,-2.852,-3.0159,-3.3232,-3.4607,-3.3363,-3.3641,-3.4095,-3.4636,-3.4212,-3.4666,-3.6626,-3.6992,-3.7226,-3.7548,-3.8631,-3.9495,-3.9846,-3.9977,-4.0109,-4.046,-3.9085,-3.7768,-3.708,-3.7358,-3.7636,-3.7504,-3.7768,-3.8002,-3.8002,-3.8002,-3.8002,-3.8002,-3.8002,-3.8002,-3.8002,-3.8002,-3.8002,-3.8002,-3.8002,-3.8002,-3.8017,-3.8017,-3.8002,-3.8002,-3.8002,-3.79,-3.7636,-3.7578,-3.7578,-3.5418,-3.5204,-3.5204,-3.475,-3.4108,-3.487,-3.507,-3.4857,-3.4897,-3.4977,-3.5294,-3.5795,-3.6663,-3.7695,-3.7738,-3.817,-3.8602,-3.8646,-3.8821,-3.9085,-3.9129,-3.9451,-3.9992,-4.0036,-4.0212,-4.0475,-4.0475,-4.0343,-4.0065,-4.0021,-3.9524,-3.8631,-3.8514,-3.7987,-3.7051,-3.6509,-3.6129,-3.5909,-3.7285,-3.8412,-3.9231,-3.9187,-3.847,-3.7153,-3.7929,-3.7753,-3.6392,-3.6846,-3.6626,-3.5514,-3.5119,-3.4695,-3.4124,-3.3554,-3.2763,0.0,-3.1124,0.0,0.0,0.0,0.0,0.0,0.0,0.0,0.0,-3.1388,-3.1695,-3.1285,-3.4007,-3.5251,-3.3978,-3.4666,-3.5763,-3.7153,-3.7373,-3.7973,-3.9363,-3.9612,-3.9758,-4.008,-4.0694,-4.109,-4.1016,-4.1543,-4.1543,-4.0738,-4.046,-3.9934,-3.9231,-3.8939,-3.8792,-3.8587,-3.8543,-3.8456,-3.8485,-3.85,-3.85,-3.8514,-3.85,-3.8543,-3.85,-3.8514,-3.8529,-3.8514,-3.85,-3.8514,-3.8543,-3.8514,-3.8529,-3.85,-3.8485,-3.8324,-3.7885,-3.7753,-3.7913,-3.5244,-3.5204,-3.5204,-3.5097,-3.4963,-3.5124,-3.4376,-3.3066,-3.3293,-3.399,-3.5102,-3.6218,-3.7068,-3.7724,-3.8387,-3.8728,-3.8953,-3.9202,-3.9363,-3.9436,-3.9685,-3.9875,-4.0007,-4.027,-4.0431,-4.0475,-4.0475,-4.0446,-4.0387,-4.0124,-3.9641,-3.8939,-3.8412,-3.7665,-3.6758,0.0,0.0,0.0,-3.7519,-3.7753,-3.7914,-3.7431,-3.7007,-3.6729,-3.7387,0.0,-3.7329,-3.7417,-3.7256,-3.6758,-3.6422,0.0,0.0,0.0,0.0,0.0,0.0,0.0,0.0,0.0,0.0,0.0,-3.2456,-3.2134,-3.2339,-3.3846,-3.4475,-3.3715,-3.5324,-3.6626,-3.7109,-3.7548,-3.8031,-3.8587,-3.8895,-3.929,-3.986,-4.0138,-4.0431,-4.0753,-4.1338,-4.1616,-4.1426,-4.1675,-4.1631,-4.0987,-4.0885,-4.0475,-3.9538,-3.9187,-3.8909,-3.8617,-3.8543,-3.8543,-3.8543,-3.8543,-3.8543,-3.8543,-3.8543,-3.8543,-3.8543,-3.8543,-3.8543,-3.8543,-3.8543,-3.8543,-3.8543,-3.8543,-3.8543,-3.8543,-3.8543,-3.85,-3.8382,-3.8353,-3.8353,-3.5765,0.0,-3.5631,-3.5391,0.0,-3.499,-3.4229,-3.304,-3.3761,-3.4608,-3.5814,-3.6733,-3.7378,-3.8139,-3.8481,-3.8558,-3.8529,-3.8221,-3.8426,-3.9026,-3.9202,-3.9626,-4.0241,-4.0402,-4.0475,-4.0475,-4.0475,-4.0475,-4.0475,-4.0314,-3.9992,-3.9495,-3.9173,-3.869,-3.8075,-3.8368,-3.8441,-3.8295,-3.8295,-3.8529,-3.8982,-3.869,-3.8134,-3.7387,-3.8104,0.0,0.0,0.0,0.0,0.0,0.0,0.0,0.0,0.0,0.0,-3.5075,-3.4227,-3.4036,-3.4783,-3.4432,-3.4929,-3.667,-3.6524,-3.5997,-3.5207,-3.6187,-3.6773,-3.6626,-3.7197,-3.7826,-3.8456,-3.869,-3.8982,-3.9451,-3.9787,-4.0124,-4.0446,-4.0768,-4.1075,-4.1382,-4.1704,-4.1836,-4.1704,-4.1792,-4.1646,-4.109,-4.0973,-4.0621,-3.9729,-3.9377,-3.9099,-3.8631,-3.8543,-3.8543,-3.8543,-3.8543,-3.8543,-3.8543,-3.8543,-3.8543,-3.8543,-3.8543,-3.8543,-3.8543,-3.8543,-3.8543,-3.8543,-3.8543,-3.8543,-3.8543,-3.8543,-3.8543,-3.8543,-3.8543,-3.8529,-3.6286,-3.6072,-3.6072,-3.5658,-3.499,-3.499,-3.4576,-3.3961,0.0,0.0,0.0,-3.6924,-3.7744,-3.8369,-3.83,-3.8412,-3.8353,-3.7636,-3.787,-3.8865,-3.888,-3.9451,-4.046,-4.0475,-4.0475,-4.0475,-4.0475,-4.0475,-4.0475,-4.0475,-4.0343,-4.0109,-4.0021,-3.986,-3.9626,-3.986,-3.9758,-3.9304,-3.9056,-3.9319,-4.0109,-4.0021,-3.9334,-3.8002,-3.8865,-3.8704,-3.7417,-3.7607,-3.7358,-3.6495,-3.5924,-3.5631,-3.5661,-3.5675,-3.607,-3.6948,-3.708,-3.7622,-3.869,-3.8251,-3.8485,-3.9831,-3.9714,-3.9114,-3.8002,-3.8119,-3.8456,-3.8982,-3.8734,-3.8675,-3.8997,-3.9085,-3.9348,-3.9948,-4.0343,-4.0694,-4.1031,-4.1397,-4.1733,-4.2011,-4.2143,-4.2143,-4.2099,-4.2085,-4.1807,-4.1236,-4.109,-4.0665,-3.9758,-3.9363,-3.9085,-3.8646,-3.8543,-3.8543,-3.8543,-3.8543,-3.8543,-3.8543,-3.8543,-3.8543,-3.8543,-3.8543,-3.8543,-3.8543,-3.8543,-3.8543,-3.8543,-3.8543,-3.8543,-3.8543,-3.8543,-3.8543,-3.8543,-3.8543,-3.8751,-3.6112,-3.6072,-3.6072,-3.6006,-3.5885,-3.5885,-3.5819,-3.5658,-3.5097,-3.499,-3.5496,-3.6435,-3.7311,-3.7997,-3.8568,-3.9285,-3.9743,-3.9875,-4.0036,-4.0212,-4.0212,-4.0314,-4.0475,-4.0475,-4.0475,-4.0475,-4.049,-4.0475,-4.0475,-4.0475,-4.046,-4.0387,-4.0138,-3.9977,-3.9934,-3.9977,-4.0095,-4.0255,-3.9173,-3.8675,-3.8792,-3.8265,-3.7885,-3.7695,-3.8339,-3.8587,-3.8353,-3.8382,-3.8221,-3.7812,-3.7446,-3.7373,-3.7636,-3.7636,-3.7973,-3.8631,-3.8939,-3.9304,-3.9743,-3.9451,-3.9334,-3.9568,-3.9787,-3.9729,-3.929,-3.9026,-3.8924,-3.9012,-3.8748,-3.8675,-3.8997,-3.9275,-3.9597,-3.9992,-4.0548,-4.1031,-4.1368,-4.1894,-4.2348,-4.267,-4.2992,-4.2992,-4.2699,-4.267,-4.2319,-4.1602,-4.1265,-4.0899,-3.9787,-3.9026,-3.869,-3.8558,-3.8543,-3.8543,-3.8617,-3.8543,-3.8602,-3.8543,-3.8573,-3.8617,-3.8617,-3.8617,-3.8617,-3.8558,-3.8617,-3.8602,-3.8587,-3.8543,-3.8587,-3.8587,-3.8587,-3.8573,-3.8573,-3.8587,-3.8781,-3.654,-3.654,-3.654,-3.654,-3.654,-3.654,-3.654,-3.6513,-3.6126,-3.5925,-3.5925,-3.7059,-3.7699,-3.7809,-3.8769,-3.9039,-3.9024,-3.8874,-3.9187,-3.967,-3.9699,-4.0065,-4.0709,-4.0753,-4.0841,-4.0987,-4.0826,-4.0753,-4.0738,-4.0577,-4.0475,-4.0475,-4.0329,-4.027,-4.0255,-4.027,-4.0343,-4.0475,-3.9904,-3.9597,-3.9597,-3.9304,-3.9158,-3.9158,-3.9451,-3.9597,-3.9597,-3.9421,-3.926,-3.9129,-3.8792,-3.869,-3.8836,-3.8851,-3.8982,-3.926,-3.9421,-3.9656,-3.9977,-4.0021,-3.9963,-3.9802,-4.008,-4.0197,-4.0051,-3.9743,-3.948,-3.9304,-3.9143,-3.9129,-3.9275,-3.9582,-3.9977,-4.049,-4.0958,-4.1411,-4.1909,-4.2348,-4.2772,-4.308,-4.3255,-4.3167,-4.267,-4.2597,-4.2333,-4.1572,-4.1192,-4.0607,-3.9875,-3.9377,-3.8997,-3.8836,-3.8807,-3.8895,-3.9026,-3.907,-3.907,-3.907,-3.907,-3.9056,-3.907,-3.9056,-3.9056,-3.907,-3.907,-3.907,-3.9056,-3.907,-3.8997,-3.8821,-3.8807,-3.8807,-3.9226,-3.9763,-4.0182,-3.674,-3.674,-3.674,-3.678,-3.6834,-3.6847,-3.6874,-3.6941,-3.6927,-3.6807,-3.684,-3.7688,-3.7826,-3.7963,-3.8597,-3.871,-3.8382,-3.8364,-3.8646,-3.9304,-3.9421,-4.0007,-4.0914,-4.1046,-4.1207,-4.1397,-4.1192,-4.1075,-4.1046,-4.0753,-4.0548,-4.049,-4.0475,-4.0475,-4.0475,-4.0475,-4.0475,-4.0475,-4.0475,-4.0475,-4.0475,-4.0475,-4.0475,-4.0475,-4.0475,-4.0475,-4.0475,-4.0241,-4.008,-3.9992,-3.9758,-3.9597,-3.9524,-3.9582,-3.9626,-3.9626,-3.9685,-3.9846,-4.0095,-4.0343,-4.0373,-4.0138,-4.0343,-4.0475,-4.046,-4.0255,-3.9977,-3.9685,-3.9538,-3.9524,-3.9626,-3.9831,-4.0255,-4.0899,-4.1251,-4.1631,-4.2187,-4.2626,-4.2963,-4.3211,-4.3314,-4.3138,-4.2655,-4.2494,-4.226,-4.166,-4.0943,-4.0402,-4.0124,-3.9787,-3.9421,-3.9304,-3.9187,-3.9217,-3.948,-3.9495,-3.948,-3.9509,-3.9495,-3.9451,-3.9465,-3.9495,-3.9509,-3.9465,-3.9553,-3.9582,-3.9612,-3.9699,-3.9626,-3.9465,-3.9649,-3.9817,-4.0468,-4.1468,-4.1782,-3.6166,-3.6153,-3.6179,-3.6313,-3.654,-3.6553,-3.6687,-3.6914,-3.6941,-3.6927,-3.6887,-3.6887,-3.7343,-3.7825,-3.8361,-3.8962,-3.9413,-4.0023,-4.0226,-4.0343,-4.0665,-4.0855,-4.1016,-4.1265,-4.1411,-4.1455,-4.1426,-4.1397,-4.1382,-4.1075,-4.0782,-4.0519,-4.0475,-4.0504,-4.0504,-4.0504,-4.049,-4.049,-4.0475,-4.0475,-4.0475,-4.0475,-4.0475,-4.0475,-4.0475,-4.0475,-4.0475,-4.046,-4.0299,-4.0036,-3.9977,-3.9816,-3.9597,-3.9802,-3.9948,-3.9963,-4.0226,-4.0416,-4.0431,-4.0475,-4.046,-4.0446,-4.046,-4.0475,-4.0475,-4.046,-4.0299,-4.0007,-3.9699,-3.9685,-3.9904,-4.0007,-4.0329,-4.0929,-4.128,-4.1587,-4.1997,-4.2494,-4.2889,-4.2904,-4.3211,-4.3226,-4.2875,-4.2758,-4.2524,-4.1894,-4.1163,-4.0621,-4.0475,-4.0109,-3.9846,-3.986,-3.9714,-3.9568,-3.9626,-3.9538,-3.9685,-3.9641,-3.9568,-3.967,-3.9729,-3.9685,-3.9553,-3.9919,-3.9875,-4.0051,-4.0095,-4.0168,-4.0373,-4.0458,-4.066,-4.1385,-4.2049,-4.2497,-4.2601,-3.6072,-3.6072,-3.6072,-3.6139,-3.6259,-3.6433,-3.658,-3.6687,-3.6861,-3.6941,-3.6941,-3.6941,-3.6941,-3.7383,-3.8706,-3.9146,-3.9132,-4.0037,-4.0592,-4.0768,-4.0914,-4.1163,-4.1514,-4.1646,-4.1807,-4.1968,-4.1807,-4.1719,-4.1631,-4.1221,-4.0987,-4.1031,-4.087,-4.087,-4.1031,-4.1046,-4.106,-4.106,-4.1046,-4.106,-4.1002,-4.068,-4.0475,-4.0475,-4.0475,-4.0475,-4.0475,-4.0475,-4.0431,-4.0299,-4.0285,-4.0226,-4.0095,-4.0212,-4.0285,-4.0299,-4.0416,-4.0475,-4.0475,-4.0475,-4.0475,-4.0475,-4.0475,-4.0475,-4.0475,-4.0475,-4.0504,-4.0534,-4.0285,-4.008,-4.0051,-4.0343,-4.0768,-4.1192,-4.1529,-4.1894,-4.2421,-4.2699,-4.2933,-4.3138,-4.327,-4.3226,-4.2919,-4.2699,-4.2407,-4.1982,-4.1499,-4.1236,-4.1075,-4.0958,-4.1002,-4.109,-4.1148,-4.0943,-4.0548,-4.0548,-4.0621,-4.0651,-4.0651,-4.0651,-4.0621,-4.0651,-4.0665,-4.0636,-4.0753,-4.0841,-4.0885,-4.0914,-4.1016,-4.1385,-4.207,-4.2664,-4.2682,-4.3613,-4.3952,-3.5952,-3.5939,-3.5859,-3.5872,-3.5979,-3.6259,-3.6433,-3.654,-3.6821,-3.6941,-3.6941,-3.6941,-3.6941,-3.7162,-3.8706,-3.9146,-3.9146,-4.0037,-4.0665,-4.0958,-4.106,-4.1382,-4.1865,-4.1997,-4.2143,-4.2319,-4.2143,-4.1982,-4.1865,-4.147,-4.1309,-4.1397,-4.1221,-4.1221,-4.1426,-4.1441,-4.1441,-4.1441,-4.1441,-4.1441,-4.1382,-4.0987,-4.0753,-4.0753,-4.0753,-4.0753,-4.0753,-4.0753,-4.0753,-4.0753,-4.0738,-4.0709,-4.0621,-4.0621,-4.0577,-4.049,-4.0475,-4.0475,-4.0475,-4.0475,-4.0475,-4.0475,-4.0475,-4.0475,-4.0475,-4.0475,-4.0592,-4.0753,-4.0694,-4.0519,-4.0504,-4.0826,-4.1221,-4.1529,-4.1777,-4.2143,-4.2626,-4.2728,-4.2816,-4.305,-4.3021,-4.3006,-4.2772,-4.2538,-4.2304,-4.2099,-4.1953,-4.1836,-4.1631,-4.166,-4.1733,-4.1894,-4.2143,-4.2055,-4.1514,-4.1499,-4.169,-4.1704,-4.166,-4.1646,-4.1704,-4.1704,-4.169,-4.1514,-4.1704,-4.1836,-4.1865,-4.185,-4.2106,-4.2828,-4.3585,-4.4174,-4.4442,-4.5091,-4.5392,-3.5645,-3.5605,-3.5351,-3.5418,-3.5672,-3.5965,-3.6246,-3.65,-3.6794,-3.6927,-3.6941,-3.6941,-3.6941,-3.6941,-3.8266,-3.9132,-3.9599,-4.0271,-4.0694,-4.1016,-4.1294,-4.1587,-4.1909,-4.2216,-4.2363,-4.2377,-4.2348,-4.2187,-4.1938,-4.185,-4.1719,-4.147,-4.1441,-4.1441,-4.1499,-4.1514,-4.1455,-4.1514,-4.1514,-4.1485,-4.147,-4.1441,-4.1411,-4.1397,-4.1382,-4.1353,-4.1368,-4.1397,-4.1382,-4.1397,-4.1353,-4.1251,-4.0987,-4.0943,-4.0812,-4.0563,-4.0519,-4.0504,-4.0504,-4.0519,-4.0504,-4.0475,-4.0475,-4.0475,-4.0475,-4.0475,-4.0534,-4.0548,-4.0841,-4.1031,-4.1338,-4.1382,-4.1543,-4.1807,-4.1894,-4.2114,-4.2377,-4.2524,-4.2421,-4.2494,-4.2597,-4.2641,-4.2494,-4.2392,-4.245,-4.2363,-4.2129,-4.1968,-4.1982,-4.1748,-4.1807,-4.2041,-4.2289,-4.2392,-4.2333,-4.2319,-4.2333,-4.2348,-4.2348,-4.2363,-4.2348,-4.2333,-4.2348,-4.2392,-4.2538,-4.267,-4.2816,-4.3165,-4.3702,-4.4336,-4.518,-4.5804,-4.5913,-4.6679,-4.6679,-3.5351,-3.5338,-3.5244,-3.5257,-3.5378,-3.5672,-3.5952,-3.6246,-3.654,-3.6767,-3.6914,-3.6941,-3.7162,-3.7604,-3.8252,-3.8912,-3.916,-3.98,-4.0515,-4.128,-4.1587,-4.1909,-4.2202,-4.2333,-4.2377,-4.2377,-4.2377,-4.2333,-4.2202,-4.2011,-4.1953,-4.1997,-4.1836,-4.1836,-4.2011,-4.2041,-4.2041,-4.2041,-4.2055,-4.2055,-4.2055,-4.2055,-4.2055,-4.2026,-4.1646,-4.1441,-4.1441,-4.1441,-4.1441,-4.1441,-4.1441,-4.1397,-4.1294,-4.128,-4.1236,-4.1119,-4.1104,-4.1016,-4.0826,-4.0797,-4.0694,-4.0504,-4.0475,-4.0504,-4.0475,-4.049,-4.0651,-4.1002,-4.1177,-4.1558,-4.2099,-4.1997,-4.1777,-4.1909,-4.226,-4.248,-4.248,-4.2728,-4.2933,-4.2787,-4.286,-4.3006,-4.2963,-4.3006,-4.3006,-4.2992,-4.2904,-4.2816,-4.2846,-4.2875,-4.2919,-4.3124,-4.3402,-4.3621,-4.3621,-4.3226,-4.3006,-4.3006,-4.3006,-4.3036,-4.3036,-4.305,-4.305,-4.3021,-4.3182,-4.3226,-4.3503,-4.4218,-4.4646,-4.5083,-4.5998,-4.6772,-4.7045,-4.7204,-4.7172,-3.5698,-3.5605,-3.5511,-3.5485,-3.5511,-3.5792,-3.6032,-3.6259,-3.662,-3.6901,-3.7074,-3.7168,-3.7444,-3.789,-3.8335,-3.8543,-3.8779,-3.9807,-4.0703,-4.1455,-4.1763,-4.207,-4.2333,-4.2377,-4.2377,-4.2377,-4.2377,-4.2377,-4.2363,-4.2158,-4.2172,-4.2348,-4.2158,-4.2158,-4.2348,-4.2377,-4.2421,-4.2509,-4.2538,-4.2582,-4.267,-4.2699,-4.2699,-4.2641,-4.2289,-4.1953,-4.1777,-4.1748,-4.1748,-4.1763,-4.1748,-4.1704,-4.1602,-4.1499,-4.1441,-4.1441,-4.1441,-4.1368,-4.1163,-4.1119,-4.1031,-4.0826,-4.0797,-4.0768,-4.0665,-4.0738,-4.0973,-4.1236,-4.1514,-4.1938,-4.2436,-4.2392,-4.226,-4.2377,-4.2772,-4.2948,-4.2758,-4.3094,-4.3211,-4.3109,-4.3197,-4.3328,-4.3358,-4.3343,-4.3343,-4.3358,-4.3358,-4.3358,-4.3402,-4.3519,-4.3738,-4.3811,-4.3899,-4.4133,-4.4236,-4.4016,-4.387,-4.387,-4.3928,-4.3884,-4.3767,-4.3767,-4.3738,-4.3694,-4.368,-4.3915,-4.4136,-4.4826,-4.5295,-4.5778,-4.6557,-4.7383,-4.7521,-4.7458,-4.7521,-3.6727,-3.6446,-3.6193,-3.6072,-3.6112,-3.6353,-3.65,-3.6633,-3.7101,-3.7328,-3.7408,-3.7649,-3.7716,-3.7769,-3.7942,-3.8222,-3.8844,-4.0272,-4.0999,-4.1275,-4.1807,-4.2099,-4.2377,-4.2377,-4.2377,-4.2377,-4.2377,-4.2377,-4.2377,-4.2348,-4.2348,-4.2377,-4.2407,-4.2407,-4.2407,-4.248,-4.2597,-4.2802,-4.2875,-4.3021,-4.3299,-4.3285,-4.327,-4.3299,-4.3226,-4.2948,-4.2407,-4.2392,-4.2392,-4.2392,-4.2392,-4.2246,-4.1953,-4.169,-4.1485,-4.1529,-4.1499,-4.147,-4.1441,-4.1441,-4.1441,-4.1338,-4.1397,-4.1236,-4.106,-4.1192,-4.1294,-4.1251,-4.1602,-4.2085,-4.245,-4.2728,-4.2963,-4.327,-4.3314,-4.3328,-4.3314,-4.3343,-4.3372,-4.3387,-4.346,-4.3387,-4.3387,-4.3475,-4.3504,-4.3504,-4.3489,-4.3504,-4.3519,-4.3577,-4.3577,-4.3767,-4.3987,-4.4206,-4.4528,-4.4792,-4.4792,-4.4792,-4.488,-4.488,-4.4616,-4.4543,-4.4441,-4.4382,-4.447,-4.4455,-4.4846,-4.5548,-4.6277,-4.6752,-4.7448,-4.8125,-4.8125,-4.8125,-4.8125,-3.6887,-3.6794,-3.6714,-3.666,-3.6674,-3.6767,-3.6914,-3.7114,-3.7315,-3.7489,-3.7676,-3.7769,-3.7809,-3.7823,-3.8276,-3.8515,-3.8742,-3.9756,-4.0335,-4.0704,-4.1188,-4.1589,-4.1905,-4.2163,-4.2377,-4.2377,-4.2377,-4.2377,-4.2377,-4.2377,-4.2377,-4.2421,-4.2611,-4.2714,-4.2728,-4.2933,-4.3124,-4.3197,-4.3211,-4.327,-4.3358,-4.3372,-4.3372,-4.3358,-4.3358,-4.3241,-4.3065,-4.3065,-4.305,-4.3036,-4.305,-4.2904,-4.2582,-4.226,-4.2099,-4.2099,-4.2099,-4.1968,-4.1792,-4.1763,-4.169,-4.1514,-4.147,-4.1411,-4.1309,-4.1411,-4.1529,-4.1602,-4.1997,-4.2436,-4.2963,-4.3343,-4.3489,-4.3372,-4.3548,-4.3621,-4.3533,-4.3606,-4.3782,-4.3972,-4.4016,-4.4016,-4.4016,-4.4016,-4.4016,-4.4016,-4.4016,-4.4016,-4.4016,-4.4016,-4.4031,-4.4163,-4.4206,-4.4353,-4.4762,-4.5128,-4.5245,-4.5319,-4.5465,-4.5421,-4.5245,-4.5128,-4.5055,-4.5055,-4.5143,-4.5416,-4.5571,-4.6269,-4.701,-4.7703,-4.8137,-4.8601,-4.884,-4.8808,-4.8761,-3.7422,-3.7422,-3.7315,-3.7328,-3.7422,-3.7422,-3.7595,-3.7876,-3.7996,-3.8143,-3.8317,-3.8437,-3.8477,-3.8477,-3.8938,-3.8952,-3.9195,-3.9834,-4.0393,-4.0352,-4.1202,-4.1489,-4.1934,-4.2163,-4.2377,-4.2377,-4.2377,-4.2377,-4.2392,-4.2509,-4.2567,-4.2626,-4.2889,-4.305,-4.3065,-4.3255,-4.3402,-4.3504,-4.3533,-4.3592,-4.3694,-4.3724,-4.3724,-4.3709,-4.3724,-4.3709,-4.3709,-4.3709,-4.3606,-4.3416,-4.3358,-4.3255,-4.305,-4.2846,-4.2743,-4.2743,-4.2728,-4.2655,-4.2465,-4.248,-4.2377,-4.2187,-4.2158,-4.2026,-4.1924,-4.1953,-4.2202,-4.2114,-4.2494,-4.2963,-4.346,-4.3826,-4.3943,-4.3928,-4.4089,-4.4148,-4.4089,-4.425,-4.4441,-4.4631,-4.4689,-4.4689,-4.4689,-4.4689,-4.4675,-4.4675,-4.4675,-4.4675,-4.4675,-4.4689,-4.4675,-4.466,-4.4733,-4.4909,-4.5143,-4.5421,-4.5655,-4.5787,-4.5904,-4.5743,-4.5538,-4.5494,-4.5436,-4.5754,-4.5843,-4.6453,-4.69,-4.7712,-4.8477,-4.866,-4.8825,-4.9312,-4.9539,-4.9348,-4.9285,-3.829,-3.8263,-3.801,-3.8076,-3.8317,-3.833,-3.8491,-3.8758,-3.8998,-3.9092,-3.9185,-3.9319,-3.9493,-3.9546,-3.9399,-3.9412,-3.9796,-4.0175,-4.0397,-4.0743,-4.1179,-4.1632,-4.2323,-4.2553,-4.2553,-4.2524,-4.2509,-4.2494,-4.2567,-4.2772,-4.2889,-4.2933,-4.3211,-4.3387,-4.3416,-4.3416,-4.368,-4.3914,-4.3943,-4.4119,-4.4367,-4.4367,-4.4367,-4.4367,-4.4367,-4.4367,-4.4367,-4.4367,-4.4075,-4.3533,-4.346,-4.3416,-4.3387,-4.3372,-4.3285,-4.327,-4.3343,-4.3299,-4.3314,-4.3197,-4.3211,-4.3153,-4.3124,-4.3124,-4.2597,-4.2816,-4.2933,-4.2582,-4.3006,-4.3489,-4.3826,-4.4148,-4.4455,-4.4792,-4.4792,-4.488,-4.5201,-4.5201,-4.5143,-4.5187,-4.5275,-4.5275,-4.5201,-4.5201,-4.5201,-4.5201,-4.5187,-4.5158,-4.5158,-4.5128,-4.526,-4.526,-4.5231,-4.5479,-4.5714,-4.5889,-4.6138,-4.6372,-4.6445,-4.6284,-4.6328,-4.6284,-4.6269,-4.6577,-4.6914,-4.7501,-4.8089,-4.8927,-4.9423,-4.9577,-4.9777,-5.0039,-5.0206,-5.0063,-4.9984,-3.8731,-3.8905,-3.8838,-3.8972,-3.9225,-3.9252,-3.9279,-3.9372,-3.9439,-3.9506,-3.9519,-3.9559,-3.964,-3.9599,-3.9626,-3.9599,-3.964,-3.9864,-4.006,-4.0506,-4.0632,-4.1709,-4.2876,-4.3094,-4.308,-4.3065,-4.3036,-4.3109,-4.3109,-4.3167,-4.3226,-4.3241,-4.3563,-4.3724,-4.3753,-4.4177,-4.4441,-4.4587,-4.4792,-4.4909,-4.4982,-4.5011,-4.504,-4.504,-4.5011,-4.5011,-4.5026,-4.504,-4.4733,-4.4119,-4.3826,-4.3709,-4.3724,-4.3563,-4.3475,-4.3475,-4.3416,-4.3387,-4.3402,-4.3402,-4.3387,-4.3358,-4.3431,-4.3285,-4.3153,-4.3255,-4.327,-4.3167,-4.3489,-4.3841,-4.4163,-4.4499,-4.4923,-4.5377,-4.5333,-4.5231,-4.5304,-4.5289,-4.5289,-4.5289,-4.5319,-4.5348,-4.5377,-4.5377,-4.5392,-4.5392,-4.5421,-4.5421,-4.5553,-4.5523,-4.564,-4.5655,-4.5699,-4.6006,-4.627,-4.6416,-4.6635,-4.6928,-4.7016,-4.6987,-4.7108,-4.7316,-4.7331,-4.7628,-4.852,-4.9131,-4.9399,-4.9698,-5.0108,-5.0501,-5.0751,-5.0985,-5.0985,-5.089,-5.0858,-3.9199,-3.9346,-3.9346,-3.9506,-3.9773,-3.9786,-3.9853,-3.9947,-3.9974,-3.9974,-3.9974,-3.9974,-3.9974,-3.996,-3.9974,-3.9974,-3.9974,-4.02,-4.0678,-4.0917,-4.1142,-4.1716,-4.2491,-4.2654,-4.2654,-4.2654,-4.2669,-4.264,-4.2434,-4.2784,-4.2842,-4.3179,-4.354,-4.3997,-4.4294,-4.4719,-4.5011,-4.504,-4.5201,-4.5289,-4.5289,-4.5289,-4.5289,-4.5289,-4.5289,-4.5289,-4.5289,-4.5289,-4.5099,-4.4762,-4.4543,-4.4441,-4.4426,-4.428,-4.4177,-4.4163,-4.4177,-4.4177,-4.4133,-4.406,-4.3972,-4.3943,-4.387,-4.3694,-4.3621,-4.3665,-4.3738,-4.3606,-4.3972,-4.4294,-4.4543,-4.4938,-4.5421,-4.5845,-4.5816,-4.5699,-4.5699,-4.5728,-4.5699,-4.5699,-4.5714,-4.5772,-4.5875,-4.5889,-4.5962,-4.6094,-4.624,-4.6211,-4.6211,-4.6094,-4.6094,-4.6211,-4.6314,-4.6606,-4.6767,-4.6884,-4.7045,-4.7338,-4.8011,-4.8011,-4.8133,-4.8373,-4.8403,-4.8958,-4.9757,-5.0438,-5.057,-5.0763,-5.1287,-5.1478,-5.1716,-5.1668,-5.1652,-5.1493,-5.1477,-3.9613,-3.964,-3.964,-3.9813,-4.0054,-4.008,-4.0201,-4.0428,-4.0428,-4.0428,-4.0428,-4.0454,-4.0388,-4.0481,-4.0428,-4.0508,-4.0495,-4.102,-4.1276,-4.1519,-4.172,-4.2022,-4.1674,-4.1744,-4.1925,-4.1925,-4.1618,-4.1702,-4.208,-4.201,-4.2586,-4.3236,-4.3651,-4.408,-4.4623,-4.5172,-4.5319,-4.5348,-4.545,-4.5509,-4.5509,-4.5509,-4.5523,-4.5509,-4.5509,-4.5494,-4.5479,-4.545,-4.5406,-4.5392,-4.5333,-4.5201,-4.5216,-4.5245,-4.5231,-4.5158,-4.5084,-4.5114,-4.5187,-4.488,-4.4806,-4.4733,-4.4543,-4.4309,-4.4163,-4.4294,-4.4338,-4.4119,-4.4528,-4.4806,-4.5011,-4.5465,-4.5904,-4.6226,-4.6299,-4.6314,-4.6357,-4.6343,-4.6328,-4.6357,-4.6372,-4.6518,-4.6679,-4.6811,-4.6855,-4.6665,-4.6782,-4.6767,-4.6753,-4.6738,-4.684,-4.7045,-4.7133,-4.7221,-4.7309,-4.7353,-4.7513,-4.7961,-4.8654,-4.9184,-4.9185,-4.941,-4.9501,-4.9879,-5.0787,-5.1136,-5.1408,-5.1696,-5.1984,-5.2208,-5.2034,-5.2129,-5.2224,-5.1954,-5.1843,-3.9733,-3.9933,-3.9947,-4.0107,-4.0361,-4.0388,-4.0414,-4.0481,-4.0481,-4.0481,-4.0481,-4.0481,-4.0481,-4.0495,-4.0695,-4.0815,-4.0842,-4.1248,-4.1396,-4.1396,-4.1396,-4.1602,-4.1562,-4.1692,-4.2192,-4.2248,-4.2458,-4.2542,-4.237,-4.2523,-4.3262,-4.3751,-4.3808,-4.4454,-4.4986,-4.5494,-4.567,-4.5714,-4.5904,-4.6006,-4.5992,-4.5992,-4.5992,-4.5992,-4.6006,-4.6036,-4.605,-4.605,-4.605,-4.5948,-4.5611,-4.5377,-4.5362,-4.5348,-4.5362,-4.5362,-4.5348,-4.5319,-4.5289,-4.526,-4.5187,-4.5172,-4.5084,-4.5055,-4.5011,-4.4982,-4.5026,-4.4982,-4.5114,-4.5289,-4.5567,-4.5918,-4.6284,-4.6548,-4.665,-4.6738,-4.6914,-4.6782,-4.6753,-4.6914,-4.6972,-4.7045,-4.7104,-4.7118,-4.7177,-4.7235,-4.725,-4.7235,-4.7265,-4.7309,-4.7426,-4.7587,-4.7601,-4.7631,-4.7704,-4.7976,-4.8307,-4.8684,-4.9608,-5.023,-5.0243,-5.0422,-5.0499,-5.1105,-5.1471,-5.1791,-5.1791,-5.2047,-5.2272,-5.2304,-5.232,-5.232,-5.2272,-5.2161,-5.2129,-4.0107,-4.0241,-4.0241,-4.0334,-4.0468,-4.0481,-4.0481,-4.0481,-4.0481,-4.0481,-4.0481,-4.0481,-4.0548,-4.0695,-4.0842,-4.0962,-4.1109,-4.1256,-4.1336,-4.1323,-4.1323,-4.1336,-4.131,-4.1561,-4.1847,-4.1874,-4.1997,-4.2093,-4.2148,-4.2257,-4.2531,-4.334,-4.3452,-4.403,-4.5075,-4.5335,-4.5743,-4.6021,-4.6167,-4.627,-4.627,-4.627,-4.627,-4.627,-4.627,-4.627,-4.6255,-4.6255,-4.6255,-4.6182,-4.5933,-4.5743,-4.5743,-4.5743,-4.5743,-4.5743,-4.5743,-4.5757,-4.5743,-4.5611,-4.5523,-4.5509,-4.5392,-4.5304,-4.5289,-4.5289,-4.5289,-4.5333,-4.545,-4.5699,-4.6153,-4.6343,-4.6635,-4.6884,-4.6972,-4.7104,-4.7323,-4.7177,-4.7016,-4.7192,-4.7192,-4.7294,-4.7367,-4.744,-4.7572,-4.7674,-4.7733,-4.7733,-4.7762,-4.7791,-4.7806,-4.7894,-4.7923,-4.7967,-4.8055,-4.8603,-4.9091,-4.9638,-5.0184,-5.1019,-5.1424,-5.144,-5.1759,-5.2047,-5.2047,-5.2047,-5.2047,-5.232,-5.232,-5.232,-5.232,-5.232,-5.2288,-5.224,-5.224,-4.0481,-4.0481,-4.0481,-4.0481,-4.0481,-4.0481,-4.0481,-4.0481,-4.0535,-4.0575,-4.0561,-4.0575,-4.0815,-4.0949,-4.1056,-4.1216,-4.143,-4.1497,-4.1577,-4.1563,-4.1577,-4.1577,-4.155,-4.151,-4.1718,-4.147,-4.143,-4.1416,-4.1416,-4.1456,-4.2075,-4.2531,-4.2709,-4.3581,-4.4662,-4.5082,-4.5462,-4.5976,-4.624,-4.627,-4.627,-4.627,-4.627,-4.627,-4.627,-4.627,-4.627,-4.627,-4.627,-4.627,-4.627,-4.627,-4.627,-4.627,-4.627,-4.624,-4.6182,-4.6153,-4.6109,-4.5992,-4.5845,-4.5845,-4.564,-4.5494,-4.5494,-4.5523,-4.5538,-4.5582,-4.5743,-4.6036,-4.6592,-4.6665,-4.6855,-4.7133,-4.725,-4.7455,-4.7645,-4.7528,-4.7455,-4.7426,-4.7528,-4.7645,-4.7718,-4.7791,-4.7952,-4.8084,-4.8128,-4.8172,-4.8172,-4.8157,-4.8084,-4.807,-4.8055,-4.8314,-4.8662,-4.9211,-4.9728,-5.0245,-5.1019,-5.1534,-5.2047,-5.2047,-5.2047,-5.2047,-5.2304,-5.232,-5.232,-5.232,-5.232,-5.232,-5.232,-5.232,-5.232,-5.232,-5.232,-4.0481,-4.0481,-4.0481,-4.0481,-4.0481,-4.0481,-4.0495,-4.0521,-4.0748,-4.0829,-4.0869,-4.1069,-4.1189,-4.1323,-4.155,-4.179,-4.1937,-4.1964,-4.1991,-4.2004,-4.2004,-4.1991,-4.1978,-4.1951,-4.2004,-4.2004,-4.1857,-4.171,-4.1777,-4.1937,-4.2202,-4.2799,-4.3092,-4.3622,-4.4124,-4.4724,-4.5254,-4.5505,-4.6005,-4.627,-4.627,-4.627,-4.627,-4.627,-4.627,-4.627,-4.627,-4.627,-4.627,-4.627,-4.627,-4.627,-4.627,-4.627,-4.627,-4.627,-4.627,-4.627,-4.624,-4.6211,-4.6182,-4.6167,-4.6079,-4.6065,-4.6065,-4.6065,-4.5992,-4.605,-4.6094,-4.6255,-4.6328,-4.6679,-4.6914,-4.7192,-4.7499,-4.7748,-4.7967,-4.7982,-4.7909,-4.7865,-4.7938,-4.7952,-4.7967,-4.7996,-4.8055,-4.8128,-4.8143,-4.8172,-4.8172,-4.8172,-4.8143,-4.8143,-4.8143,-4.8662,-4.8951,-4.9728,-5.0245,-5.0761,-5.1534,-5.1791,-5.2304,-5.2304,-5.232,-5.232,-5.232,-5.232,-5.232,-5.232,-5.232,-5.232,-5.232,-5.232,-5.232,-5.232,-5.232,-4.0481,-4.0481,-4.0481,-4.0481,-4.0508,-4.0642,-4.0695,-4.0748,-4.1002,-4.1136,-4.1176,-4.1283,-4.1443,-4.1577,-4.1697,-4.1951,-4.2151,-4.2218,-4.2218,-4.2218,-4.2218,-4.2218,-4.2218,-4.2218,-4.2218,-4.2178,-4.2071,-4.1991,-4.2018,-4.2124,-4.2471,-4.2458,-4.2724,-4.2963,-4.3467,-4.3971,-4.4487,-4.5003,-4.5505,-4.602,-4.6255,-4.627,-4.627,-4.627,-4.627,-4.627,-4.627,-4.627,-4.627,-4.627,-4.627,-4.627,-4.627,-4.627,-4.627,-4.627,-4.627,-4.627,-4.627,-4.627,-4.6255,-4.6255,-4.627,-4.627,-4.627,-4.624,-4.627,-4.6299,-4.6475,-4.6592,-4.6782,-4.7016,-4.7367,-4.7645,-4.785,-4.7982,-4.8113,-4.8157,-4.8172,-4.8172,-4.8113,-4.8084,-4.8113,-4.8128,-4.8157,-4.8172,-4.8172,-4.8172,-4.8172,-4.8172,-4.8172,-4.8432,-4.8432,-4.8951,-4.947,-5.0245,-5.0761,-5.1277,-5.1791,-5.2047,-5.232,-5.232,-5.232,-5.232,-5.232,-5.232,-5.232,-5.232,-5.232,-5.232,-5.232,-5.232,-5.232,-5.232,-5.232,-4.0481,-4.0481,-4.0535,-4.0561,-4.0615,-4.0882,-4.0989,-4.1056,-4.131,-4.143,-4.143,-4.151,-4.167,-4.1817,-4.1897,-4.2004,-4.2218,-4.2218,-4.2218,-4.2218,-4.2218,-4.2218,-4.2218,-4.2218,-4.2218,-4.2218,-4.2191,-4.2218,-4.2178,-4.2205,-4.2218,-4.2218,-4.2218,-4.2471,-4.2976,-4.3215,-4.3984,-4.4487,-4.4989,-4.5505,-4.6005,-4.6255,-4.627,-4.627,-4.627,-4.627,-4.627,-4.627,-4.627,-4.627,-4.627,-4.627,-4.627,-4.627,-4.627,-4.627,-4.627,-4.627,-4.627,-4.627,-4.627,-4.627,-4.627,-4.627,-4.627,-4.627,-4.627,-4.6314,-4.6445,-4.6709,-4.6957,-4.7382,-4.7689,-4.7938,-4.8055,-4.8157,-4.8157,-4.8172,-4.8172,-4.8172,-4.8172,-4.8172,-4.8172,-4.8172,-4.8172,-4.8172,-4.8172,-4.8172,-4.8172,-4.8172,-4.8172,-4.8692,-4.8951,-4.9211,-4.9987,-5.0761,-5.1277,-5.1534,-5.2047,-5.2304,-5.232,-5.232,-5.232,-5.232,-5.232,-5.232,-5.232,-5.232,-5.232,-5.232,-5.232,-5.232,-5.232,-5.232,-5.232,-4.0481,-4.0495,-4.0748,-4.0855,-4.0895,-4.1163,-4.1296,-4.1336,-4.1603,-4.1737,-4.175,-4.1964,-4.2084,-4.2124,-4.2138,-4.2178,-4.2205,-4.2218,-4.2218,-4.2218,-4.2218,-4.2218,-4.2218,-4.2218,-4.2218,-4.2218,-4.2218,-4.2218,-4.2218,-4.2218,-4.2218,-4.2218,-4.2218,-4.2218,-4.2471,-4.2976,-4.3215,-4.3481,-4.3971,-4.4738,-4.5505,-4.6005,-4.627,-4.627,-4.627,-4.627,-4.6284,-4.6299,-4.6299,-4.627,-4.6284,-4.6284,-4.627,-4.627,-4.627,-4.627,-4.627,-4.627,-4.627,-4.627,-4.627,-4.627,-4.627,-4.627,-4.627,-4.627,-4.627,-4.627,-4.6357,-4.6562,-4.6914,-4.7162,-4.744,-4.7762,-4.8055,-4.8128,-4.8172,-4.8172,-4.8172,-4.8172,-4.8172,-4.8172,-4.8172,-4.8172,-4.8172,-4.8172,-4.8172,-4.8172,-4.8172,-4.8417,-4.8432,-4.8692,-4.947,-4.9987,-5.0504,-5.1019,-5.1534,-5.2047,-5.2047,-5.232,-5.232,-5.232,-5.232,-5.232,-5.232,-5.232,-5.232,-5.232,-5.232,-5.232,-5.232,-5.232,-5.232,-5.232,-5.232,-4.0722,-4.0735,-4.0855,-4.1002,-4.1176,-4.147,-4.159,-4.1657,-4.1897,-4.2031,-4.2044,-4.2151,-4.2218,-4.2218,-4.2218,-4.2218,-4.2218,-4.2218,-4.2218,-4.2218,-4.2218,-4.2218,-4.2218,-4.2218,-4.2218,-4.2218,-4.2218,-4.2218,-4.2218,-4.2218,-4.2218,-4.2218,-4.2218,-4.2218,-4.2218,-4.2458,-4.2963,-4.3481,-4.4236,-4.4989,-4.5254,-4.5755,-4.627,-4.627,-4.627,-4.627,-4.6314,-4.646,-4.6416,-4.6401,-4.6548,-4.6709,-4.6635,-4.6694,-4.6826,-4.6796,-4.6621,-4.646,-4.6314,-4.6284,-4.627,-4.627,-4.627,-4.627,-4.627,-4.627,-4.627,-4.627,-4.6621,-4.684,-4.706,-4.7484,-4.7733,-4.7982,-4.807,-4.8113,-4.8172,-4.8172,-4.8172,-4.8172,-4.8172,-4.8172,-4.8172,-4.8172,-4.8172,-4.8172,-4.8172,-4.8172,-4.8432,-4.8677,-4.8951,-4.8951,-4.9987,-5.0761,-5.1019,-5.1534,-5.1791,-5.2047,-5.2047,-5.232,-5.232,-5.232,-5.232,-5.232,-5.232,-5.232,-5.232,-5.232,-5.232,-5.232,-5.232,-5.232,-5.232,-5.232,-5.232,-4.1056,-4.1122,-4.1122,-4.1256,-4.1483,-4.1764,-4.1897,-4.1924,-4.2111,-4.2205,-4.2218,-4.2218,-4.2218,-4.2218,-4.2218,-4.2218,-4.2218,-4.2218,-4.2218,-4.2218,-4.2218,-4.2218,-4.2218,-4.2218,-4.2218,-4.2218,-4.2218,-4.2218,-4.2218,-4.2218,-4.2218,-4.2218,-4.2218,-4.2218,-4.2218,-4.2218,-4.2471,-4.2963,-4.4236,-4.4738,-4.4989,-4.577,-4.627,-4.627,-4.627,-4.6299,-4.6401,-4.6577,-4.6577,-4.6709,-4.6914,-4.7031,-4.6928,-4.7031,-4.7133,-4.7089,-4.6943,-4.6796,-4.6577,-4.6445,-4.6299,-4.627,-4.627,-4.627,-4.627,-4.627,-4.627,-4.627,-4.6562,-4.6914,-4.7265,-4.7645,-4.785,-4.7982,-4.8157,-4.8157,-4.8172,-4.8172,-4.8172,-4.8172,-4.8172,-4.8172,-4.8172,-4.8172,-4.8172,-4.8172,-4.8172,-4.8172,-4.8432,-4.8677,-4.9211,-4.947,-4.9987,-5.1019,-5.1534,-5.2047,-5.232,-5.232,-5.232,-5.232,-5.232,-5.232,-5.232,-5.232,-5.232,-5.232,-5.232,-5.232,-5.232,-5.232,-5.232,-5.232,-5.232,-5.232,-5.232,-4.1483,-4.1724,-4.1724,-4.1724,-4.1777,-4.2071,-4.2178,-4.2151,-4.2205,-4.2218,-4.2218,-4.2218,-4.2218,-4.2218,-4.2218,-4.2218,-4.2218,-4.2218,-4.2218,-4.2218,-4.2218,-4.2218,-4.2218,-4.2218,-4.2218,-4.2218,-4.2218,-4.2218,-4.2218,-4.2218,-4.2218,-4.2218,-4.2218,-4.2218,-4.2218,-4.2218,-4.2218,-4.271,-4.3719,-4.4222,-4.4738,-4.5505,-4.627,-4.627,-4.6299,-4.6401,-4.6679,-4.6796,-4.6884,-4.7045,-4.7265,-4.7309,-4.725,-4.7323,-4.7382,-4.7367,-4.7265,-4.7162,-4.7031,-4.6679,-4.6343,-4.6284,-4.6299,-4.6314,-4.627,-4.6284,-4.627,-4.6357,-4.665,-4.687,-4.7118,-4.7338,-4.7791,-4.8011,-4.8172,-4.8172,-4.8172,-4.8172,-4.8172,-4.8172,-4.8172,-4.8172,-4.8172,-4.8172,-4.8172,-4.8172,-4.8172,-4.8157,-4.8432,-4.8692,-4.9211,-4.9728,-4.9987,-5.1019,-5.2047,-5.232,-5.232,-5.232,-5.232,-5.232,-5.232,-5.232,-5.232,-5.232,-5.232,-5.232,-5.232,-5.232,-5.232,-5.232,-5.232,-5.232,-5.232,-5.232,-5.232,-4.179,-4.2044,-4.2058,-4.2044,-4.2058,-4.2165,-4.2218,-4.2218,-4.2218,-4.2218,-4.2218,-4.2218,-4.2218,-4.2218,-4.2218,-4.2218,-4.2218,-4.2218,-4.2218,-4.2218,-4.2218,-4.2218,-4.2218,-4.2218,-4.2218,-4.2218,-4.2218,-4.2218,-4.2218,-4.2218,-4.2218,-4.2218,-4.2231,-4.2218,-4.2218,-4.2218,-4.2218,-4.2471,-4.3215,-4.3719,-4.4473,-4.4989,-4.5755,-4.627,-4.6504,-4.6592,-4.6782,-4.7162,-4.7235,-4.7338,-4.7601,-4.7616,-4.7572,-4.766,-4.7733,-4.7718,-4.7616,-4.7528,-4.747,-4.7104,-4.6796,-4.6577,-4.6548,-4.6504,-4.6401,-4.6445,-4.6533,-4.6665,-4.6884,-4.7177,-4.7411,-4.7704,-4.7982,-4.8113,-4.8172,-4.8172,-4.8172,-4.8172,-4.8172,-4.8172,-4.8172,-4.8172,-4.8172,-4.8172,-4.8172,-4.8172,-4.8172,-4.8157,-4.8432,-4.8692,-4.947,-4.9987,-5.0504,-5.1019,-5.2063,-5.2304,-5.232,-5.232,-5.232,-5.232,-5.232,-5.232,-5.232,-5.232,-5.232,-5.232,-5.232,-5.232,-5.232,-5.232,-5.232,-5.232,-5.232,-5.232,-5.232,-4.2031,-4.2218,-4.2218,-4.2218,-4.2218,-4.2218,-4.2218,-4.2218,-4.2218,-4.2218,-4.2218,-4.2218,-4.2218,-4.2218,-4.2218,-4.2218,-4.2218,-4.2218,-4.2218,-4.2218,-4.2218,-4.2218,-4.2218,-4.2218,-4.2218,-4.2218,-4.2218,-4.2218,-4.2218,-4.2218,-4.2218,-4.2245,-4.2298,-4.2325,-4.2218,-4.2218,-4.2218,-4.2471,-4.2963,-4.3788,-4.4334,-4.5297,-4.5958,-4.6504,-4.6694,-4.6884,-4.7104,-4.744,-4.7601,-4.7704,-4.785,-4.7996,-4.7996,-4.8011,-4.8143,-4.8099,-4.7996,-4.785,-4.7762,-4.744,-4.7133,-4.6914,-4.6884,-4.6811,-4.6782,-4.6826,-4.6899,-4.7074,-4.7382,-4.7631,-4.7704,-4.7821,-4.7982,-4.8099,-4.8157,-4.8172,-4.8172,-4.8172,-4.8172,-4.8172,-4.8172,-4.8172,-4.8172,-4.8172,-4.8172,-4.8172,-4.8172,-4.8172,-4.8432,-4.8951,-4.947,-5.0245,-5.1019,-5.1534,-5.232,-5.232,-5.232,-5.232,-5.232,-5.232,-5.232,-5.232,-5.232,-5.232,-5.232,-5.232,-5.232,-5.232,-5.232,-5.232,-5.232,-5.232,-5.232,-5.232,-5.232,-4.2205,-4.2218,-4.2218,-4.2218,-4.2218,-4.2218,-4.2218,-4.2218,-4.2218,-4.2231,-4.2258,-4.2258,-4.2258,-4.2258,-4.2285,-4.2271,-4.2218,-4.2218,-4.2218,-4.2218,-4.2218,-4.2218,-4.2218,-4.2218,-4.2218,-4.2218,-4.2271,-4.2298,-4.2258,-4.2365,-4.2325,-4.2378,-4.2539,-4.2552,-4.2271,-4.2231,-4.2231,-4.2498,-4.3536,-4.4207,-4.4825,-4.5749,-4.6442,-4.6899,-4.6972,-4.7148,-4.7455,-4.7674,-4.7835,-4.7996,-4.8055,-4.8128,-4.8113,-4.8113,-4.8172,-4.8143,-4.8143,-4.8128,-4.8099,-4.7557,-4.7338,-4.7294,-4.7323,-4.7353,-4.7499,-4.7484,-4.7426,-4.7674,-4.7674,-4.7645,-4.7689,-4.7835,-4.8084,-4.8201,-4.8289,-4.826,-4.8274,-4.8172,-4.8172,-4.8172,-4.8172,-4.8172,-4.8172,-4.8172,-4.8172,-4.8172,-4.8172,-4.8172,-4.8432,-4.8951,-4.9987,-5.0504,-5.1277,-5.1791,-5.2304,-5.232,-5.232,-5.232,-5.232,-5.232,-5.232,-5.232,-5.232,-5.232,-5.232,-5.232,-5.232,-5.232,-5.232,-5.232,-5.232,-5.232,-5.232,-5.232,-5.232,-4.2218,-4.2218,-4.2218,-4.2218,-4.2218,-4.2218,-4.2218,-4.2218,-4.2231,-4.2325,-4.2485,-4.2512,-4.2512,-4.2512,-4.2472,-4.2392,-4.2231,-4.2218,-4.2218,-4.2231,-4.2245,-4.2218,-4.2231,-4.2285,-4.2258,-4.2285,-4.2365,-4.2512,-4.2525,-4.2632,-4.2766,-4.2859,-4.2859,-4.2886,-4.2833,-4.2793,-4.2806,-4.3062,-4.3844,-4.4383,-4.4964,-4.5913,-4.6464,-4.725,-4.7309,-4.747,-4.7733,-4.7879,-4.804,-4.8157,-4.8157,-4.8172,-4.8172,-4.8172,-4.8172,-4.8172,-4.8172,-4.8172,-4.8157,-4.7923,-4.7879,-4.785,-4.7806,-4.785,-4.7982,-4.8157,-4.823,-4.8318,-4.8333,-4.8406,-4.8655,-4.8669,-4.8787,-4.8743,-4.8743,-4.8567,-4.8479,-4.8274,-4.8172,-4.8172,-4.8172,-4.8201,-4.8216,-4.826,-4.8274,-4.8506,-4.852,-4.8751,-4.8751,-4.9485,-5.0261,-5.1019,-5.1534,-5.2047,-5.232,-5.2399,-5.2351,-5.232,-5.232,-5.232,-5.232,-5.232,-5.232,-5.232,-5.232,-5.232,-5.232,-5.232,-5.232,-5.232,-5.232,-5.232,-5.232,-5.232,-5.232,-4.2218,-4.2218,-4.2218,-4.2218,-4.2218,-4.2218,-4.2271,-4.2365,-4.2378,-4.2539,-4.2766,-4.2806,-4.2739,-4.2686,-4.2632,-4.2499,-4.2231,-4.2218,-4.2338,-4.2352,-4.2378,-4.2472,-4.2525,-4.2499,-4.2592,-4.2579,-4.2672,-4.2806,-4.2819,-4.2993,-4.3127,-4.3193,-4.3247,-4.3327,-4.33,-4.3247,-4.3046,-4.3291,-4.4049,-4.4903,-4.5473,-4.6271,-4.6797,-4.7528,-4.766,-4.7762,-4.7894,-4.804,-4.8172,-4.8172,-4.8172,-4.8172,-4.8172,-4.8172,-4.8172,-4.8172,-4.8172,-4.8172,-4.8157,-4.8318,-4.8318,-4.8494,-4.8333,-4.8304,-4.8406,-4.8538,-4.8757,-4.8918,-4.9094,-4.9108,-4.9138,-4.9152,-4.9152,-4.9094,-4.9021,-4.8845,-4.8772,-4.8567,-4.8435,-4.8406,-4.8348,-4.8333,-4.8333,-4.8348,-4.8667,-4.8638,-4.8869,-4.913,-4.939,-5.0169,-5.0977,-5.1541,-5.2074,-5.2379,-5.2621,-5.2558,-5.2494,-5.2335,-5.232,-5.232,-5.232,-5.232,-5.232,-5.232,-5.232,-5.232,-5.232,-5.232,-5.232,-5.232,-5.232,-5.232,-5.232,-5.232,-5.232,-4.2218,-4.2218,-4.2218,-4.2231,-4.2245,-4.2298,-4.2432,-4.2659,-4.2672,-4.2846,-4.31,-4.31,-4.3006,-4.2766,-4.2726,-4.2592,-4.2392,-4.2338,-4.2472,-4.2619,-4.2672,-4.2819,-4.2939,-4.2993,-4.2926,-4.3006,-4.31,-4.31,-4.3113,-4.326,-4.3394,-4.3487,-4.3541,-4.3661,-4.3648,-4.3567,-4.3367,-4.3913,-4.4623,-4.5524,-4.6168,-4.6743,-4.7402,-4.7835,-4.7909,-4.7938,-4.804,-4.8157,-4.8172,-4.8172,-4.8172,-4.8172,-4.8172,-4.8172,-4.8172,-4.8172,-4.8172,-4.823,-4.8289,-4.8509,-4.8743,-4.8845,-4.8552,-4.8669,-4.8904,-4.905,-4.9211,-4.9357,-4.946,-4.9328,-4.924,-4.9269,-4.9299,-4.9255,-4.9211,-4.9152,-4.9138,-4.9006,-4.8874,-4.8787,-4.8699,-4.8669,-4.8669,-4.8669,-4.9195,-4.9457,-4.9734,-5.0333,-5.0594,-5.1041,-5.1624,-5.2301,-5.2561,-5.3082,-5.3003,-5.2812,-5.2669,-5.2526,-5.2351,-5.232,-5.232,-5.232,-5.232,-5.232,-5.232,-5.232,-5.232,-5.232,-5.232,-5.232,-5.232,-5.232,-5.232,-5.232,-5.232,-4.2218,-4.2218,-4.2218,-4.2338,-4.2552,-4.2752,-4.2779,-4.2699,-4.2873,-4.3127,-4.3407,-4.3407,-4.3327,-4.3287,-4.3273,-4.3073,-4.2926,-4.2846,-4.2899,-4.2953,-4.2966,-4.3033,-4.3086,-4.3153,-4.3113,-4.3193,-4.3287,-4.3407,-4.3461,-4.3567,-4.3714,-4.3861,-4.3821,-4.3928,-4.3968,-4.4022,-4.4245,-4.4703,-4.5352,-4.593,-4.6812,-4.7434,-4.8055,-4.804,-4.807,-4.8084,-4.8128,-4.8172,-4.8172,-4.8172,-4.8172,-4.8172,-4.8172,-4.8172,-4.8172,-4.8201,-4.8348,-4.8523,-4.8567,-4.8816,-4.905,-4.9138,-4.8948,-4.9269,-4.9562,-4.9679,-4.9665,-4.9723,-4.9782,-4.9679,-4.9635,-4.965,-4.965,-4.9621,-4.9562,-4.9474,-4.9445,-4.9343,-4.9211,-4.9079,-4.8991,-4.8991,-4.8991,-4.952,-4.9799,-5.0326,-5.062,-5.1222,-5.1764,-5.2211,-5.2551,-5.2971,-5.3233,-5.3464,-5.3225,-5.3019,-5.286,-5.2717,-5.2494,-5.232,-5.232,-5.232,-5.232,-5.232,-5.232,-5.232,-5.232,-5.232,-5.232,-5.232,-5.232,-5.232,-5.232,-5.232,-5.232,-4.2218,-4.2231,-4.2352,-4.2565,-4.2859,-4.314,-4.3153,-4.3046,-4.3193,-4.3434,-4.3701,-4.3714,-4.3648,-4.3514,-4.3474,-4.334,-4.3073,-4.3046,-4.3113,-4.326,-4.326,-4.3394,-4.3407,-4.3434,-4.3487,-4.3527,-4.3594,-4.3714,-4.3754,-4.3848,-4.3995,-4.3982,-4.4008,-4.4008,-4.4062,-4.4222,-4.4982,-4.5472,-4.5933,-4.6627,-4.7082,-4.7782,-4.8201,-4.8201,-4.8201,-4.8201,-4.8187,-4.8187,-4.8172,-4.8172,-4.8172,-4.8172,-4.8172,-4.8172,-4.8289,-4.8348,-4.8509,-4.8699,-4.8845,-4.9138,-4.9269,-4.9357,-4.9416,-4.9694,-4.9796,-4.9855,-4.9913,-4.9986,-5.0045,-5.0074,-5.0074,-5.0089,-5.0074,-5.0074,-4.9943,-4.9811,-4.9723,-4.9635,-4.9504,-4.9357,-4.9313,-4.9313,-4.9594,-5.0126,-5.0657,-5.0922,-5.1731,-5.229,-5.2585,-5.3081,-5.3206,-5.3644,-5.3877,-5.3797,-5.3543,-5.3257,-5.305,-5.2828,-5.2494,-5.2367,-5.2335,-5.232,-5.232,-5.232,-5.232,-5.232,-5.232,-5.232,-5.232,-5.232,-5.232,-5.232,-5.232,-5.232,-5.232,-4.2231,-4.2298,-4.2592,-4.2886,-4.3153,-4.3447,-4.3554,-4.3567,-4.3567,-4.3728,-4.3955,-4.3995,-4.3821,-4.3661,-4.3634,-4.3501,-4.3367,-4.3327,-4.342,-4.3554,-4.3567,-4.3674,-4.3835,-4.3982,-4.3835,-4.3928,-4.3982,-4.3901,-4.3968,-4.4008,-4.4008,-4.4008,-4.4008,-4.4008,-4.4048,-4.4382,-4.4823,-4.5275,-4.6099,-4.6838,-4.6919,-4.7563,-4.8245,-4.8289,-4.8304,-4.8304,-4.8274,-4.8245,-4.8216,-4.823,-4.823,-4.8245,-4.8318,-4.8348,-4.8494,-4.8611,-4.8757,-4.8904,-4.9123,-4.9416,-4.9606,-4.9738,-4.9913,-4.9986,-5.0001,-4.9957,-5.0001,-5.006,-5.0089,-5.0104,-5.0104,-5.0104,-5.0104,-5.0104,-5.003,-4.9972,-4.9928,-4.9855,-4.9796,-4.9679,-4.965,-4.965,-5.0186,-5.0735,-5.1521,-5.1787,-5.26,-5.3411,-5.3411,-5.366,-5.4035,-5.4226,-5.4163,-5.4051,-5.3908,-5.3622,-5.3273,-5.2971,-5.2637,-5.2383,-5.2335,-5.232,-5.232,-5.232,-5.232,-5.232,-5.232,-5.232,-5.232,-5.232,-5.232,-5.232,-5.232,-5.232,-5.232,-4.2352,-4.2605,-4.3113,-4.3367,-4.3461,-4.3754,-4.3888,-4.3888,-4.3888,-4.3928,-4.3995,-4.3995,-4.3968,-4.3875,-4.3848,-4.3768,-4.3754,-4.3661,-4.3808,-4.3848,-4.3848,-4.3888,-4.3995,-4.4022,-4.4022,-4.4008,-4.4008,-4.4008,-4.4008,-4.4008,-4.4008,-4.4008,-4.4035,-4.4048,-4.4088,-4.4476,-4.4957,-4.5076,-4.6335,-4.7275,-4.7837,-4.8197,-4.8889,-4.886,-4.8845,-4.8816,-4.8757,-4.864,-4.8728,-4.8816,-4.8626,-4.8684,-4.8889,-4.8874,-4.8787,-4.8772,-4.9094,-4.9211,-4.9357,-4.965,-4.9884,-4.9957,-5.0045,-5.0074,-5.0074,-5.0016,-5.0001,-5.0074,-5.0104,-5.0104,-5.0104,-5.0104,-5.0104,-5.0104,-5.0104,-5.0104,-5.0104,-5.0074,-5.006,-5.0016,-4.9972,-5.0227,-5.0765,-5.1303,-5.2123,-5.2941,-5.3475,-5.4008,-5.3976,-5.4226,-5.4194,-5.4337,-5.4353,-5.4258,-5.4147,-5.3924,-5.3559,-5.3257,-5.2971,-5.2669,-5.2383,-5.232,-5.232,-5.232,-5.232,-5.232,-5.232,-5.232,-5.232,-5.232,-5.232,-5.232,-5.232,-5.232,-5.232,-4.2512,-4.2726,-4.3287,-4.3607,-4.3754,-4.3928,-4.4008,-4.4008,-4.4008,-4.4008,-4.4008,-4.4008,-4.4008,-4.4008,-4.4008,-4.4008,-4.4008,-4.3995,-4.3968,-4.3995,-4.4035,-4.4102,-4.4102,-4.4075,-4.4142,-4.4142,-4.4035,-4.4008,-4.4008,-4.4008,-4.4008,-4.4048,-4.4088,-4.4222,-4.4275,-4.4703,-4.4903,-4.4663,-4.6357,-4.7428,-4.8349,-4.8795,-4.8962,-4.8918,-4.905,-4.9108,-4.9079,-4.8933,-4.9006,-4.9065,-4.8933,-4.8918,-4.905,-4.9065,-4.9094,-4.9182,-4.9386,-4.9591,-4.965,-4.9825,-5.0104,-5.0104,-5.0104,-5.0104,-5.0104,-5.0045,-5.0045,-5.0104,-5.0104,-5.0104,-5.0104,-5.0104,-5.0104,-5.0104,-5.0104,-5.0104,-5.0104,-5.0089,-5.0074,-5.0074,-5.0315,-5.0855,-5.1393,-5.2184,-5.2735,-5.3003,-5.3852,-5.4401,-5.4401,-5.4401,-5.4401,-5.4401,-5.4401,-5.4401,-5.4306,-5.4083,-5.3781,-5.3511,-5.3225,-5.2955,-5.2637,-5.2431,-5.232,-5.232,-5.232,-5.232,-5.232,-5.232,-5.232,-5.232,-5.232,-5.232,-5.232,-5.232,-5.232,-4.2699,-4.2846,-4.3367,-4.3741,-4.3982,-4.4008,-4.4008,-4.4008,-4.4008,-4.4008,-4.4008,-4.4008,-4.4008,-4.4008,-4.4008,-4.4008,-4.4008,-4.4008,-4.4008,-4.4008,-4.4008,-4.4155,-4.4222,-4.4222,-4.4275,-4.4316,-4.4275,-4.4115,-4.4008,-4.4129,-4.4235,-4.4155,-4.4289,-4.4503,-4.4663,-4.4943,-4.5171,-4.5658,-4.6659,-4.7708,-4.8037,-4.8499,-4.8829,-4.9035,-4.9079,-4.924,-4.9255,-4.9211,-4.9211,-4.9284,-4.9328,-4.9343,-4.9357,-4.9401,-4.9401,-4.9518,-4.9621,-4.9782,-4.9899,-4.9986,-5.0074,-5.0104,-5.0104,-5.0104,-5.0104,-5.0104,-5.0104,-5.0104,-5.0104,-5.0104,-5.0104,-5.0104,-5.0104,-5.0104,-5.0104,-5.0104,-5.0104,-5.0104,-5.0104,-5.0104,-5.0644,-5.1184,-5.1991,-5.2781,-5.3049,-5.3584,-5.3852,-5.4134,-5.4401,-5.4401,-5.4401,-5.4401,-5.4401,-5.4401,-5.4401,-5.4242,-5.3972,-5.3591,-5.3305,-5.3098,-5.286,-5.251,-5.232,-5.232,-5.232,-5.232,-5.232,-5.232,-5.232,-5.232,-5.232,-5.232,-5.232,-5.232,-5.232,-4.2939,-4.3394,-4.3768,-4.3955,-4.4008,-4.4008,-4.4008,-4.4008,-4.4008,-4.4008,-4.4008,-4.4008,-4.4008,-4.4008,-4.4008,-4.4008,-4.4008,-4.4035,-4.4022,-4.4008,-4.4115,-4.4249,-4.4382,-4.4449,-4.4409,-4.4422,-4.4449,-4.4409,-4.4115,-4.4396,-4.4556,-4.4356,-4.4623,-4.4783,-4.4863,-4.5117,-4.5562,-4.6104,-4.6916,-4.7866,-4.8306,-4.9012,-4.96,-4.9869,-4.9869,-4.9913,-4.9855,-4.965,-4.9723,-4.9825,-4.9869,-4.9825,-4.9811,-4.9782,-4.9767,-4.9723,-4.984,-4.9855,-4.9943,-5.003,-5.0074,-5.0104,-5.0104,-5.0104,-5.0104,-5.0104,-5.0104,-5.0104,-5.0104,-5.0104,-5.0104,-5.0104,-5.0104,-5.0104,-5.0104,-5.0104,-5.0104,-5.0374,-5.0374,-5.0644,-5.1184,-5.1991,-5.2781,-5.3317,-5.3584,-5.3852,-5.4134,-5.4401,-5.4401,-5.4401,-5.4401,-5.4401,-5.4401,-5.4401,-5.4401,-5.4385,-5.4147,-5.3749,-5.3368,-5.3114,-5.2812,-5.2463,-5.232,-5.232,-5.232,-5.232,-5.232,-5.232,-5.232,-5.232,-5.232,-5.232,-5.232,-5.232,-5.232]}]]